<?xml version="1.0" encoding="UTF-8" standalone="no" ?>
<gpx xmlns="http://www.topografix.com/GPX/1/1" xmlns:xsi="http://www.w3.org/2001/XMLSchema-instance" xsi:schemaLocation="http://www.topografix.com/GPX/1/1 http://www.topografix.com/GPX/1/1/gpx.xsd" version="1.1" creator="VisuGPX - https://www.visugpx.com">
  <metadata>
    <name>26/10/2025 Rochénard</name>
  </metadata>
  <trk>
    <name><![CDATA[Rochénard]]></name>
    <extensions>
      <line xmlns="http://www.topografix.com/GPX/gpx_style/0/2">
        <color>0000FF</color>
        <width>4</width>
      </line>
    </extensions>
    <trkseg>
      <trkpt lat="46.32424" lon="-0.58388">
        <ele>7.37</ele>
        <time>2025-10-20T18:46:32.000Z</time>
      </trkpt>
      <trkpt lat="46.3243" lon="-0.58367">
        <ele>7.16</ele>
        <time>2025-10-20T18:46:32.003Z</time>
      </trkpt>
      <trkpt lat="46.32409" lon="-0.58357">
        <ele>7.08</ele>
        <time>2025-10-20T18:46:32.011Z</time>
      </trkpt>
      <trkpt lat="46.32387" lon="-0.58348">
        <ele>6.91</ele>
        <time>2025-10-20T18:46:32.023Z</time>
      </trkpt>
      <trkpt lat="46.32365" lon="-0.58336">
        <ele>6.6</ele>
        <time>2025-10-20T18:46:32.040Z</time>
      </trkpt>
      <trkpt lat="46.32342" lon="-0.58325">
        <ele>6.35</ele>
        <time>2025-10-20T18:46:32.062Z</time>
      </trkpt>
      <trkpt lat="46.32319" lon="-0.58313">
        <ele>6.19</ele>
        <time>2025-10-20T18:46:32.089Z</time>
      </trkpt>
      <trkpt lat="46.32296" lon="-0.58294">
        <ele>6.16</ele>
        <time>2025-10-20T18:46:32.121Z</time>
      </trkpt>
      <trkpt lat="46.32274" lon="-0.58275">
        <ele>6.02</ele>
        <time>2025-10-20T18:46:32.158Z</time>
      </trkpt>
      <trkpt lat="46.32274" lon="-0.58275">
        <ele>5.94</ele>
        <time>2025-10-20T18:46:32.195Z</time>
      </trkpt>
      <trkpt lat="46.32251" lon="-0.58254">
        <ele>5.88</ele>
        <time>2025-10-20T18:46:32.237Z</time>
      </trkpt>
      <trkpt lat="46.32229" lon="-0.58234">
        <ele>5.7</ele>
        <time>2025-10-20T18:46:32.285Z</time>
      </trkpt>
      <trkpt lat="46.32224" lon="-0.58243">
        <ele>5.62</ele>
        <time>2025-10-20T18:46:32.334Z</time>
      </trkpt>
      <trkpt lat="46.32221" lon="-0.58251">
        <ele>5.56</ele>
        <time>2025-10-20T18:46:32.385Z</time>
      </trkpt>
      <trkpt lat="46.32216" lon="-0.58262">
        <ele>5.54</ele>
        <time>2025-10-20T18:46:32.437Z</time>
      </trkpt>
      <trkpt lat="46.32212" lon="-0.58271">
        <ele>5.54</ele>
        <time>2025-10-20T18:46:32.491Z</time>
      </trkpt>
      <trkpt lat="46.32207" lon="-0.58281">
        <ele>5.57</ele>
        <time>2025-10-20T18:46:32.547Z</time>
      </trkpt>
      <trkpt lat="46.32196" lon="-0.58305">
        <ele>5.63</ele>
        <time>2025-10-20T18:46:32.606Z</time>
      </trkpt>
      <trkpt lat="46.32186" lon="-0.58328">
        <ele>5.66</ele>
        <time>2025-10-20T18:46:32.669Z</time>
      </trkpt>
      <trkpt lat="46.32186" lon="-0.58328">
        <ele>5.7</ele>
        <time>2025-10-20T18:46:32.732Z</time>
      </trkpt>
      <trkpt lat="46.32173" lon="-0.58354">
        <ele>5.72</ele>
        <time>2025-10-20T18:46:32.800Z</time>
      </trkpt>
      <trkpt lat="46.32166" lon="-0.58369">
        <ele>5.74</ele>
        <time>2025-10-20T18:46:32.870Z</time>
      </trkpt>
      <trkpt lat="46.3216" lon="-0.58384">
        <ele>5.74</ele>
        <time>2025-10-20T18:46:32.943Z</time>
      </trkpt>
      <trkpt lat="46.32156" lon="-0.58391">
        <ele>5.73</ele>
        <time>2025-10-20T18:46:33.017Z</time>
      </trkpt>
      <trkpt lat="46.32151" lon="-0.58401">
        <ele>5.7</ele>
        <time>2025-10-20T18:46:33.093Z</time>
      </trkpt>
      <trkpt lat="46.32151" lon="-0.58404">
        <ele>5.68</ele>
        <time>2025-10-20T18:46:33.169Z</time>
      </trkpt>
      <trkpt lat="46.32147" lon="-0.58414">
        <ele>5.62</ele>
        <time>2025-10-20T18:46:33.247Z</time>
      </trkpt>
      <trkpt lat="46.32143" lon="-0.58421">
        <ele>5.56</ele>
        <time>2025-10-20T18:46:33.326Z</time>
      </trkpt>
      <trkpt lat="46.3213" lon="-0.58449">
        <ele>5.52</ele>
        <time>2025-10-20T18:46:33.410Z</time>
      </trkpt>
      <trkpt lat="46.32128" lon="-0.58453">
        <ele>5.48</ele>
        <time>2025-10-20T18:46:33.494Z</time>
      </trkpt>
      <trkpt lat="46.32117" lon="-0.58479">
        <ele>5.48</ele>
        <time>2025-10-20T18:46:33.582Z</time>
      </trkpt>
      <trkpt lat="46.32107" lon="-0.58502">
        <ele>5.5</ele>
        <time>2025-10-20T18:46:33.674Z</time>
      </trkpt>
      <trkpt lat="46.32098" lon="-0.58526">
        <ele>5.42</ele>
        <time>2025-10-20T18:46:33.770Z</time>
      </trkpt>
      <trkpt lat="46.32098" lon="-0.58528">
        <ele>5.38</ele>
        <time>2025-10-20T18:46:33.866Z</time>
      </trkpt>
      <trkpt lat="46.32096" lon="-0.58541">
        <ele>5.36</ele>
        <time>2025-10-20T18:46:33.964Z</time>
      </trkpt>
      <trkpt lat="46.32093" lon="-0.58556">
        <ele>5.31</ele>
        <time>2025-10-20T18:46:34.064Z</time>
      </trkpt>
      <trkpt lat="46.32091" lon="-0.58577">
        <ele>5.24</ele>
        <time>2025-10-20T18:46:34.167Z</time>
      </trkpt>
      <trkpt lat="46.32091" lon="-0.58586">
        <ele>5.16</ele>
        <time>2025-10-20T18:46:34.272Z</time>
      </trkpt>
      <trkpt lat="46.32091" lon="-0.58586">
        <ele>5.1</ele>
        <time>2025-10-20T18:46:34.377Z</time>
      </trkpt>
      <trkpt lat="46.32088" lon="-0.58613">
        <ele>5.03</ele>
        <time>2025-10-20T18:46:34.485Z</time>
      </trkpt>
      <trkpt lat="46.32085" lon="-0.5864">
        <ele>4.97</ele>
        <time>2025-10-20T18:46:34.597Z</time>
      </trkpt>
      <trkpt lat="46.32083" lon="-0.5864">
        <ele>4.9</ele>
        <time>2025-10-20T18:46:34.709Z</time>
      </trkpt>
      <trkpt lat="46.32059" lon="-0.58629">
        <ele>4.94</ele>
        <time>2025-10-20T18:46:34.826Z</time>
      </trkpt>
      <trkpt lat="46.32061" lon="-0.58618">
        <ele>4.88</ele>
        <time>2025-10-20T18:46:34.945Z</time>
      </trkpt>
      <trkpt lat="46.32061" lon="-0.58618">
        <ele>4.82</ele>
        <time>2025-10-20T18:46:35.064Z</time>
      </trkpt>
      <trkpt lat="46.32063" lon="-0.58605">
        <ele>4.75</ele>
        <time>2025-10-20T18:46:35.185Z</time>
      </trkpt>
      <trkpt lat="46.32067" lon="-0.58561">
        <ele>4.59</ele>
        <time>2025-10-20T18:46:35.312Z</time>
      </trkpt>
      <trkpt lat="46.32072" lon="-0.58517">
        <ele>4.44</ele>
        <time>2025-10-20T18:46:35.445Z</time>
      </trkpt>
      <trkpt lat="46.32072" lon="-0.58517">
        <ele>4.37</ele>
        <time>2025-10-20T18:46:35.578Z</time>
      </trkpt>
      <trkpt lat="46.32074" lon="-0.58496">
        <ele>4.3</ele>
        <time>2025-10-20T18:46:35.714Z</time>
      </trkpt>
      <trkpt lat="46.32069" lon="-0.58466">
        <ele>4.25</ele>
        <time>2025-10-20T18:46:35.854Z</time>
      </trkpt>
      <trkpt lat="46.32063" lon="-0.58436">
        <ele>4.24</ele>
        <time>2025-10-20T18:46:35.999Z</time>
      </trkpt>
      <trkpt lat="46.32063" lon="-0.58429">
        <ele>4.23</ele>
        <time>2025-10-20T18:46:36.145Z</time>
      </trkpt>
      <trkpt lat="46.32055" lon="-0.58387">
        <ele>4.24</ele>
        <time>2025-10-20T18:46:36.297Z</time>
      </trkpt>
      <trkpt lat="46.32046" lon="-0.58346">
        <ele>4.18</ele>
        <time>2025-10-20T18:46:36.455Z</time>
      </trkpt>
      <trkpt lat="46.32042" lon="-0.58309">
        <ele>4.24</ele>
        <time>2025-10-20T18:46:36.618Z</time>
      </trkpt>
      <trkpt lat="46.32044" lon="-0.58279">
        <ele>4.3</ele>
        <time>2025-10-20T18:46:36.785Z</time>
      </trkpt>
      <trkpt lat="46.32049" lon="-0.58249">
        <ele>4.35</ele>
        <time>2025-10-20T18:46:36.956Z</time>
      </trkpt>
      <trkpt lat="46.32055" lon="-0.58219">
        <ele>4.44</ele>
        <time>2025-10-20T18:46:37.132Z</time>
      </trkpt>
      <trkpt lat="46.32053" lon="-0.58195">
        <ele>4.6</ele>
        <time>2025-10-20T18:46:37.311Z</time>
      </trkpt>
      <trkpt lat="46.32042" lon="-0.58159">
        <ele>4.79</ele>
        <time>2025-10-20T18:46:37.495Z</time>
      </trkpt>
      <trkpt lat="46.32028" lon="-0.58129">
        <ele>4.96</ele>
        <time>2025-10-20T18:46:37.684Z</time>
      </trkpt>
      <trkpt lat="46.32014" lon="-0.58099">
        <ele>5.08</ele>
        <time>2025-10-20T18:46:37.878Z</time>
      </trkpt>
      <trkpt lat="46.3201" lon="-0.58075">
        <ele>5.17</ele>
        <time>2025-10-20T18:46:38.076Z</time>
      </trkpt>
      <trkpt lat="46.32012" lon="-0.58054">
        <ele>5.27</ele>
        <time>2025-10-20T18:46:38.277Z</time>
      </trkpt>
      <trkpt lat="46.31986" lon="-0.58045">
        <ele>5.28</ele>
        <time>2025-10-20T18:46:38.483Z</time>
      </trkpt>
      <trkpt lat="46.31963" lon="-0.58043">
        <ele>5.39</ele>
        <time>2025-10-20T18:46:38.694Z</time>
      </trkpt>
      <trkpt lat="46.31943" lon="-0.58055">
        <ele>5.48</ele>
        <time>2025-10-20T18:46:38.909Z</time>
      </trkpt>
      <trkpt lat="46.31924" lon="-0.58067">
        <ele>5.49</ele>
        <time>2025-10-20T18:46:39.128Z</time>
      </trkpt>
      <trkpt lat="46.31905" lon="-0.5808">
        <ele>5.46</ele>
        <time>2025-10-20T18:46:39.352Z</time>
      </trkpt>
      <trkpt lat="46.319" lon="-0.58075">
        <ele>5.45</ele>
        <time>2025-10-20T18:46:39.577Z</time>
      </trkpt>
      <trkpt lat="46.31891" lon="-0.58045">
        <ele>5.41</ele>
        <time>2025-10-20T18:46:39.806Z</time>
      </trkpt>
      <trkpt lat="46.31881" lon="-0.58015">
        <ele>5.34</ele>
        <time>2025-10-20T18:46:40.040Z</time>
      </trkpt>
      <trkpt lat="46.319" lon="-0.57996">
        <ele>5.32</ele>
        <time>2025-10-20T18:46:40.278Z</time>
      </trkpt>
      <trkpt lat="46.31907" lon="-0.57967">
        <ele>5.2</ele>
        <time>2025-10-20T18:46:40.521Z</time>
      </trkpt>
      <trkpt lat="46.31913" lon="-0.57938">
        <ele>5.03</ele>
        <time>2025-10-20T18:46:40.768Z</time>
      </trkpt>
      <trkpt lat="46.31925" lon="-0.57912">
        <ele>4.96</ele>
        <time>2025-10-20T18:46:41.019Z</time>
      </trkpt>
      <trkpt lat="46.31938" lon="-0.57886">
        <ele>4.88</ele>
        <time>2025-10-20T18:46:41.275Z</time>
      </trkpt>
      <trkpt lat="46.3195" lon="-0.57861">
        <ele>4.86</ele>
        <time>2025-10-20T18:46:41.535Z</time>
      </trkpt>
      <trkpt lat="46.31935" lon="-0.57848">
        <ele>4.77</ele>
        <time>2025-10-20T18:46:41.798Z</time>
      </trkpt>
      <trkpt lat="46.3192" lon="-0.57835">
        <ele>4.7</ele>
        <time>2025-10-20T18:46:42.065Z</time>
      </trkpt>
      <trkpt lat="46.31907" lon="-0.57807">
        <ele>4.68</ele>
        <time>2025-10-20T18:46:42.336Z</time>
      </trkpt>
      <trkpt lat="46.31889" lon="-0.57791">
        <ele>4.75</ele>
        <time>2025-10-20T18:46:42.612Z</time>
      </trkpt>
      <trkpt lat="46.31871" lon="-0.57774">
        <ele>4.85</ele>
        <time>2025-10-20T18:46:42.892Z</time>
      </trkpt>
      <trkpt lat="46.31853" lon="-0.57758">
        <ele>4.89</ele>
        <time>2025-10-20T18:46:43.176Z</time>
      </trkpt>
      <trkpt lat="46.3183" lon="-0.57734">
        <ele>4.88</ele>
        <time>2025-10-20T18:46:43.466Z</time>
      </trkpt>
      <trkpt lat="46.31806" lon="-0.5772">
        <ele>4.86</ele>
        <time>2025-10-20T18:46:43.761Z</time>
      </trkpt>
      <trkpt lat="46.31782" lon="-0.57706">
        <ele>4.92</ele>
        <time>2025-10-20T18:46:44.061Z</time>
      </trkpt>
      <trkpt lat="46.31767" lon="-0.577">
        <ele>5.01</ele>
        <time>2025-10-20T18:46:44.364Z</time>
      </trkpt>
      <trkpt lat="46.31754" lon="-0.57702">
        <ele>5.15</ele>
        <time>2025-10-20T18:46:44.670Z</time>
      </trkpt>
      <trkpt lat="46.31726" lon="-0.57694">
        <ele>5.25</ele>
        <time>2025-10-20T18:46:44.982Z</time>
      </trkpt>
      <trkpt lat="46.31703" lon="-0.57688">
        <ele>5.33</ele>
        <time>2025-10-20T18:46:45.298Z</time>
      </trkpt>
      <trkpt lat="46.31679" lon="-0.57682">
        <ele>5.43</ele>
        <time>2025-10-20T18:46:45.619Z</time>
      </trkpt>
      <trkpt lat="46.31656" lon="-0.57676">
        <ele>5.61</ele>
        <time>2025-10-20T18:46:45.945Z</time>
      </trkpt>
      <trkpt lat="46.31629" lon="-0.57678">
        <ele>5.76</ele>
        <time>2025-10-20T18:46:46.276Z</time>
      </trkpt>
      <trkpt lat="46.31602" lon="-0.5768">
        <ele>5.82</ele>
        <time>2025-10-20T18:46:46.613Z</time>
      </trkpt>
      <trkpt lat="46.31575" lon="-0.57683">
        <ele>5.99</ele>
        <time>2025-10-20T18:46:46.955Z</time>
      </trkpt>
      <trkpt lat="46.31548" lon="-0.57685">
        <ele>6.16</ele>
        <time>2025-10-20T18:46:47.302Z</time>
      </trkpt>
      <trkpt lat="46.31518" lon="-0.57686">
        <ele>6.21</ele>
        <time>2025-10-20T18:46:47.655Z</time>
      </trkpt>
      <trkpt lat="46.31488" lon="-0.57688">
        <ele>6.13</ele>
        <time>2025-10-20T18:46:48.014Z</time>
      </trkpt>
      <trkpt lat="46.31458" lon="-0.5769">
        <ele>6.1</ele>
        <time>2025-10-20T18:46:48.380Z</time>
      </trkpt>
      <trkpt lat="46.31428" lon="-0.57691">
        <ele>6.14</ele>
        <time>2025-10-20T18:46:48.752Z</time>
      </trkpt>
      <trkpt lat="46.31406" lon="-0.57697">
        <ele>6.17</ele>
        <time>2025-10-20T18:46:49.128Z</time>
      </trkpt>
      <trkpt lat="46.31384" lon="-0.57703">
        <ele>6.21</ele>
        <time>2025-10-20T18:46:49.509Z</time>
      </trkpt>
      <trkpt lat="46.31362" lon="-0.57708">
        <ele>6.25</ele>
        <time>2025-10-20T18:46:49.894Z</time>
      </trkpt>
      <trkpt lat="46.31362" lon="-0.57708">
        <ele>6.3</ele>
        <time>2025-10-20T18:46:50.279Z</time>
      </trkpt>
      <trkpt lat="46.31355" lon="-0.5771">
        <ele>6.34</ele>
        <time>2025-10-20T18:46:50.665Z</time>
      </trkpt>
      <trkpt lat="46.31339" lon="-0.57709">
        <ele>6.43</ele>
        <time>2025-10-20T18:46:51.055Z</time>
      </trkpt>
      <trkpt lat="46.31323" lon="-0.57708">
        <ele>6.49</ele>
        <time>2025-10-20T18:46:51.448Z</time>
      </trkpt>
      <trkpt lat="46.31312" lon="-0.577">
        <ele>6.55</ele>
        <time>2025-10-20T18:46:51.843Z</time>
      </trkpt>
      <trkpt lat="46.31286" lon="-0.57702">
        <ele>6.59</ele>
        <time>2025-10-20T18:46:52.244Z</time>
      </trkpt>
      <trkpt lat="46.3126" lon="-0.57704">
        <ele>6.68</ele>
        <time>2025-10-20T18:46:52.650Z</time>
      </trkpt>
      <trkpt lat="46.31233" lon="-0.57706">
        <ele>6.83</ele>
        <time>2025-10-20T18:46:53.061Z</time>
      </trkpt>
      <trkpt lat="46.31207" lon="-0.57708">
        <ele>6.87</ele>
        <time>2025-10-20T18:46:53.477Z</time>
      </trkpt>
      <trkpt lat="46.3118" lon="-0.5771">
        <ele>6.8</ele>
        <time>2025-10-20T18:46:53.899Z</time>
      </trkpt>
      <trkpt lat="46.31154" lon="-0.57713">
        <ele>6.72</ele>
        <time>2025-10-20T18:46:54.326Z</time>
      </trkpt>
      <trkpt lat="46.3116" lon="-0.577">
        <ele>6.71</ele>
        <time>2025-10-20T18:46:54.755Z</time>
      </trkpt>
      <trkpt lat="46.31164" lon="-0.57683">
        <ele>6.7</ele>
        <time>2025-10-20T18:46:55.187Z</time>
      </trkpt>
      <trkpt lat="46.31177" lon="-0.57656">
        <ele>6.7</ele>
        <time>2025-10-20T18:46:55.623Z</time>
      </trkpt>
      <trkpt lat="46.31189" lon="-0.5763">
        <ele>6.69</ele>
        <time>2025-10-20T18:46:56.064Z</time>
      </trkpt>
      <trkpt lat="46.31201" lon="-0.57603">
        <ele>6.65</ele>
        <time>2025-10-20T18:46:56.509Z</time>
      </trkpt>
      <trkpt lat="46.3118" lon="-0.57602">
        <ele>6.59</ele>
        <time>2025-10-20T18:46:56.958Z</time>
      </trkpt>
      <trkpt lat="46.31158" lon="-0.57602">
        <ele>6.52</ele>
        <time>2025-10-20T18:46:57.412Z</time>
      </trkpt>
      <trkpt lat="46.31137" lon="-0.57601">
        <ele>6.45</ele>
        <time>2025-10-20T18:46:57.870Z</time>
      </trkpt>
      <trkpt lat="46.31107" lon="-0.576">
        <ele>6.33</ele>
        <time>2025-10-20T18:46:58.334Z</time>
      </trkpt>
      <trkpt lat="46.31076" lon="-0.57599">
        <ele>6.18</ele>
        <time>2025-10-20T18:46:58.804Z</time>
      </trkpt>
      <trkpt lat="46.31046" lon="-0.57602">
        <ele>6.12</ele>
        <time>2025-10-20T18:46:59.280Z</time>
      </trkpt>
      <trkpt lat="46.31016" lon="-0.57605">
        <ele>6.04</ele>
        <time>2025-10-20T18:46:59.762Z</time>
      </trkpt>
      <trkpt lat="46.30986" lon="-0.57607">
        <ele>5.92</ele>
        <time>2025-10-20T18:47:00.250Z</time>
      </trkpt>
      <trkpt lat="46.30969" lon="-0.57606">
        <ele>5.81</ele>
        <time>2025-10-20T18:47:00.741Z</time>
      </trkpt>
      <trkpt lat="46.30952" lon="-0.57605">
        <ele>5.67</ele>
        <time>2025-10-20T18:47:01.236Z</time>
      </trkpt>
      <trkpt lat="46.30933" lon="-0.576">
        <ele>5.53</ele>
        <time>2025-10-20T18:47:01.735Z</time>
      </trkpt>
      <trkpt lat="46.30913" lon="-0.57595">
        <ele>5.43</ele>
        <time>2025-10-20T18:47:02.238Z</time>
      </trkpt>
      <trkpt lat="46.30911" lon="-0.57588">
        <ele>5.38</ele>
        <time>2025-10-20T18:47:02.742Z</time>
      </trkpt>
      <trkpt lat="46.30905" lon="-0.57584">
        <ele>5.32</ele>
        <time>2025-10-20T18:47:03.247Z</time>
      </trkpt>
      <trkpt lat="46.30903" lon="-0.57573">
        <ele>5.25</ele>
        <time>2025-10-20T18:47:03.754Z</time>
      </trkpt>
      <trkpt lat="46.30911" lon="-0.57541">
        <ele>5.22</ele>
        <time>2025-10-20T18:47:04.266Z</time>
      </trkpt>
      <trkpt lat="46.30922" lon="-0.57515">
        <ele>5.2</ele>
        <time>2025-10-20T18:47:04.782Z</time>
      </trkpt>
      <trkpt lat="46.30924" lon="-0.57502">
        <ele>5.17</ele>
        <time>2025-10-20T18:47:05.300Z</time>
      </trkpt>
      <trkpt lat="46.30905" lon="-0.57489">
        <ele>5.14</ele>
        <time>2025-10-20T18:47:05.822Z</time>
      </trkpt>
      <trkpt lat="46.30885" lon="-0.57475">
        <ele>4.99</ele>
        <time>2025-10-20T18:47:06.348Z</time>
      </trkpt>
      <trkpt lat="46.30866" lon="-0.57462">
        <ele>4.91</ele>
        <time>2025-10-20T18:47:06.878Z</time>
      </trkpt>
      <trkpt lat="46.30868" lon="-0.57444">
        <ele>4.88</ele>
        <time>2025-10-20T18:47:07.411Z</time>
      </trkpt>
      <trkpt lat="46.30855" lon="-0.57436">
        <ele>4.83</ele>
        <time>2025-10-20T18:47:07.947Z</time>
      </trkpt>
      <trkpt lat="46.30842" lon="-0.57438">
        <ele>4.79</ele>
        <time>2025-10-20T18:47:08.485Z</time>
      </trkpt>
      <trkpt lat="46.30816" lon="-0.57454">
        <ele>4.78</ele>
        <time>2025-10-20T18:47:09.029Z</time>
      </trkpt>
      <trkpt lat="46.3079" lon="-0.5747">
        <ele>4.87</ele>
        <time>2025-10-20T18:47:09.579Z</time>
      </trkpt>
      <trkpt lat="46.30763" lon="-0.57486">
        <ele>4.95</ele>
        <time>2025-10-20T18:47:10.134Z</time>
      </trkpt>
      <trkpt lat="46.30737" lon="-0.57502">
        <ele>5.01</ele>
        <time>2025-10-20T18:47:10.695Z</time>
      </trkpt>
      <trkpt lat="46.30711" lon="-0.57518">
        <ele>5.05</ele>
        <time>2025-10-20T18:47:11.262Z</time>
      </trkpt>
      <trkpt lat="46.30684" lon="-0.57534">
        <ele>5</ele>
        <time>2025-10-20T18:47:11.835Z</time>
      </trkpt>
      <trkpt lat="46.30658" lon="-0.5755">
        <ele>4.93</ele>
        <time>2025-10-20T18:47:12.413Z</time>
      </trkpt>
      <trkpt lat="46.30654" lon="-0.57543">
        <ele>4.97</ele>
        <time>2025-10-20T18:47:12.993Z</time>
      </trkpt>
      <trkpt lat="46.30649" lon="-0.57537">
        <ele>4.99</ele>
        <time>2025-10-20T18:47:13.574Z</time>
      </trkpt>
      <trkpt lat="46.30645" lon="-0.57539">
        <ele>5.01</ele>
        <time>2025-10-20T18:47:14.156Z</time>
      </trkpt>
      <trkpt lat="46.30645" lon="-0.57539">
        <ele>5.04</ele>
        <time>2025-10-20T18:47:14.738Z</time>
      </trkpt>
      <trkpt lat="46.30641" lon="-0.57539">
        <ele>5.07</ele>
        <time>2025-10-20T18:47:15.321Z</time>
      </trkpt>
      <trkpt lat="46.3063" lon="-0.57507">
        <ele>5.09</ele>
        <time>2025-10-20T18:47:15.908Z</time>
      </trkpt>
      <trkpt lat="46.30621" lon="-0.57479">
        <ele>5.1</ele>
        <time>2025-10-20T18:47:16.500Z</time>
      </trkpt>
      <trkpt lat="46.30612" lon="-0.57451">
        <ele>5.08</ele>
        <time>2025-10-20T18:47:17.096Z</time>
      </trkpt>
      <trkpt lat="46.30602" lon="-0.57423">
        <ele>5.12</ele>
        <time>2025-10-20T18:47:17.696Z</time>
      </trkpt>
      <trkpt lat="46.30587" lon="-0.57384">
        <ele>5.28</ele>
        <time>2025-10-20T18:47:18.303Z</time>
      </trkpt>
      <trkpt lat="46.30573" lon="-0.57344">
        <ele>5.37</ele>
        <time>2025-10-20T18:47:18.916Z</time>
      </trkpt>
      <trkpt lat="46.30558" lon="-0.57305">
        <ele>5.3</ele>
        <time>2025-10-20T18:47:19.535Z</time>
      </trkpt>
      <trkpt lat="46.30543" lon="-0.57265">
        <ele>5.26</ele>
        <time>2025-10-20T18:47:20.160Z</time>
      </trkpt>
      <trkpt lat="46.30528" lon="-0.57226">
        <ele>5.24</ele>
        <time>2025-10-20T18:47:20.791Z</time>
      </trkpt>
      <trkpt lat="46.30513" lon="-0.57186">
        <ele>5.15</ele>
        <time>2025-10-20T18:47:21.429Z</time>
      </trkpt>
      <trkpt lat="46.30499" lon="-0.57147">
        <ele>5.14</ele>
        <time>2025-10-20T18:47:22.073Z</time>
      </trkpt>
      <trkpt lat="46.30484" lon="-0.57108">
        <ele>5.02</ele>
        <time>2025-10-20T18:47:22.723Z</time>
      </trkpt>
      <trkpt lat="46.30469" lon="-0.57069">
        <ele>4.8</ele>
        <time>2025-10-20T18:47:23.379Z</time>
      </trkpt>
      <trkpt lat="46.30463" lon="-0.5706">
        <ele>4.59</ele>
        <time>2025-10-20T18:47:24.037Z</time>
      </trkpt>
      <trkpt lat="46.30456" lon="-0.57062">
        <ele>4.42</ele>
        <time>2025-10-20T18:47:24.696Z</time>
      </trkpt>
      <trkpt lat="46.30435" lon="-0.5708">
        <ele>4.27</ele>
        <time>2025-10-20T18:47:25.360Z</time>
      </trkpt>
      <trkpt lat="46.30413" lon="-0.57097">
        <ele>4.14</ele>
        <time>2025-10-20T18:47:26.029Z</time>
      </trkpt>
      <trkpt lat="46.30392" lon="-0.57114">
        <ele>3.95</ele>
        <time>2025-10-20T18:47:26.703Z</time>
      </trkpt>
      <trkpt lat="46.3037" lon="-0.57131">
        <ele>3.71</ele>
        <time>2025-10-20T18:47:27.382Z</time>
      </trkpt>
      <trkpt lat="46.30362" lon="-0.57131">
        <ele>3.43</ele>
        <time>2025-10-20T18:47:28.063Z</time>
      </trkpt>
      <trkpt lat="46.30355" lon="-0.57118">
        <ele>3.11</ele>
        <time>2025-10-20T18:47:28.746Z</time>
      </trkpt>
      <trkpt lat="46.30346" lon="-0.5708">
        <ele>2.75</ele>
        <time>2025-10-20T18:47:29.434Z</time>
      </trkpt>
      <trkpt lat="46.30337" lon="-0.57042">
        <ele>2.34</ele>
        <time>2025-10-20T18:47:30.128Z</time>
      </trkpt>
      <trkpt lat="46.30327" lon="-0.57004">
        <ele>1.98</ele>
        <time>2025-10-20T18:47:30.828Z</time>
      </trkpt>
      <trkpt lat="46.30318" lon="-0.56966">
        <ele>1.79</ele>
        <time>2025-10-20T18:47:31.533Z</time>
      </trkpt>
      <trkpt lat="46.30308" lon="-0.56927">
        <ele>1.65</ele>
        <time>2025-10-20T18:47:32.244Z</time>
      </trkpt>
      <trkpt lat="46.30299" lon="-0.56889">
        <ele>1.61</ele>
        <time>2025-10-20T18:47:32.961Z</time>
      </trkpt>
      <trkpt lat="46.3029" lon="-0.56851">
        <ele>1.54</ele>
        <time>2025-10-20T18:47:33.683Z</time>
      </trkpt>
      <trkpt lat="46.3028" lon="-0.56814">
        <ele>1.54</ele>
        <time>2025-10-20T18:47:34.411Z</time>
      </trkpt>
      <trkpt lat="46.30277" lon="-0.56775">
        <ele>1.66</ele>
        <time>2025-10-20T18:47:35.144Z</time>
      </trkpt>
      <trkpt lat="46.30274" lon="-0.56736">
        <ele>1.81</ele>
        <time>2025-10-20T18:47:35.882Z</time>
      </trkpt>
      <trkpt lat="46.30273" lon="-0.56694">
        <ele>1.95</ele>
        <time>2025-10-20T18:47:36.626Z</time>
      </trkpt>
      <trkpt lat="46.30272" lon="-0.56651">
        <ele>2.1</ele>
        <time>2025-10-20T18:47:37.376Z</time>
      </trkpt>
      <trkpt lat="46.30271" lon="-0.56608">
        <ele>2.38</ele>
        <time>2025-10-20T18:47:38.132Z</time>
      </trkpt>
      <trkpt lat="46.3027" lon="-0.56566">
        <ele>2.81</ele>
        <time>2025-10-20T18:47:38.894Z</time>
      </trkpt>
      <trkpt lat="46.3027" lon="-0.56524">
        <ele>3.25</ele>
        <time>2025-10-20T18:47:39.662Z</time>
      </trkpt>
      <trkpt lat="46.30296" lon="-0.56514">
        <ele>3.69</ele>
        <time>2025-10-20T18:47:40.435Z</time>
      </trkpt>
      <trkpt lat="46.30323" lon="-0.56505">
        <ele>4.2</ele>
        <time>2025-10-20T18:47:41.214Z</time>
      </trkpt>
      <trkpt lat="46.30348" lon="-0.56493">
        <ele>4.82</ele>
        <time>2025-10-20T18:47:41.998Z</time>
      </trkpt>
      <trkpt lat="46.30374" lon="-0.56481">
        <ele>5.61</ele>
        <time>2025-10-20T18:47:42.788Z</time>
      </trkpt>
      <trkpt lat="46.304" lon="-0.56469">
        <ele>6.48</ele>
        <time>2025-10-20T18:47:43.583Z</time>
      </trkpt>
      <trkpt lat="46.30426" lon="-0.56457">
        <ele>7.38</ele>
        <time>2025-10-20T18:47:44.384Z</time>
      </trkpt>
      <trkpt lat="46.30421" lon="-0.56427">
        <ele>8.4</ele>
        <time>2025-10-20T18:47:45.189Z</time>
      </trkpt>
      <trkpt lat="46.30416" lon="-0.56396">
        <ele>9.45</ele>
        <time>2025-10-20T18:47:45.998Z</time>
      </trkpt>
      <trkpt lat="46.3041" lon="-0.56366">
        <ele>10.57</ele>
        <time>2025-10-20T18:47:46.812Z</time>
      </trkpt>
      <trkpt lat="46.30404" lon="-0.5633">
        <ele>11.74</ele>
        <time>2025-10-20T18:47:47.631Z</time>
      </trkpt>
      <trkpt lat="46.30398" lon="-0.56295">
        <ele>13.02</ele>
        <time>2025-10-20T18:47:48.455Z</time>
      </trkpt>
      <trkpt lat="46.30392" lon="-0.56259">
        <ele>14.27</ele>
        <time>2025-10-20T18:47:49.284Z</time>
      </trkpt>
      <trkpt lat="46.30385" lon="-0.56223">
        <ele>15.51</ele>
        <time>2025-10-20T18:47:50.118Z</time>
      </trkpt>
      <trkpt lat="46.30388" lon="-0.56183">
        <ele>16.78</ele>
        <time>2025-10-20T18:47:50.958Z</time>
      </trkpt>
      <trkpt lat="46.3039" lon="-0.56142">
        <ele>18.2</ele>
        <time>2025-10-20T18:47:51.803Z</time>
      </trkpt>
      <trkpt lat="46.30396" lon="-0.56099">
        <ele>19.7</ele>
        <time>2025-10-20T18:47:52.654Z</time>
      </trkpt>
      <trkpt lat="46.30407" lon="-0.5606">
        <ele>21.23</ele>
        <time>2025-10-20T18:47:53.511Z</time>
      </trkpt>
      <trkpt lat="46.30418" lon="-0.56022">
        <ele>22.74</ele>
        <time>2025-10-20T18:47:54.374Z</time>
      </trkpt>
      <trkpt lat="46.30435" lon="-0.55988">
        <ele>24.3</ele>
        <time>2025-10-20T18:47:55.243Z</time>
      </trkpt>
      <trkpt lat="46.30452" lon="-0.55955">
        <ele>25.85</ele>
        <time>2025-10-20T18:47:56.118Z</time>
      </trkpt>
      <trkpt lat="46.30451" lon="-0.55919">
        <ele>27.35</ele>
        <time>2025-10-20T18:47:56.998Z</time>
      </trkpt>
      <trkpt lat="46.30449" lon="-0.55882">
        <ele>28.72</ele>
        <time>2025-10-20T18:47:57.883Z</time>
      </trkpt>
      <trkpt lat="46.30448" lon="-0.55846">
        <ele>30.05</ele>
        <time>2025-10-20T18:47:58.773Z</time>
      </trkpt>
      <trkpt lat="46.30447" lon="-0.55809">
        <ele>31.32</ele>
        <time>2025-10-20T18:47:59.668Z</time>
      </trkpt>
      <trkpt lat="46.30446" lon="-0.55773">
        <ele>32.45</ele>
        <time>2025-10-20T18:48:00.568Z</time>
      </trkpt>
      <trkpt lat="46.30443" lon="-0.55734">
        <ele>33.46</ele>
        <time>2025-10-20T18:48:01.473Z</time>
      </trkpt>
      <trkpt lat="46.3044" lon="-0.55694">
        <ele>34.23</ele>
        <time>2025-10-20T18:48:02.384Z</time>
      </trkpt>
      <trkpt lat="46.30437" lon="-0.55655">
        <ele>34.92</ele>
        <time>2025-10-20T18:48:03.300Z</time>
      </trkpt>
      <trkpt lat="46.30435" lon="-0.55616">
        <ele>35.55</ele>
        <time>2025-10-20T18:48:04.222Z</time>
      </trkpt>
      <trkpt lat="46.30408" lon="-0.55637">
        <ele>35.9</ele>
        <time>2025-10-20T18:48:05.150Z</time>
      </trkpt>
      <trkpt lat="46.30408" lon="-0.55637">
        <ele>36.25</ele>
        <time>2025-10-20T18:48:06.078Z</time>
      </trkpt>
      <trkpt lat="46.30384" lon="-0.55656">
        <ele>36.47</ele>
        <time>2025-10-20T18:48:07.011Z</time>
      </trkpt>
      <trkpt lat="46.3036" lon="-0.55675">
        <ele>36.63</ele>
        <time>2025-10-20T18:48:07.950Z</time>
      </trkpt>
      <trkpt lat="46.30336" lon="-0.55694">
        <ele>36.75</ele>
        <time>2025-10-20T18:48:08.894Z</time>
      </trkpt>
      <trkpt lat="46.30312" lon="-0.55713">
        <ele>36.72</ele>
        <time>2025-10-20T18:48:09.844Z</time>
      </trkpt>
      <trkpt lat="46.30285" lon="-0.5573">
        <ele>36.56</ele>
        <time>2025-10-20T18:48:10.800Z</time>
      </trkpt>
      <trkpt lat="46.3026" lon="-0.5574">
        <ele>36.28</ele>
        <time>2025-10-20T18:48:11.761Z</time>
      </trkpt>
      <trkpt lat="46.30235" lon="-0.5575">
        <ele>35.86</ele>
        <time>2025-10-20T18:48:12.727Z</time>
      </trkpt>
      <trkpt lat="46.30211" lon="-0.5576">
        <ele>35.36</ele>
        <time>2025-10-20T18:48:13.698Z</time>
      </trkpt>
      <trkpt lat="46.30186" lon="-0.55771">
        <ele>34.95</ele>
        <time>2025-10-20T18:48:14.674Z</time>
      </trkpt>
      <trkpt lat="46.30159" lon="-0.55772">
        <ele>34.53</ele>
        <time>2025-10-20T18:48:15.656Z</time>
      </trkpt>
      <trkpt lat="46.30132" lon="-0.55773">
        <ele>33.97</ele>
        <time>2025-10-20T18:48:16.643Z</time>
      </trkpt>
      <trkpt lat="46.30106" lon="-0.55779">
        <ele>33.25</ele>
        <time>2025-10-20T18:48:17.635Z</time>
      </trkpt>
      <trkpt lat="46.30091" lon="-0.5579">
        <ele>32.64</ele>
        <time>2025-10-20T18:48:18.631Z</time>
      </trkpt>
      <trkpt lat="46.30067" lon="-0.55812">
        <ele>32.04</ele>
        <time>2025-10-20T18:48:19.632Z</time>
      </trkpt>
      <trkpt lat="46.30042" lon="-0.55834">
        <ele>31.49</ele>
        <time>2025-10-20T18:48:20.639Z</time>
      </trkpt>
      <trkpt lat="46.30017" lon="-0.55856">
        <ele>30.89</ele>
        <time>2025-10-20T18:48:21.652Z</time>
      </trkpt>
      <trkpt lat="46.29993" lon="-0.55878">
        <ele>30.23</ele>
        <time>2025-10-20T18:48:22.671Z</time>
      </trkpt>
      <trkpt lat="46.29976" lon="-0.55897">
        <ele>29.66</ele>
        <time>2025-10-20T18:48:23.694Z</time>
      </trkpt>
      <trkpt lat="46.29955" lon="-0.55925">
        <ele>29.15</ele>
        <time>2025-10-20T18:48:24.723Z</time>
      </trkpt>
      <trkpt lat="46.29935" lon="-0.55953">
        <ele>28.74</ele>
        <time>2025-10-20T18:48:25.757Z</time>
      </trkpt>
      <trkpt lat="46.29922" lon="-0.55966">
        <ele>28.33</ele>
        <time>2025-10-20T18:48:26.794Z</time>
      </trkpt>
      <trkpt lat="46.29904" lon="-0.55979">
        <ele>27.97</ele>
        <time>2025-10-20T18:48:27.836Z</time>
      </trkpt>
      <trkpt lat="46.29885" lon="-0.55992">
        <ele>27.66</ele>
        <time>2025-10-20T18:48:28.882Z</time>
      </trkpt>
      <trkpt lat="46.29865" lon="-0.55999">
        <ele>27.36</ele>
        <time>2025-10-20T18:48:29.932Z</time>
      </trkpt>
      <trkpt lat="46.29845" lon="-0.56007">
        <ele>27.1</ele>
        <time>2025-10-20T18:48:30.986Z</time>
      </trkpt>
      <trkpt lat="46.29832" lon="-0.56007">
        <ele>26.88</ele>
        <time>2025-10-20T18:48:32.043Z</time>
      </trkpt>
      <trkpt lat="46.29809" lon="-0.56022">
        <ele>26.78</ele>
        <time>2025-10-20T18:48:33.105Z</time>
      </trkpt>
      <trkpt lat="46.29787" lon="-0.56037">
        <ele>26.73</ele>
        <time>2025-10-20T18:48:34.172Z</time>
      </trkpt>
      <trkpt lat="46.29764" lon="-0.56052">
        <ele>26.73</ele>
        <time>2025-10-20T18:48:35.243Z</time>
      </trkpt>
      <trkpt lat="46.29742" lon="-0.56067">
        <ele>26.79</ele>
        <time>2025-10-20T18:48:36.319Z</time>
      </trkpt>
      <trkpt lat="46.29718" lon="-0.56097">
        <ele>26.86</ele>
        <time>2025-10-20T18:48:37.402Z</time>
      </trkpt>
      <trkpt lat="46.29729" lon="-0.56122">
        <ele>26.96</ele>
        <time>2025-10-20T18:48:38.489Z</time>
      </trkpt>
      <trkpt lat="46.29742" lon="-0.56152">
        <ele>27.09</ele>
        <time>2025-10-20T18:48:39.581Z</time>
      </trkpt>
      <trkpt lat="46.29755" lon="-0.56183">
        <ele>27.27</ele>
        <time>2025-10-20T18:48:40.678Z</time>
      </trkpt>
      <trkpt lat="46.29767" lon="-0.56213">
        <ele>27.44</ele>
        <time>2025-10-20T18:48:41.780Z</time>
      </trkpt>
      <trkpt lat="46.29774" lon="-0.56219">
        <ele>27.59</ele>
        <time>2025-10-20T18:48:42.883Z</time>
      </trkpt>
      <trkpt lat="46.298" lon="-0.56223">
        <ele>27.79</ele>
        <time>2025-10-20T18:48:43.991Z</time>
      </trkpt>
      <trkpt lat="46.29817" lon="-0.56236">
        <ele>27.93</ele>
        <time>2025-10-20T18:48:45.103Z</time>
      </trkpt>
      <trkpt lat="46.29828" lon="-0.56275">
        <ele>28.06</ele>
        <time>2025-10-20T18:48:46.221Z</time>
      </trkpt>
      <trkpt lat="46.29839" lon="-0.56314">
        <ele>28.1</ele>
        <time>2025-10-20T18:48:47.345Z</time>
      </trkpt>
      <trkpt lat="46.2985" lon="-0.56353">
        <ele>28.18</ele>
        <time>2025-10-20T18:48:48.475Z</time>
      </trkpt>
      <trkpt lat="46.29861" lon="-0.56392">
        <ele>28.24</ele>
        <time>2025-10-20T18:48:49.611Z</time>
      </trkpt>
      <trkpt lat="46.29872" lon="-0.56431">
        <ele>28.23</ele>
        <time>2025-10-20T18:48:50.752Z</time>
      </trkpt>
      <trkpt lat="46.29883" lon="-0.5647">
        <ele>28.17</ele>
        <time>2025-10-20T18:48:51.899Z</time>
      </trkpt>
      <trkpt lat="46.29894" lon="-0.56509">
        <ele>28.09</ele>
        <time>2025-10-20T18:48:53.052Z</time>
      </trkpt>
      <trkpt lat="46.29885" lon="-0.56524">
        <ele>28.01</ele>
        <time>2025-10-20T18:48:54.208Z</time>
      </trkpt>
      <trkpt lat="46.29875" lon="-0.56554">
        <ele>27.91</ele>
        <time>2025-10-20T18:48:55.368Z</time>
      </trkpt>
      <trkpt lat="46.29872" lon="-0.56578">
        <ele>27.78</ele>
        <time>2025-10-20T18:48:56.532Z</time>
      </trkpt>
      <trkpt lat="46.29868" lon="-0.56601">
        <ele>27.59</ele>
        <time>2025-10-20T18:48:57.699Z</time>
      </trkpt>
      <trkpt lat="46.29874" lon="-0.56638">
        <ele>27.33</ele>
        <time>2025-10-20T18:48:58.871Z</time>
      </trkpt>
      <trkpt lat="46.29879" lon="-0.56674">
        <ele>27.02</ele>
        <time>2025-10-20T18:49:00.048Z</time>
      </trkpt>
      <trkpt lat="46.29882" lon="-0.56715">
        <ele>26.63</ele>
        <time>2025-10-20T18:49:01.231Z</time>
      </trkpt>
      <trkpt lat="46.29885" lon="-0.56756">
        <ele>26.24</ele>
        <time>2025-10-20T18:49:02.420Z</time>
      </trkpt>
      <trkpt lat="46.29869" lon="-0.56762">
        <ele>25.75</ele>
        <time>2025-10-20T18:49:03.612Z</time>
      </trkpt>
      <trkpt lat="46.29853" lon="-0.56768">
        <ele>25.19</ele>
        <time>2025-10-20T18:49:04.808Z</time>
      </trkpt>
      <trkpt lat="46.29824" lon="-0.56778">
        <ele>24.5</ele>
        <time>2025-10-20T18:49:06.010Z</time>
      </trkpt>
      <trkpt lat="46.29795" lon="-0.56788">
        <ele>23.65</ele>
        <time>2025-10-20T18:49:07.218Z</time>
      </trkpt>
      <trkpt lat="46.29766" lon="-0.56799">
        <ele>22.75</ele>
        <time>2025-10-20T18:49:08.431Z</time>
      </trkpt>
      <trkpt lat="46.29737" lon="-0.56809">
        <ele>21.88</ele>
        <time>2025-10-20T18:49:09.650Z</time>
      </trkpt>
      <trkpt lat="46.29714" lon="-0.56825">
        <ele>20.9</ele>
        <time>2025-10-20T18:49:10.875Z</time>
      </trkpt>
      <trkpt lat="46.2969" lon="-0.56841">
        <ele>19.84</ele>
        <time>2025-10-20T18:49:12.105Z</time>
      </trkpt>
      <trkpt lat="46.29667" lon="-0.56856">
        <ele>18.79</ele>
        <time>2025-10-20T18:49:13.340Z</time>
      </trkpt>
      <trkpt lat="46.29642" lon="-0.56864">
        <ele>17.71</ele>
        <time>2025-10-20T18:49:14.580Z</time>
      </trkpt>
      <trkpt lat="46.29618" lon="-0.56871">
        <ele>16.66</ele>
        <time>2025-10-20T18:49:15.825Z</time>
      </trkpt>
      <trkpt lat="46.29594" lon="-0.56879">
        <ele>15.62</ele>
        <time>2025-10-20T18:49:17.075Z</time>
      </trkpt>
      <trkpt lat="46.2957" lon="-0.56886">
        <ele>14.62</ele>
        <time>2025-10-20T18:49:18.330Z</time>
      </trkpt>
      <trkpt lat="46.29545" lon="-0.5691">
        <ele>13.66</ele>
        <time>2025-10-20T18:49:19.591Z</time>
      </trkpt>
      <trkpt lat="46.29521" lon="-0.56934">
        <ele>12.69</ele>
        <time>2025-10-20T18:49:20.858Z</time>
      </trkpt>
      <trkpt lat="46.29501" lon="-0.56959">
        <ele>11.88</ele>
        <time>2025-10-20T18:49:22.130Z</time>
      </trkpt>
      <trkpt lat="46.29482" lon="-0.56985">
        <ele>11.12</ele>
        <time>2025-10-20T18:49:23.407Z</time>
      </trkpt>
      <trkpt lat="46.29461" lon="-0.57009">
        <ele>10.41</ele>
        <time>2025-10-20T18:49:24.690Z</time>
      </trkpt>
      <trkpt lat="46.29461" lon="-0.57009">
        <ele>9.76</ele>
        <time>2025-10-20T18:49:25.973Z</time>
      </trkpt>
      <trkpt lat="46.29438" lon="-0.5703">
        <ele>9.17</ele>
        <time>2025-10-20T18:49:27.261Z</time>
      </trkpt>
      <trkpt lat="46.29416" lon="-0.57052">
        <ele>8.63</ele>
        <time>2025-10-20T18:49:28.554Z</time>
      </trkpt>
      <trkpt lat="46.29393" lon="-0.57073">
        <ele>8.19</ele>
        <time>2025-10-20T18:49:29.853Z</time>
      </trkpt>
      <trkpt lat="46.29371" lon="-0.57095">
        <ele>7.74</ele>
        <time>2025-10-20T18:49:31.157Z</time>
      </trkpt>
      <trkpt lat="46.29347" lon="-0.57118">
        <ele>7.25</ele>
        <time>2025-10-20T18:49:32.467Z</time>
      </trkpt>
      <trkpt lat="46.29324" lon="-0.57142">
        <ele>6.84</ele>
        <time>2025-10-20T18:49:33.782Z</time>
      </trkpt>
      <trkpt lat="46.29301" lon="-0.57165">
        <ele>6.57</ele>
        <time>2025-10-20T18:49:35.103Z</time>
      </trkpt>
      <trkpt lat="46.29278" lon="-0.57189">
        <ele>6.36</ele>
        <time>2025-10-20T18:49:36.430Z</time>
      </trkpt>
      <trkpt lat="46.29272" lon="-0.57187">
        <ele>6.16</ele>
        <time>2025-10-20T18:49:37.758Z</time>
      </trkpt>
      <trkpt lat="46.29253" lon="-0.57163">
        <ele>5.97</ele>
        <time>2025-10-20T18:49:39.091Z</time>
      </trkpt>
      <trkpt lat="46.29235" lon="-0.57138">
        <ele>5.87</ele>
        <time>2025-10-20T18:49:40.429Z</time>
      </trkpt>
      <trkpt lat="46.29216" lon="-0.57114">
        <ele>5.88</ele>
        <time>2025-10-20T18:49:41.772Z</time>
      </trkpt>
      <trkpt lat="46.292" lon="-0.57089">
        <ele>6.04</ele>
        <time>2025-10-20T18:49:43.120Z</time>
      </trkpt>
      <trkpt lat="46.29184" lon="-0.57065">
        <ele>6.17</ele>
        <time>2025-10-20T18:49:44.473Z</time>
      </trkpt>
      <trkpt lat="46.29173" lon="-0.57042">
        <ele>6.25</ele>
        <time>2025-10-20T18:49:45.829Z</time>
      </trkpt>
      <trkpt lat="46.29162" lon="-0.5702">
        <ele>6.29</ele>
        <time>2025-10-20T18:49:47.189Z</time>
      </trkpt>
      <trkpt lat="46.29157" lon="-0.56982">
        <ele>6.33</ele>
        <time>2025-10-20T18:49:48.554Z</time>
      </trkpt>
      <trkpt lat="46.29152" lon="-0.56944">
        <ele>6.36</ele>
        <time>2025-10-20T18:49:49.925Z</time>
      </trkpt>
      <trkpt lat="46.29152" lon="-0.56923">
        <ele>6.39</ele>
        <time>2025-10-20T18:49:51.299Z</time>
      </trkpt>
      <trkpt lat="46.29154" lon="-0.56902">
        <ele>6.43</ele>
        <time>2025-10-20T18:49:52.676Z</time>
      </trkpt>
      <trkpt lat="46.29165" lon="-0.56863">
        <ele>6.42</ele>
        <time>2025-10-20T18:49:54.059Z</time>
      </trkpt>
      <trkpt lat="46.29177" lon="-0.56824">
        <ele>6.54</ele>
        <time>2025-10-20T18:49:55.447Z</time>
      </trkpt>
      <trkpt lat="46.29188" lon="-0.56786">
        <ele>6.62</ele>
        <time>2025-10-20T18:49:56.841Z</time>
      </trkpt>
      <trkpt lat="46.29197" lon="-0.56747">
        <ele>6.66</ele>
        <time>2025-10-20T18:49:58.241Z</time>
      </trkpt>
      <trkpt lat="46.29195" lon="-0.56708">
        <ele>6.71</ele>
        <time>2025-10-20T18:49:59.646Z</time>
      </trkpt>
      <trkpt lat="46.29191" lon="-0.56672">
        <ele>6.73</ele>
        <time>2025-10-20T18:50:01.056Z</time>
      </trkpt>
      <trkpt lat="46.29187" lon="-0.56635">
        <ele>6.71</ele>
        <time>2025-10-20T18:50:02.471Z</time>
      </trkpt>
      <trkpt lat="46.29183" lon="-0.56599">
        <ele>6.71</ele>
        <time>2025-10-20T18:50:03.892Z</time>
      </trkpt>
      <trkpt lat="46.2918" lon="-0.56562">
        <ele>6.63</ele>
        <time>2025-10-20T18:50:05.318Z</time>
      </trkpt>
      <trkpt lat="46.2918" lon="-0.56562">
        <ele>6.56</ele>
        <time>2025-10-20T18:50:06.744Z</time>
      </trkpt>
      <trkpt lat="46.29158" lon="-0.56566">
        <ele>6.47</ele>
        <time>2025-10-20T18:50:08.174Z</time>
      </trkpt>
      <trkpt lat="46.29136" lon="-0.56569">
        <ele>6.33</ele>
        <time>2025-10-20T18:50:09.608Z</time>
      </trkpt>
      <trkpt lat="46.2911" lon="-0.56573">
        <ele>6.31</ele>
        <time>2025-10-20T18:50:11.048Z</time>
      </trkpt>
      <trkpt lat="46.29084" lon="-0.56576">
        <ele>6.23</ele>
        <time>2025-10-20T18:50:12.493Z</time>
      </trkpt>
      <trkpt lat="46.29058" lon="-0.5658">
        <ele>6.09</ele>
        <time>2025-10-20T18:50:13.943Z</time>
      </trkpt>
      <trkpt lat="46.29031" lon="-0.56584">
        <ele>5.9</ele>
        <time>2025-10-20T18:50:15.398Z</time>
      </trkpt>
      <trkpt lat="46.29015" lon="-0.56586">
        <ele>5.75</ele>
        <time>2025-10-20T18:50:16.857Z</time>
      </trkpt>
      <trkpt lat="46.28999" lon="-0.56588">
        <ele>5.62</ele>
        <time>2025-10-20T18:50:18.319Z</time>
      </trkpt>
      <trkpt lat="46.28999" lon="-0.56588">
        <ele>5.59</ele>
        <time>2025-10-20T18:50:19.781Z</time>
      </trkpt>
      <trkpt lat="46.28971" lon="-0.56594">
        <ele>5.55</ele>
        <time>2025-10-20T18:50:21.249Z</time>
      </trkpt>
      <trkpt lat="46.28943" lon="-0.566">
        <ele>5.58</ele>
        <time>2025-10-20T18:50:22.722Z</time>
      </trkpt>
      <trkpt lat="46.28915" lon="-0.56605">
        <ele>5.72</ele>
        <time>2025-10-20T18:50:24.201Z</time>
      </trkpt>
      <trkpt lat="46.28886" lon="-0.56611">
        <ele>6</ele>
        <time>2025-10-20T18:50:25.686Z</time>
      </trkpt>
      <trkpt lat="46.28858" lon="-0.56617">
        <ele>6.27</ele>
        <time>2025-10-20T18:50:27.176Z</time>
      </trkpt>
      <trkpt lat="46.2883" lon="-0.56623">
        <ele>6.46</ele>
        <time>2025-10-20T18:50:28.672Z</time>
      </trkpt>
      <trkpt lat="46.28801" lon="-0.56631">
        <ele>6.56</ele>
        <time>2025-10-20T18:50:30.174Z</time>
      </trkpt>
      <trkpt lat="46.28772" lon="-0.56639">
        <ele>6.79</ele>
        <time>2025-10-20T18:50:31.682Z</time>
      </trkpt>
      <trkpt lat="46.28743" lon="-0.56647">
        <ele>7.12</ele>
        <time>2025-10-20T18:50:33.196Z</time>
      </trkpt>
      <trkpt lat="46.28714" lon="-0.56655">
        <ele>7.56</ele>
        <time>2025-10-20T18:50:34.716Z</time>
      </trkpt>
      <trkpt lat="46.28692" lon="-0.56661">
        <ele>7.97</ele>
        <time>2025-10-20T18:50:36.240Z</time>
      </trkpt>
      <trkpt lat="46.2867" lon="-0.56668">
        <ele>8.45</ele>
        <time>2025-10-20T18:50:37.769Z</time>
      </trkpt>
      <trkpt lat="46.28647" lon="-0.56674">
        <ele>8.94</ele>
        <time>2025-10-20T18:50:39.302Z</time>
      </trkpt>
      <trkpt lat="46.28622" lon="-0.56677">
        <ele>9.48</ele>
        <time>2025-10-20T18:50:40.840Z</time>
      </trkpt>
      <trkpt lat="46.28597" lon="-0.56679">
        <ele>10.14</ele>
        <time>2025-10-20T18:50:42.383Z</time>
      </trkpt>
      <trkpt lat="46.28572" lon="-0.56682">
        <ele>10.87</ele>
        <time>2025-10-20T18:50:43.932Z</time>
      </trkpt>
      <trkpt lat="46.28547" lon="-0.56685">
        <ele>11.56</ele>
        <time>2025-10-20T18:50:45.486Z</time>
      </trkpt>
      <trkpt lat="46.28521" lon="-0.5669">
        <ele>12.2</ele>
        <time>2025-10-20T18:50:47.045Z</time>
      </trkpt>
      <trkpt lat="46.28495" lon="-0.56696">
        <ele>12.92</ele>
        <time>2025-10-20T18:50:48.609Z</time>
      </trkpt>
      <trkpt lat="46.28469" lon="-0.56708">
        <ele>13.73</ele>
        <time>2025-10-20T18:50:50.179Z</time>
      </trkpt>
      <trkpt lat="46.28442" lon="-0.56721">
        <ele>14.56</ele>
        <time>2025-10-20T18:50:51.754Z</time>
      </trkpt>
      <trkpt lat="46.28416" lon="-0.56733">
        <ele>15.34</ele>
        <time>2025-10-20T18:50:53.335Z</time>
      </trkpt>
      <trkpt lat="46.28389" lon="-0.56746">
        <ele>16.13</ele>
        <time>2025-10-20T18:50:54.921Z</time>
      </trkpt>
      <trkpt lat="46.28363" lon="-0.56758">
        <ele>16.97</ele>
        <time>2025-10-20T18:50:56.513Z</time>
      </trkpt>
      <trkpt lat="46.28336" lon="-0.56771">
        <ele>17.82</ele>
        <time>2025-10-20T18:50:58.110Z</time>
      </trkpt>
      <trkpt lat="46.28308" lon="-0.56785">
        <ele>18.61</ele>
        <time>2025-10-20T18:50:59.713Z</time>
      </trkpt>
      <trkpt lat="46.2828" lon="-0.56799">
        <ele>19.35</ele>
        <time>2025-10-20T18:51:01.322Z</time>
      </trkpt>
      <trkpt lat="46.28252" lon="-0.56814">
        <ele>20.12</ele>
        <time>2025-10-20T18:51:02.937Z</time>
      </trkpt>
      <trkpt lat="46.28223" lon="-0.56828">
        <ele>20.83</ele>
        <time>2025-10-20T18:51:04.558Z</time>
      </trkpt>
      <trkpt lat="46.28195" lon="-0.56843">
        <ele>21.45</ele>
        <time>2025-10-20T18:51:06.185Z</time>
      </trkpt>
      <trkpt lat="46.28167" lon="-0.56857">
        <ele>21.98</ele>
        <time>2025-10-20T18:51:07.818Z</time>
      </trkpt>
      <trkpt lat="46.28139" lon="-0.56871">
        <ele>22.37</ele>
        <time>2025-10-20T18:51:09.457Z</time>
      </trkpt>
      <trkpt lat="46.28113" lon="-0.56887">
        <ele>22.61</ele>
        <time>2025-10-20T18:51:11.102Z</time>
      </trkpt>
      <trkpt lat="46.28087" lon="-0.56903">
        <ele>22.74</ele>
        <time>2025-10-20T18:51:12.753Z</time>
      </trkpt>
      <trkpt lat="46.28062" lon="-0.56918">
        <ele>22.78</ele>
        <time>2025-10-20T18:51:14.409Z</time>
      </trkpt>
      <trkpt lat="46.28036" lon="-0.56934">
        <ele>22.72</ele>
        <time>2025-10-20T18:51:16.071Z</time>
      </trkpt>
      <trkpt lat="46.28013" lon="-0.56952">
        <ele>22.52</ele>
        <time>2025-10-20T18:51:17.738Z</time>
      </trkpt>
      <trkpt lat="46.2799" lon="-0.56971">
        <ele>22.21</ele>
        <time>2025-10-20T18:51:19.410Z</time>
      </trkpt>
      <trkpt lat="46.27967" lon="-0.56989">
        <ele>21.85</ele>
        <time>2025-10-20T18:51:21.087Z</time>
      </trkpt>
      <trkpt lat="46.27944" lon="-0.57008">
        <ele>21.34</ele>
        <time>2025-10-20T18:51:22.770Z</time>
      </trkpt>
      <trkpt lat="46.27921" lon="-0.57027">
        <ele>20.72</ele>
        <time>2025-10-20T18:51:24.458Z</time>
      </trkpt>
      <trkpt lat="46.27899" lon="-0.57045">
        <ele>20.04</ele>
        <time>2025-10-20T18:51:26.151Z</time>
      </trkpt>
      <trkpt lat="46.27875" lon="-0.57067">
        <ele>19.32</ele>
        <time>2025-10-20T18:51:27.850Z</time>
      </trkpt>
      <trkpt lat="46.27851" lon="-0.57088">
        <ele>18.6</ele>
        <time>2025-10-20T18:51:29.554Z</time>
      </trkpt>
      <trkpt lat="46.27828" lon="-0.5711">
        <ele>17.85</ele>
        <time>2025-10-20T18:51:31.264Z</time>
      </trkpt>
      <trkpt lat="46.27804" lon="-0.57127">
        <ele>17.11</ele>
        <time>2025-10-20T18:51:32.979Z</time>
      </trkpt>
      <trkpt lat="46.27779" lon="-0.57145">
        <ele>16.32</ele>
        <time>2025-10-20T18:51:34.700Z</time>
      </trkpt>
      <trkpt lat="46.27755" lon="-0.57163">
        <ele>15.57</ele>
        <time>2025-10-20T18:51:36.426Z</time>
      </trkpt>
      <trkpt lat="46.27731" lon="-0.5718">
        <ele>14.88</ele>
        <time>2025-10-20T18:51:38.158Z</time>
      </trkpt>
      <trkpt lat="46.27716" lon="-0.5719">
        <ele>14.23</ele>
        <time>2025-10-20T18:51:39.893Z</time>
      </trkpt>
      <trkpt lat="46.27701" lon="-0.572">
        <ele>13.59</ele>
        <time>2025-10-20T18:51:41.631Z</time>
      </trkpt>
      <trkpt lat="46.27675" lon="-0.57213">
        <ele>13</ele>
        <time>2025-10-20T18:51:43.375Z</time>
      </trkpt>
      <trkpt lat="46.27648" lon="-0.57227">
        <ele>12.48</ele>
        <time>2025-10-20T18:51:45.124Z</time>
      </trkpt>
      <trkpt lat="46.27622" lon="-0.57241">
        <ele>11.99</ele>
        <time>2025-10-20T18:51:46.879Z</time>
      </trkpt>
      <trkpt lat="46.27595" lon="-0.57254">
        <ele>11.61</ele>
        <time>2025-10-20T18:51:48.640Z</time>
      </trkpt>
      <trkpt lat="46.27569" lon="-0.57268">
        <ele>11.34</ele>
        <time>2025-10-20T18:51:50.406Z</time>
      </trkpt>
      <trkpt lat="46.27542" lon="-0.57281">
        <ele>11.06</ele>
        <time>2025-10-20T18:51:52.178Z</time>
      </trkpt>
      <trkpt lat="46.27515" lon="-0.57297">
        <ele>10.79</ele>
        <time>2025-10-20T18:51:53.956Z</time>
      </trkpt>
      <trkpt lat="46.27489" lon="-0.57312">
        <ele>10.64</ele>
        <time>2025-10-20T18:51:55.740Z</time>
      </trkpt>
      <trkpt lat="46.27462" lon="-0.57328">
        <ele>10.56</ele>
        <time>2025-10-20T18:51:57.529Z</time>
      </trkpt>
      <trkpt lat="46.27435" lon="-0.57344">
        <ele>10.58</ele>
        <time>2025-10-20T18:51:59.324Z</time>
      </trkpt>
      <trkpt lat="46.27417" lon="-0.57352">
        <ele>10.61</ele>
        <time>2025-10-20T18:52:01.123Z</time>
      </trkpt>
      <trkpt lat="46.27399" lon="-0.57361">
        <ele>10.67</ele>
        <time>2025-10-20T18:52:02.926Z</time>
      </trkpt>
      <trkpt lat="46.27373" lon="-0.57369">
        <ele>10.75</ele>
        <time>2025-10-20T18:52:04.734Z</time>
      </trkpt>
      <trkpt lat="46.27347" lon="-0.57378">
        <ele>10.88</ele>
        <time>2025-10-20T18:52:06.547Z</time>
      </trkpt>
      <trkpt lat="46.27329" lon="-0.57386">
        <ele>11.13</ele>
        <time>2025-10-20T18:52:08.364Z</time>
      </trkpt>
      <trkpt lat="46.27311" lon="-0.57395">
        <ele>11.5</ele>
        <time>2025-10-20T18:52:10.185Z</time>
      </trkpt>
      <trkpt lat="46.27284" lon="-0.57405">
        <ele>11.89</ele>
        <time>2025-10-20T18:52:12.012Z</time>
      </trkpt>
      <trkpt lat="46.27257" lon="-0.57415">
        <ele>12.3</ele>
        <time>2025-10-20T18:52:13.844Z</time>
      </trkpt>
      <trkpt lat="46.27231" lon="-0.57425">
        <ele>12.81</ele>
        <time>2025-10-20T18:52:15.682Z</time>
      </trkpt>
      <trkpt lat="46.27204" lon="-0.57434">
        <ele>13.36</ele>
        <time>2025-10-20T18:52:17.525Z</time>
      </trkpt>
      <trkpt lat="46.27178" lon="-0.57444">
        <ele>13.89</ele>
        <time>2025-10-20T18:52:19.374Z</time>
      </trkpt>
      <trkpt lat="46.27158" lon="-0.57454">
        <ele>14.42</ele>
        <time>2025-10-20T18:52:21.227Z</time>
      </trkpt>
      <trkpt lat="46.27137" lon="-0.57464">
        <ele>14.98</ele>
        <time>2025-10-20T18:52:23.084Z</time>
      </trkpt>
      <trkpt lat="46.27117" lon="-0.57474">
        <ele>15.56</ele>
        <time>2025-10-20T18:52:24.945Z</time>
      </trkpt>
      <trkpt lat="46.27091" lon="-0.57481">
        <ele>16.17</ele>
        <time>2025-10-20T18:52:26.812Z</time>
      </trkpt>
      <trkpt lat="46.27065" lon="-0.57487">
        <ele>16.73</ele>
        <time>2025-10-20T18:52:28.684Z</time>
      </trkpt>
      <trkpt lat="46.27039" lon="-0.57494">
        <ele>17.19</ele>
        <time>2025-10-20T18:52:30.561Z</time>
      </trkpt>
      <trkpt lat="46.27012" lon="-0.575">
        <ele>17.59</ele>
        <time>2025-10-20T18:52:32.444Z</time>
      </trkpt>
      <trkpt lat="46.27012" lon="-0.575">
        <ele>17.93</ele>
        <time>2025-10-20T18:52:34.327Z</time>
      </trkpt>
      <trkpt lat="46.26984" lon="-0.57509">
        <ele>18.29</ele>
        <time>2025-10-20T18:52:36.215Z</time>
      </trkpt>
      <trkpt lat="46.26963" lon="-0.57519">
        <ele>18.61</ele>
        <time>2025-10-20T18:52:38.108Z</time>
      </trkpt>
      <trkpt lat="46.26941" lon="-0.5753">
        <ele>18.86</ele>
        <time>2025-10-20T18:52:40.005Z</time>
      </trkpt>
      <trkpt lat="46.26911" lon="-0.57534">
        <ele>18.89</ele>
        <time>2025-10-20T18:52:41.909Z</time>
      </trkpt>
      <trkpt lat="46.2688" lon="-0.57539">
        <ele>18.79</ele>
        <time>2025-10-20T18:52:43.819Z</time>
      </trkpt>
      <trkpt lat="46.26849" lon="-0.57543">
        <ele>18.53</ele>
        <time>2025-10-20T18:52:45.735Z</time>
      </trkpt>
      <trkpt lat="46.2683" lon="-0.57556">
        <ele>18.25</ele>
        <time>2025-10-20T18:52:47.655Z</time>
      </trkpt>
      <trkpt lat="46.26806" lon="-0.57578">
        <ele>17.99</ele>
        <time>2025-10-20T18:52:49.581Z</time>
      </trkpt>
      <trkpt lat="46.26783" lon="-0.57601">
        <ele>17.73</ele>
        <time>2025-10-20T18:52:51.513Z</time>
      </trkpt>
      <trkpt lat="46.26763" lon="-0.57579">
        <ele>17.37</ele>
        <time>2025-10-20T18:52:53.449Z</time>
      </trkpt>
      <trkpt lat="46.26744" lon="-0.57558">
        <ele>16.94</ele>
        <time>2025-10-20T18:52:55.390Z</time>
      </trkpt>
      <trkpt lat="46.26744" lon="-0.57558">
        <ele>16.5</ele>
        <time>2025-10-20T18:52:57.331Z</time>
      </trkpt>
      <trkpt lat="46.26723" lon="-0.57535">
        <ele>15.92</ele>
        <time>2025-10-20T18:52:59.278Z</time>
      </trkpt>
      <trkpt lat="46.26703" lon="-0.57511">
        <ele>15.34</ele>
        <time>2025-10-20T18:53:01.230Z</time>
      </trkpt>
      <trkpt lat="46.26682" lon="-0.57488">
        <ele>14.79</ele>
        <time>2025-10-20T18:53:03.187Z</time>
      </trkpt>
      <trkpt lat="46.26661" lon="-0.57465">
        <ele>14.27</ele>
        <time>2025-10-20T18:53:05.149Z</time>
      </trkpt>
      <trkpt lat="46.2664" lon="-0.57442">
        <ele>13.8</ele>
        <time>2025-10-20T18:53:07.117Z</time>
      </trkpt>
      <trkpt lat="46.2662" lon="-0.57419">
        <ele>13.34</ele>
        <time>2025-10-20T18:53:09.090Z</time>
      </trkpt>
      <trkpt lat="46.266" lon="-0.57398">
        <ele>12.87</ele>
        <time>2025-10-20T18:53:11.068Z</time>
      </trkpt>
      <trkpt lat="46.26581" lon="-0.57378">
        <ele>12.44</ele>
        <time>2025-10-20T18:53:13.050Z</time>
      </trkpt>
      <trkpt lat="46.26565" lon="-0.57367">
        <ele>12.11</ele>
        <time>2025-10-20T18:53:15.036Z</time>
      </trkpt>
      <trkpt lat="46.26549" lon="-0.57356">
        <ele>11.79</ele>
        <time>2025-10-20T18:53:17.025Z</time>
      </trkpt>
      <trkpt lat="46.26525" lon="-0.5735">
        <ele>11.54</ele>
        <time>2025-10-20T18:53:19.019Z</time>
      </trkpt>
      <trkpt lat="46.265" lon="-0.57346">
        <ele>11.23</ele>
        <time>2025-10-20T18:53:21.018Z</time>
      </trkpt>
      <trkpt lat="46.26475" lon="-0.57342">
        <ele>11</ele>
        <time>2025-10-20T18:53:23.022Z</time>
      </trkpt>
      <trkpt lat="46.2645" lon="-0.57339">
        <ele>10.83</ele>
        <time>2025-10-20T18:53:25.031Z</time>
      </trkpt>
      <trkpt lat="46.26424" lon="-0.57335">
        <ele>10.67</ele>
        <time>2025-10-20T18:53:27.046Z</time>
      </trkpt>
      <trkpt lat="46.26408" lon="-0.57325">
        <ele>10.49</ele>
        <time>2025-10-20T18:53:29.064Z</time>
      </trkpt>
      <trkpt lat="46.26392" lon="-0.57316">
        <ele>10.36</ele>
        <time>2025-10-20T18:53:31.086Z</time>
      </trkpt>
      <trkpt lat="46.26369" lon="-0.57307">
        <ele>10.3</ele>
        <time>2025-10-20T18:53:33.112Z</time>
      </trkpt>
      <trkpt lat="46.26345" lon="-0.57298">
        <ele>10.3</ele>
        <time>2025-10-20T18:53:35.143Z</time>
      </trkpt>
      <trkpt lat="46.26321" lon="-0.57291">
        <ele>10.38</ele>
        <time>2025-10-20T18:53:37.179Z</time>
      </trkpt>
      <trkpt lat="46.26297" lon="-0.57285">
        <ele>10.49</ele>
        <time>2025-10-20T18:53:39.220Z</time>
      </trkpt>
      <trkpt lat="46.26273" lon="-0.57278">
        <ele>10.52</ele>
        <time>2025-10-20T18:53:41.266Z</time>
      </trkpt>
      <trkpt lat="46.26248" lon="-0.57271">
        <ele>10.51</ele>
        <time>2025-10-20T18:53:43.317Z</time>
      </trkpt>
      <trkpt lat="46.26225" lon="-0.57266">
        <ele>10.53</ele>
        <time>2025-10-20T18:53:45.373Z</time>
      </trkpt>
      <trkpt lat="46.26201" lon="-0.57262">
        <ele>10.59</ele>
        <time>2025-10-20T18:53:47.434Z</time>
      </trkpt>
      <trkpt lat="46.26178" lon="-0.57258">
        <ele>10.74</ele>
        <time>2025-10-20T18:53:49.499Z</time>
      </trkpt>
      <trkpt lat="46.26156" lon="-0.57249">
        <ele>10.9</ele>
        <time>2025-10-20T18:53:51.569Z</time>
      </trkpt>
      <trkpt lat="46.26133" lon="-0.57234">
        <ele>11.03</ele>
        <time>2025-10-20T18:53:53.644Z</time>
      </trkpt>
      <trkpt lat="46.26135" lon="-0.57226">
        <ele>11.14</ele>
        <time>2025-10-20T18:53:55.720Z</time>
      </trkpt>
      <trkpt lat="46.26117" lon="-0.57216">
        <ele>11.24</ele>
        <time>2025-10-20T18:53:57.800Z</time>
      </trkpt>
      <trkpt lat="46.261" lon="-0.57207">
        <ele>11.36</ele>
        <time>2025-10-20T18:53:59.884Z</time>
      </trkpt>
      <trkpt lat="46.26075" lon="-0.57193">
        <ele>11.53</ele>
        <time>2025-10-20T18:54:01.973Z</time>
      </trkpt>
      <trkpt lat="46.26051" lon="-0.5718">
        <ele>11.68</ele>
        <time>2025-10-20T18:54:04.067Z</time>
      </trkpt>
      <trkpt lat="46.26026" lon="-0.57167">
        <ele>11.79</ele>
        <time>2025-10-20T18:54:06.166Z</time>
      </trkpt>
      <trkpt lat="46.26002" lon="-0.57153">
        <ele>11.9</ele>
        <time>2025-10-20T18:54:08.271Z</time>
      </trkpt>
      <trkpt lat="46.25977" lon="-0.5714">
        <ele>12.04</ele>
        <time>2025-10-20T18:54:10.381Z</time>
      </trkpt>
      <trkpt lat="46.25952" lon="-0.57127">
        <ele>12.23</ele>
        <time>2025-10-20T18:54:12.496Z</time>
      </trkpt>
      <trkpt lat="46.25931" lon="-0.57118">
        <ele>12.4</ele>
        <time>2025-10-20T18:54:14.616Z</time>
      </trkpt>
      <trkpt lat="46.25909" lon="-0.5711">
        <ele>12.53</ele>
        <time>2025-10-20T18:54:16.740Z</time>
      </trkpt>
      <trkpt lat="46.25888" lon="-0.57101">
        <ele>12.69</ele>
        <time>2025-10-20T18:54:18.868Z</time>
      </trkpt>
      <trkpt lat="46.25866" lon="-0.57097">
        <ele>12.77</ele>
        <time>2025-10-20T18:54:21.001Z</time>
      </trkpt>
      <trkpt lat="46.25845" lon="-0.57092">
        <ele>12.83</ele>
        <time>2025-10-20T18:54:23.138Z</time>
      </trkpt>
      <trkpt lat="46.2583" lon="-0.57097">
        <ele>12.92</ele>
        <time>2025-10-20T18:54:25.278Z</time>
      </trkpt>
      <trkpt lat="46.25803" lon="-0.57115">
        <ele>13.06</ele>
        <time>2025-10-20T18:54:27.424Z</time>
      </trkpt>
      <trkpt lat="46.25775" lon="-0.57133">
        <ele>13.18</ele>
        <time>2025-10-20T18:54:29.576Z</time>
      </trkpt>
      <trkpt lat="46.25748" lon="-0.57151">
        <ele>13.28</ele>
        <time>2025-10-20T18:54:31.734Z</time>
      </trkpt>
      <trkpt lat="46.25721" lon="-0.5717">
        <ele>13.44</ele>
        <time>2025-10-20T18:54:33.898Z</time>
      </trkpt>
      <trkpt lat="46.257" lon="-0.57195">
        <ele>13.61</ele>
        <time>2025-10-20T18:54:36.068Z</time>
      </trkpt>
      <trkpt lat="46.25679" lon="-0.5722">
        <ele>13.72</ele>
        <time>2025-10-20T18:54:38.243Z</time>
      </trkpt>
      <trkpt lat="46.25658" lon="-0.57245">
        <ele>13.82</ele>
        <time>2025-10-20T18:54:40.424Z</time>
      </trkpt>
      <trkpt lat="46.25638" lon="-0.57265">
        <ele>13.85</ele>
        <time>2025-10-20T18:54:42.610Z</time>
      </trkpt>
      <trkpt lat="46.25618" lon="-0.57286">
        <ele>13.87</ele>
        <time>2025-10-20T18:54:44.801Z</time>
      </trkpt>
      <trkpt lat="46.25599" lon="-0.573">
        <ele>13.92</ele>
        <time>2025-10-20T18:54:46.996Z</time>
      </trkpt>
      <trkpt lat="46.2558" lon="-0.57314">
        <ele>13.96</ele>
        <time>2025-10-20T18:54:49.195Z</time>
      </trkpt>
      <trkpt lat="46.25562" lon="-0.57329">
        <ele>13.95</ele>
        <time>2025-10-20T18:54:51.398Z</time>
      </trkpt>
      <trkpt lat="46.25542" lon="-0.57349">
        <ele>13.92</ele>
        <time>2025-10-20T18:54:53.606Z</time>
      </trkpt>
      <trkpt lat="46.25522" lon="-0.57369">
        <ele>13.87</ele>
        <time>2025-10-20T18:54:55.819Z</time>
      </trkpt>
      <trkpt lat="46.25502" lon="-0.5739">
        <ele>13.85</ele>
        <time>2025-10-20T18:54:58.037Z</time>
      </trkpt>
      <trkpt lat="46.25482" lon="-0.5741">
        <ele>13.85</ele>
        <time>2025-10-20T18:55:00.260Z</time>
      </trkpt>
      <trkpt lat="46.25465" lon="-0.57419">
        <ele>13.86</ele>
        <time>2025-10-20T18:55:02.486Z</time>
      </trkpt>
      <trkpt lat="46.25437" lon="-0.57427">
        <ele>13.82</ele>
        <time>2025-10-20T18:55:04.718Z</time>
      </trkpt>
      <trkpt lat="46.25422" lon="-0.57423">
        <ele>13.78</ele>
        <time>2025-10-20T18:55:06.953Z</time>
      </trkpt>
      <trkpt lat="46.25416" lon="-0.57412">
        <ele>13.71</ele>
        <time>2025-10-20T18:55:09.190Z</time>
      </trkpt>
      <trkpt lat="46.25405" lon="-0.5738">
        <ele>13.65</ele>
        <time>2025-10-20T18:55:11.432Z</time>
      </trkpt>
      <trkpt lat="46.25401" lon="-0.57376">
        <ele>13.6</ele>
        <time>2025-10-20T18:55:13.675Z</time>
      </trkpt>
      <trkpt lat="46.2538" lon="-0.57385">
        <ele>13.61</ele>
        <time>2025-10-20T18:55:15.922Z</time>
      </trkpt>
      <trkpt lat="46.25359" lon="-0.57394">
        <ele>13.66</ele>
        <time>2025-10-20T18:55:18.174Z</time>
      </trkpt>
      <trkpt lat="46.25339" lon="-0.57404">
        <ele>13.66</ele>
        <time>2025-10-20T18:55:20.430Z</time>
      </trkpt>
      <trkpt lat="46.25318" lon="-0.57407">
        <ele>13.65</ele>
        <time>2025-10-20T18:55:22.690Z</time>
      </trkpt>
      <trkpt lat="46.25298" lon="-0.5741">
        <ele>13.58</ele>
        <time>2025-10-20T18:55:24.954Z</time>
      </trkpt>
      <trkpt lat="46.25276" lon="-0.57408">
        <ele>13.55</ele>
        <time>2025-10-20T18:55:27.223Z</time>
      </trkpt>
      <trkpt lat="46.2526" lon="-0.57398">
        <ele>13.5</ele>
        <time>2025-10-20T18:55:29.495Z</time>
      </trkpt>
      <trkpt lat="46.25244" lon="-0.57389">
        <ele>13.42</ele>
        <time>2025-10-20T18:55:31.771Z</time>
      </trkpt>
      <trkpt lat="46.25218" lon="-0.57389">
        <ele>13.4</ele>
        <time>2025-10-20T18:55:34.052Z</time>
      </trkpt>
      <trkpt lat="46.25193" lon="-0.57389">
        <ele>13.39</ele>
        <time>2025-10-20T18:55:36.338Z</time>
      </trkpt>
      <trkpt lat="46.25172" lon="-0.57379">
        <ele>13.41</ele>
        <time>2025-10-20T18:55:38.628Z</time>
      </trkpt>
      <trkpt lat="46.25152" lon="-0.57369">
        <ele>13.4</ele>
        <time>2025-10-20T18:55:40.922Z</time>
      </trkpt>
      <trkpt lat="46.25154" lon="-0.57391">
        <ele>13.43</ele>
        <time>2025-10-20T18:55:43.219Z</time>
      </trkpt>
      <trkpt lat="46.25154" lon="-0.57392">
        <ele>13.49</ele>
        <time>2025-10-20T18:55:45.517Z</time>
      </trkpt>
      <trkpt lat="46.25154" lon="-0.57392">
        <ele>13.57</ele>
        <time>2025-10-20T18:55:47.815Z</time>
      </trkpt>
      <trkpt lat="46.25161" lon="-0.57436">
        <ele>13.64</ele>
        <time>2025-10-20T18:55:50.119Z</time>
      </trkpt>
      <trkpt lat="46.25168" lon="-0.57481">
        <ele>13.77</ele>
        <time>2025-10-20T18:55:52.429Z</time>
      </trkpt>
      <trkpt lat="46.25174" lon="-0.57525">
        <ele>13.99</ele>
        <time>2025-10-20T18:55:54.746Z</time>
      </trkpt>
      <trkpt lat="46.25181" lon="-0.57569">
        <ele>14.25</ele>
        <time>2025-10-20T18:55:57.069Z</time>
      </trkpt>
      <trkpt lat="46.25188" lon="-0.57613">
        <ele>14.48</ele>
        <time>2025-10-20T18:55:59.398Z</time>
      </trkpt>
      <trkpt lat="46.25194" lon="-0.57657">
        <ele>14.71</ele>
        <time>2025-10-20T18:56:01.733Z</time>
      </trkpt>
      <trkpt lat="46.25201" lon="-0.57701">
        <ele>15.02</ele>
        <time>2025-10-20T18:56:04.075Z</time>
      </trkpt>
      <trkpt lat="46.25208" lon="-0.57745">
        <ele>15.37</ele>
        <time>2025-10-20T18:56:06.423Z</time>
      </trkpt>
      <trkpt lat="46.25177" lon="-0.57754">
        <ele>15.7</ele>
        <time>2025-10-20T18:56:08.777Z</time>
      </trkpt>
      <trkpt lat="46.25147" lon="-0.57763">
        <ele>16.08</ele>
        <time>2025-10-20T18:56:11.137Z</time>
      </trkpt>
      <trkpt lat="46.25117" lon="-0.57772">
        <ele>16.6</ele>
        <time>2025-10-20T18:56:13.503Z</time>
      </trkpt>
      <trkpt lat="46.25086" lon="-0.5778">
        <ele>17.17</ele>
        <time>2025-10-20T18:56:15.876Z</time>
      </trkpt>
      <trkpt lat="46.25056" lon="-0.57789">
        <ele>17.69</ele>
        <time>2025-10-20T18:56:18.255Z</time>
      </trkpt>
      <trkpt lat="46.25026" lon="-0.57798">
        <ele>18.14</ele>
        <time>2025-10-20T18:56:20.640Z</time>
      </trkpt>
      <trkpt lat="46.24996" lon="-0.57807">
        <ele>18.6</ele>
        <time>2025-10-20T18:56:23.031Z</time>
      </trkpt>
      <trkpt lat="46.24966" lon="-0.57816">
        <ele>19.09</ele>
        <time>2025-10-20T18:56:25.428Z</time>
      </trkpt>
      <trkpt lat="46.24935" lon="-0.57825">
        <ele>19.58</ele>
        <time>2025-10-20T18:56:27.831Z</time>
      </trkpt>
      <trkpt lat="46.24905" lon="-0.57834">
        <ele>20.08</ele>
        <time>2025-10-20T18:56:30.241Z</time>
      </trkpt>
      <trkpt lat="46.24875" lon="-0.57843">
        <ele>20.55</ele>
        <time>2025-10-20T18:56:32.657Z</time>
      </trkpt>
      <trkpt lat="46.24845" lon="-0.57852">
        <ele>21.05</ele>
        <time>2025-10-20T18:56:35.079Z</time>
      </trkpt>
      <trkpt lat="46.24814" lon="-0.57861">
        <ele>21.58</ele>
        <time>2025-10-20T18:56:37.507Z</time>
      </trkpt>
      <trkpt lat="46.24784" lon="-0.57869">
        <ele>22.03</ele>
        <time>2025-10-20T18:56:39.941Z</time>
      </trkpt>
      <trkpt lat="46.24754" lon="-0.57878">
        <ele>22.46</ele>
        <time>2025-10-20T18:56:42.381Z</time>
      </trkpt>
      <trkpt lat="46.24724" lon="-0.57887">
        <ele>22.92</ele>
        <time>2025-10-20T18:56:44.828Z</time>
      </trkpt>
      <trkpt lat="46.24694" lon="-0.57896">
        <ele>23.35</ele>
        <time>2025-10-20T18:56:47.281Z</time>
      </trkpt>
      <trkpt lat="46.24663" lon="-0.57905">
        <ele>23.68</ele>
        <time>2025-10-20T18:56:49.740Z</time>
      </trkpt>
      <trkpt lat="46.24633" lon="-0.57914">
        <ele>23.98</ele>
        <time>2025-10-20T18:56:52.205Z</time>
      </trkpt>
      <trkpt lat="46.24603" lon="-0.57923">
        <ele>24.25</ele>
        <time>2025-10-20T18:56:54.676Z</time>
      </trkpt>
      <trkpt lat="46.24607" lon="-0.57963">
        <ele>24.46</ele>
        <time>2025-10-20T18:56:57.153Z</time>
      </trkpt>
      <trkpt lat="46.2461" lon="-0.57993">
        <ele>24.68</ele>
        <time>2025-10-20T18:56:59.634Z</time>
      </trkpt>
      <trkpt lat="46.24613" lon="-0.58024">
        <ele>24.91</ele>
        <time>2025-10-20T18:57:02.120Z</time>
      </trkpt>
      <trkpt lat="46.24619" lon="-0.58065">
        <ele>25.11</ele>
        <time>2025-10-20T18:57:04.611Z</time>
      </trkpt>
      <trkpt lat="46.24625" lon="-0.58105">
        <ele>25.28</ele>
        <time>2025-10-20T18:57:07.108Z</time>
      </trkpt>
      <trkpt lat="46.24631" lon="-0.58146">
        <ele>25.44</ele>
        <time>2025-10-20T18:57:09.611Z</time>
      </trkpt>
      <trkpt lat="46.24631" lon="-0.58187">
        <ele>25.66</ele>
        <time>2025-10-20T18:57:12.120Z</time>
      </trkpt>
      <trkpt lat="46.24632" lon="-0.58228">
        <ele>25.85</ele>
        <time>2025-10-20T18:57:14.634Z</time>
      </trkpt>
      <trkpt lat="46.24633" lon="-0.58268">
        <ele>25.92</ele>
        <time>2025-10-20T18:57:17.154Z</time>
      </trkpt>
      <trkpt lat="46.24631" lon="-0.58281">
        <ele>25.97</ele>
        <time>2025-10-20T18:57:19.676Z</time>
      </trkpt>
      <trkpt lat="46.24639" lon="-0.58298">
        <ele>25.98</ele>
        <time>2025-10-20T18:57:22.201Z</time>
      </trkpt>
      <trkpt lat="46.24613" lon="-0.58316">
        <ele>26</ele>
        <time>2025-10-20T18:57:24.731Z</time>
      </trkpt>
      <trkpt lat="46.24588" lon="-0.58337">
        <ele>25.97</ele>
        <time>2025-10-20T18:57:27.267Z</time>
      </trkpt>
      <trkpt lat="46.24568" lon="-0.58362">
        <ele>25.83</ele>
        <time>2025-10-20T18:57:29.808Z</time>
      </trkpt>
      <trkpt lat="46.24549" lon="-0.58387">
        <ele>25.6</ele>
        <time>2025-10-20T18:57:32.355Z</time>
      </trkpt>
      <trkpt lat="46.2453" lon="-0.58412">
        <ele>25.48</ele>
        <time>2025-10-20T18:57:34.907Z</time>
      </trkpt>
      <trkpt lat="46.2451" lon="-0.58427">
        <ele>25.36</ele>
        <time>2025-10-20T18:57:37.463Z</time>
      </trkpt>
      <trkpt lat="46.24491" lon="-0.58442">
        <ele>25.25</ele>
        <time>2025-10-20T18:57:40.024Z</time>
      </trkpt>
      <trkpt lat="46.24467" lon="-0.58449">
        <ele>25.09</ele>
        <time>2025-10-20T18:57:42.589Z</time>
      </trkpt>
      <trkpt lat="46.24437" lon="-0.58451">
        <ele>24.96</ele>
        <time>2025-10-20T18:57:45.160Z</time>
      </trkpt>
      <trkpt lat="46.24407" lon="-0.58442">
        <ele>24.78</ele>
        <time>2025-10-20T18:57:47.738Z</time>
      </trkpt>
      <trkpt lat="46.24392" lon="-0.58431">
        <ele>24.55</ele>
        <time>2025-10-20T18:57:50.319Z</time>
      </trkpt>
      <trkpt lat="46.24392" lon="-0.58431">
        <ele>24.31</ele>
        <time>2025-10-20T18:57:52.900Z</time>
      </trkpt>
      <trkpt lat="46.24376" lon="-0.58421">
        <ele>23.99</ele>
        <time>2025-10-20T18:57:55.484Z</time>
      </trkpt>
      <trkpt lat="46.2436" lon="-0.5841">
        <ele>23.67</ele>
        <time>2025-10-20T18:57:58.072Z</time>
      </trkpt>
      <trkpt lat="46.24333" lon="-0.58389">
        <ele>23.42</ele>
        <time>2025-10-20T18:58:00.666Z</time>
      </trkpt>
      <trkpt lat="46.24306" lon="-0.58368">
        <ele>23.23</ele>
        <time>2025-10-20T18:58:03.266Z</time>
      </trkpt>
      <trkpt lat="46.24279" lon="-0.58348">
        <ele>22.85</ele>
        <time>2025-10-20T18:58:05.872Z</time>
      </trkpt>
      <trkpt lat="46.24279" lon="-0.58348">
        <ele>22.55</ele>
        <time>2025-10-20T18:58:08.478Z</time>
      </trkpt>
      <trkpt lat="46.24259" lon="-0.58337">
        <ele>22.18</ele>
        <time>2025-10-20T18:58:11.089Z</time>
      </trkpt>
      <trkpt lat="46.2424" lon="-0.58326">
        <ele>21.81</ele>
        <time>2025-10-20T18:58:13.704Z</time>
      </trkpt>
      <trkpt lat="46.24221" lon="-0.58322">
        <ele>21.47</ele>
        <time>2025-10-20T18:58:16.323Z</time>
      </trkpt>
      <trkpt lat="46.24201" lon="-0.58318">
        <ele>21.17</ele>
        <time>2025-10-20T18:58:18.946Z</time>
      </trkpt>
      <trkpt lat="46.24176" lon="-0.58316">
        <ele>20.9</ele>
        <time>2025-10-20T18:58:21.574Z</time>
      </trkpt>
      <trkpt lat="46.2415" lon="-0.58314">
        <ele>20.61</ele>
        <time>2025-10-20T18:58:24.207Z</time>
      </trkpt>
      <trkpt lat="46.24124" lon="-0.58313">
        <ele>20.32</ele>
        <time>2025-10-20T18:58:26.845Z</time>
      </trkpt>
      <trkpt lat="46.24098" lon="-0.58311">
        <ele>20</ele>
        <time>2025-10-20T18:58:29.488Z</time>
      </trkpt>
      <trkpt lat="46.24077" lon="-0.58314">
        <ele>19.7</ele>
        <time>2025-10-20T18:58:32.135Z</time>
      </trkpt>
      <trkpt lat="46.24055" lon="-0.58318">
        <ele>19.49</ele>
        <time>2025-10-20T18:58:34.787Z</time>
      </trkpt>
      <trkpt lat="46.24026" lon="-0.58322">
        <ele>19.3</ele>
        <time>2025-10-20T18:58:37.445Z</time>
      </trkpt>
      <trkpt lat="46.23998" lon="-0.58326">
        <ele>19.11</ele>
        <time>2025-10-20T18:58:40.108Z</time>
      </trkpt>
      <trkpt lat="46.23997" lon="-0.58326">
        <ele>18.93</ele>
        <time>2025-10-20T18:58:42.771Z</time>
      </trkpt>
      <trkpt lat="46.2397" lon="-0.58331">
        <ele>18.72</ele>
        <time>2025-10-20T18:58:45.440Z</time>
      </trkpt>
      <trkpt lat="46.23942" lon="-0.58335">
        <ele>18.56</ele>
        <time>2025-10-20T18:58:48.115Z</time>
      </trkpt>
      <trkpt lat="46.23914" lon="-0.58339">
        <ele>18.43</ele>
        <time>2025-10-20T18:58:50.795Z</time>
      </trkpt>
      <trkpt lat="46.23905" lon="-0.58331">
        <ele>18.33</ele>
        <time>2025-10-20T18:58:53.477Z</time>
      </trkpt>
      <trkpt lat="46.23884" lon="-0.58341">
        <ele>18.23</ele>
        <time>2025-10-20T18:58:56.164Z</time>
      </trkpt>
      <trkpt lat="46.23856" lon="-0.58344">
        <ele>18.15</ele>
        <time>2025-10-20T18:58:58.857Z</time>
      </trkpt>
      <trkpt lat="46.23828" lon="-0.58347">
        <ele>18.1</ele>
        <time>2025-10-20T18:59:01.555Z</time>
      </trkpt>
      <trkpt lat="46.238" lon="-0.5835">
        <ele>18.04</ele>
        <time>2025-10-20T18:59:04.259Z</time>
      </trkpt>
      <trkpt lat="46.23772" lon="-0.58352">
        <ele>17.99</ele>
        <time>2025-10-20T18:59:06.968Z</time>
      </trkpt>
      <trkpt lat="46.23744" lon="-0.58355">
        <ele>17.99</ele>
        <time>2025-10-20T18:59:09.683Z</time>
      </trkpt>
      <trkpt lat="46.23717" lon="-0.58358">
        <ele>18.02</ele>
        <time>2025-10-20T18:59:12.403Z</time>
      </trkpt>
      <trkpt lat="46.23689" lon="-0.58361">
        <ele>18.07</ele>
        <time>2025-10-20T18:59:15.129Z</time>
      </trkpt>
      <trkpt lat="46.2368" lon="-0.58361">
        <ele>18.12</ele>
        <time>2025-10-20T18:59:17.857Z</time>
      </trkpt>
      <trkpt lat="46.23654" lon="-0.58363">
        <ele>18.16</ele>
        <time>2025-10-20T18:59:20.590Z</time>
      </trkpt>
      <trkpt lat="46.23628" lon="-0.58366">
        <ele>18.28</ele>
        <time>2025-10-20T18:59:23.328Z</time>
      </trkpt>
      <trkpt lat="46.23601" lon="-0.58368">
        <ele>18.55</ele>
        <time>2025-10-20T18:59:26.072Z</time>
      </trkpt>
      <trkpt lat="46.23575" lon="-0.58371">
        <ele>18.76</ele>
        <time>2025-10-20T18:59:28.821Z</time>
      </trkpt>
      <trkpt lat="46.23549" lon="-0.58374">
        <ele>18.85</ele>
        <time>2025-10-20T18:59:31.575Z</time>
      </trkpt>
      <trkpt lat="46.23536" lon="-0.58376">
        <ele>18.93</ele>
        <time>2025-10-20T18:59:34.332Z</time>
      </trkpt>
      <trkpt lat="46.2353" lon="-0.58376">
        <ele>18.99</ele>
        <time>2025-10-20T18:59:37.090Z</time>
      </trkpt>
      <trkpt lat="46.2353" lon="-0.5835">
        <ele>19.02</ele>
        <time>2025-10-20T18:59:39.852Z</time>
      </trkpt>
      <trkpt lat="46.2353" lon="-0.58324">
        <ele>18.96</ele>
        <time>2025-10-20T18:59:42.617Z</time>
      </trkpt>
      <trkpt lat="46.23525" lon="-0.5832">
        <ele>18.95</ele>
        <time>2025-10-20T18:59:45.383Z</time>
      </trkpt>
      <trkpt lat="46.23523" lon="-0.5829">
        <ele>18.86</ele>
        <time>2025-10-20T18:59:48.153Z</time>
      </trkpt>
      <trkpt lat="46.23518" lon="-0.58247">
        <ele>18.76</ele>
        <time>2025-10-20T18:59:50.929Z</time>
      </trkpt>
      <trkpt lat="46.23513" lon="-0.58204">
        <ele>18.68</ele>
        <time>2025-10-20T18:59:53.711Z</time>
      </trkpt>
      <trkpt lat="46.23508" lon="-0.58161">
        <ele>18.74</ele>
        <time>2025-10-20T18:59:56.499Z</time>
      </trkpt>
      <trkpt lat="46.23507" lon="-0.58129">
        <ele>18.76</ele>
        <time>2025-10-20T18:59:59.292Z</time>
      </trkpt>
      <trkpt lat="46.23505" lon="-0.58097">
        <ele>18.66</ele>
        <time>2025-10-20T19:00:02.089Z</time>
      </trkpt>
      <trkpt lat="46.23504" lon="-0.58065">
        <ele>18.45</ele>
        <time>2025-10-20T19:00:04.891Z</time>
      </trkpt>
      <trkpt lat="46.23502" lon="-0.58056">
        <ele>18.32</ele>
        <time>2025-10-20T19:00:07.694Z</time>
      </trkpt>
      <trkpt lat="46.23498" lon="-0.58056">
        <ele>18.19</ele>
        <time>2025-10-20T19:00:10.498Z</time>
      </trkpt>
      <trkpt lat="46.23489" lon="-0.58056">
        <ele>18.05</ele>
        <time>2025-10-20T19:00:13.304Z</time>
      </trkpt>
      <trkpt lat="46.23474" lon="-0.58047">
        <ele>17.82</ele>
        <time>2025-10-20T19:00:16.113Z</time>
      </trkpt>
      <trkpt lat="46.23464" lon="-0.58023">
        <ele>17.66</ele>
        <time>2025-10-20T19:00:18.926Z</time>
      </trkpt>
      <trkpt lat="46.23456" lon="-0.58003">
        <ele>17.44</ele>
        <time>2025-10-20T19:00:21.742Z</time>
      </trkpt>
      <trkpt lat="46.23448" lon="-0.57983">
        <ele>17.27</ele>
        <time>2025-10-20T19:00:24.561Z</time>
      </trkpt>
      <trkpt lat="46.2344" lon="-0.57946">
        <ele>17.15</ele>
        <time>2025-10-20T19:00:27.386Z</time>
      </trkpt>
      <trkpt lat="46.23429" lon="-0.57934">
        <ele>16.99</ele>
        <time>2025-10-20T19:00:30.213Z</time>
      </trkpt>
      <trkpt lat="46.23401" lon="-0.57919">
        <ele>16.81</ele>
        <time>2025-10-20T19:00:33.046Z</time>
      </trkpt>
      <trkpt lat="46.2339" lon="-0.57893">
        <ele>16.57</ele>
        <time>2025-10-20T19:00:35.884Z</time>
      </trkpt>
      <trkpt lat="46.23374" lon="-0.5791">
        <ele>16.43</ele>
        <time>2025-10-20T19:00:38.726Z</time>
      </trkpt>
      <trkpt lat="46.23358" lon="-0.57927">
        <ele>16.28</ele>
        <time>2025-10-20T19:00:41.572Z</time>
      </trkpt>
      <trkpt lat="46.23332" lon="-0.5794">
        <ele>16.11</ele>
        <time>2025-10-20T19:00:44.423Z</time>
      </trkpt>
      <trkpt lat="46.23325" lon="-0.57909">
        <ele>16.03</ele>
        <time>2025-10-20T19:00:47.279Z</time>
      </trkpt>
      <trkpt lat="46.23318" lon="-0.57878">
        <ele>16</ele>
        <time>2025-10-20T19:00:50.139Z</time>
      </trkpt>
      <trkpt lat="46.23311" lon="-0.57848">
        <ele>15.92</ele>
        <time>2025-10-20T19:00:53.004Z</time>
      </trkpt>
      <trkpt lat="46.23303" lon="-0.57808">
        <ele>15.9</ele>
        <time>2025-10-20T19:00:55.874Z</time>
      </trkpt>
      <trkpt lat="46.23295" lon="-0.57769">
        <ele>15.89</ele>
        <time>2025-10-20T19:00:58.750Z</time>
      </trkpt>
      <trkpt lat="46.23287" lon="-0.57729">
        <ele>15.96</ele>
        <time>2025-10-20T19:01:01.632Z</time>
      </trkpt>
      <trkpt lat="46.23279" lon="-0.5769">
        <ele>16.03</ele>
        <time>2025-10-20T19:01:04.519Z</time>
      </trkpt>
      <trkpt lat="46.23271" lon="-0.57651">
        <ele>16.09</ele>
        <time>2025-10-20T19:01:07.412Z</time>
      </trkpt>
      <trkpt lat="46.23264" lon="-0.57612">
        <ele>16.2</ele>
        <time>2025-10-20T19:01:10.311Z</time>
      </trkpt>
      <trkpt lat="46.23261" lon="-0.57571">
        <ele>16.27</ele>
        <time>2025-10-20T19:01:13.215Z</time>
      </trkpt>
      <trkpt lat="46.23258" lon="-0.5753">
        <ele>16.34</ele>
        <time>2025-10-20T19:01:16.125Z</time>
      </trkpt>
      <trkpt lat="46.23255" lon="-0.57489">
        <ele>16.5</ele>
        <time>2025-10-20T19:01:19.041Z</time>
      </trkpt>
      <trkpt lat="46.23234" lon="-0.57498">
        <ele>16.63</ele>
        <time>2025-10-20T19:01:21.961Z</time>
      </trkpt>
      <trkpt lat="46.23227" lon="-0.57511">
        <ele>16.8</ele>
        <time>2025-10-20T19:01:24.883Z</time>
      </trkpt>
      <trkpt lat="46.23229" lon="-0.5755">
        <ele>17.02</ele>
        <time>2025-10-20T19:01:27.811Z</time>
      </trkpt>
      <trkpt lat="46.23223" lon="-0.57556">
        <ele>17.22</ele>
        <time>2025-10-20T19:01:30.740Z</time>
      </trkpt>
      <trkpt lat="46.23197" lon="-0.57568">
        <ele>17.49</ele>
        <time>2025-10-20T19:01:33.675Z</time>
      </trkpt>
      <trkpt lat="46.23181" lon="-0.57575">
        <ele>17.69</ele>
        <time>2025-10-20T19:01:36.613Z</time>
      </trkpt>
      <trkpt lat="46.23165" lon="-0.57582">
        <ele>17.85</ele>
        <time>2025-10-20T19:01:39.554Z</time>
      </trkpt>
      <trkpt lat="46.23146" lon="-0.576">
        <ele>17.99</ele>
        <time>2025-10-20T19:01:42.500Z</time>
      </trkpt>
      <trkpt lat="46.23128" lon="-0.57619">
        <ele>18.13</ele>
        <time>2025-10-20T19:01:45.451Z</time>
      </trkpt>
      <trkpt lat="46.23109" lon="-0.57638">
        <ele>18.3</ele>
        <time>2025-10-20T19:01:48.406Z</time>
      </trkpt>
      <trkpt lat="46.23098" lon="-0.5765">
        <ele>18.48</ele>
        <time>2025-10-20T19:01:51.364Z</time>
      </trkpt>
      <trkpt lat="46.23081" lon="-0.57661">
        <ele>18.68</ele>
        <time>2025-10-20T19:01:54.326Z</time>
      </trkpt>
      <trkpt lat="46.23064" lon="-0.57672">
        <ele>18.87</ele>
        <time>2025-10-20T19:01:57.291Z</time>
      </trkpt>
      <trkpt lat="46.23053" lon="-0.5767">
        <ele>19.04</ele>
        <time>2025-10-20T19:02:00.258Z</time>
      </trkpt>
      <trkpt lat="46.2304" lon="-0.57648">
        <ele>19.17</ele>
        <time>2025-10-20T19:02:03.229Z</time>
      </trkpt>
      <trkpt lat="46.23021" lon="-0.57653">
        <ele>19.26</ele>
        <time>2025-10-20T19:02:06.204Z</time>
      </trkpt>
      <trkpt lat="46.23008" lon="-0.57661">
        <ele>19.41</ele>
        <time>2025-10-20T19:02:09.182Z</time>
      </trkpt>
      <trkpt lat="46.22992" lon="-0.57647">
        <ele>19.51</ele>
        <time>2025-10-20T19:02:12.164Z</time>
      </trkpt>
      <trkpt lat="46.22978" lon="-0.57635">
        <ele>19.62</ele>
        <time>2025-10-20T19:02:15.149Z</time>
      </trkpt>
      <trkpt lat="46.2297" lon="-0.57618">
        <ele>19.71</ele>
        <time>2025-10-20T19:02:18.137Z</time>
      </trkpt>
      <trkpt lat="46.22961" lon="-0.57605">
        <ele>19.82</ele>
        <time>2025-10-20T19:02:21.128Z</time>
      </trkpt>
      <trkpt lat="46.22953" lon="-0.57599">
        <ele>19.93</ele>
        <time>2025-10-20T19:02:24.121Z</time>
      </trkpt>
      <trkpt lat="46.22946" lon="-0.57601">
        <ele>20.03</ele>
        <time>2025-10-20T19:02:27.115Z</time>
      </trkpt>
      <trkpt lat="46.22944" lon="-0.57603">
        <ele>20.12</ele>
        <time>2025-10-20T19:02:30.109Z</time>
      </trkpt>
      <trkpt lat="46.22944" lon="-0.57614">
        <ele>20.2</ele>
        <time>2025-10-20T19:02:33.105Z</time>
      </trkpt>
      <trkpt lat="46.22943" lon="-0.57634">
        <ele>20.28</ele>
        <time>2025-10-20T19:02:36.104Z</time>
      </trkpt>
      <trkpt lat="46.22942" lon="-0.57663">
        <ele>20.36</ele>
        <time>2025-10-20T19:02:39.107Z</time>
      </trkpt>
      <trkpt lat="46.22928" lon="-0.5765">
        <ele>20.45</ele>
        <time>2025-10-20T19:02:42.113Z</time>
      </trkpt>
      <trkpt lat="46.22914" lon="-0.57638">
        <ele>20.48</ele>
        <time>2025-10-20T19:02:45.122Z</time>
      </trkpt>
      <trkpt lat="46.22905" lon="-0.57601">
        <ele>20.54</ele>
        <time>2025-10-20T19:02:48.137Z</time>
      </trkpt>
      <trkpt lat="46.22898" lon="-0.57577">
        <ele>20.56</ele>
        <time>2025-10-20T19:02:51.155Z</time>
      </trkpt>
      <trkpt lat="46.22892" lon="-0.57554">
        <ele>20.6</ele>
        <time>2025-10-20T19:02:54.177Z</time>
      </trkpt>
      <trkpt lat="46.22888" lon="-0.57547">
        <ele>20.63</ele>
        <time>2025-10-20T19:02:57.200Z</time>
      </trkpt>
      <trkpt lat="46.22867" lon="-0.57547">
        <ele>20.61</ele>
        <time>2025-10-20T19:03:00.227Z</time>
      </trkpt>
      <trkpt lat="46.22858" lon="-0.57537">
        <ele>20.62</ele>
        <time>2025-10-20T19:03:03.257Z</time>
      </trkpt>
      <trkpt lat="46.22858" lon="-0.57511">
        <ele>20.63</ele>
        <time>2025-10-20T19:03:06.290Z</time>
      </trkpt>
      <trkpt lat="46.22866" lon="-0.57481">
        <ele>20.69</ele>
        <time>2025-10-20T19:03:09.328Z</time>
      </trkpt>
      <trkpt lat="46.22873" lon="-0.57451">
        <ele>20.8</ele>
        <time>2025-10-20T19:03:12.370Z</time>
      </trkpt>
      <trkpt lat="46.22873" lon="-0.57434">
        <ele>20.84</ele>
        <time>2025-10-20T19:03:15.414Z</time>
      </trkpt>
      <trkpt lat="46.22868" lon="-0.574">
        <ele>20.82</ele>
        <time>2025-10-20T19:03:18.463Z</time>
      </trkpt>
      <trkpt lat="46.22868" lon="-0.574">
        <ele>20.74</ele>
        <time>2025-10-20T19:03:21.512Z</time>
      </trkpt>
      <trkpt lat="46.22862" lon="-0.57358">
        <ele>20.55</ele>
        <time>2025-10-20T19:03:24.567Z</time>
      </trkpt>
      <trkpt lat="46.22856" lon="-0.57316">
        <ele>20.29</ele>
        <time>2025-10-20T19:03:27.628Z</time>
      </trkpt>
      <trkpt lat="46.22852" lon="-0.57275">
        <ele>20.13</ele>
        <time>2025-10-20T19:03:30.695Z</time>
      </trkpt>
      <trkpt lat="46.22847" lon="-0.57234">
        <ele>19.91</ele>
        <time>2025-10-20T19:03:33.768Z</time>
      </trkpt>
      <trkpt lat="46.22845" lon="-0.57198">
        <ele>19.78</ele>
        <time>2025-10-20T19:03:36.846Z</time>
      </trkpt>
      <trkpt lat="46.22843" lon="-0.57161">
        <ele>19.65</ele>
        <time>2025-10-20T19:03:39.929Z</time>
      </trkpt>
      <trkpt lat="46.22841" lon="-0.57125">
        <ele>19.57</ele>
        <time>2025-10-20T19:03:43.017Z</time>
      </trkpt>
      <trkpt lat="46.22836" lon="-0.57086">
        <ele>19.5</ele>
        <time>2025-10-20T19:03:46.110Z</time>
      </trkpt>
      <trkpt lat="46.22831" lon="-0.57047">
        <ele>19.47</ele>
        <time>2025-10-20T19:03:49.209Z</time>
      </trkpt>
      <trkpt lat="46.22826" lon="-0.57009">
        <ele>19.39</ele>
        <time>2025-10-20T19:03:52.313Z</time>
      </trkpt>
      <trkpt lat="46.22817" lon="-0.56969">
        <ele>19.3</ele>
        <time>2025-10-20T19:03:55.423Z</time>
      </trkpt>
      <trkpt lat="46.22809" lon="-0.56929">
        <ele>19.21</ele>
        <time>2025-10-20T19:03:58.539Z</time>
      </trkpt>
      <trkpt lat="46.228" lon="-0.56903">
        <ele>19.13</ele>
        <time>2025-10-20T19:04:01.659Z</time>
      </trkpt>
      <trkpt lat="46.22792" lon="-0.56876">
        <ele>19.14</ele>
        <time>2025-10-20T19:04:04.783Z</time>
      </trkpt>
      <trkpt lat="46.22789" lon="-0.56845">
        <ele>19.2</ele>
        <time>2025-10-20T19:04:07.911Z</time>
      </trkpt>
      <trkpt lat="46.22786" lon="-0.56814">
        <ele>19.25</ele>
        <time>2025-10-20T19:04:11.044Z</time>
      </trkpt>
      <trkpt lat="46.22783" lon="-0.56783">
        <ele>19.33</ele>
        <time>2025-10-20T19:04:14.181Z</time>
      </trkpt>
      <trkpt lat="46.22783" lon="-0.56771">
        <ele>19.4</ele>
        <time>2025-10-20T19:04:17.320Z</time>
      </trkpt>
      <trkpt lat="46.22792" lon="-0.56762">
        <ele>19.47</ele>
        <time>2025-10-20T19:04:20.461Z</time>
      </trkpt>
      <trkpt lat="46.22775" lon="-0.56763">
        <ele>19.54</ele>
        <time>2025-10-20T19:04:23.605Z</time>
      </trkpt>
      <trkpt lat="46.22759" lon="-0.56765">
        <ele>19.61</ele>
        <time>2025-10-20T19:04:26.752Z</time>
      </trkpt>
      <trkpt lat="46.22734" lon="-0.56766">
        <ele>19.72</ele>
        <time>2025-10-20T19:04:29.904Z</time>
      </trkpt>
      <trkpt lat="46.22708" lon="-0.56768">
        <ele>19.86</ele>
        <time>2025-10-20T19:04:33.062Z</time>
      </trkpt>
      <trkpt lat="46.22681" lon="-0.56775">
        <ele>20.02</ele>
        <time>2025-10-20T19:04:36.225Z</time>
      </trkpt>
      <trkpt lat="46.22653" lon="-0.56782">
        <ele>20.14</ele>
        <time>2025-10-20T19:04:39.394Z</time>
      </trkpt>
      <trkpt lat="46.22626" lon="-0.56789">
        <ele>20.35</ele>
        <time>2025-10-20T19:04:42.568Z</time>
      </trkpt>
      <trkpt lat="46.22598" lon="-0.56796">
        <ele>20.58</ele>
        <time>2025-10-20T19:04:45.748Z</time>
      </trkpt>
      <trkpt lat="46.22593" lon="-0.56761">
        <ele>20.7</ele>
        <time>2025-10-20T19:04:48.933Z</time>
      </trkpt>
      <trkpt lat="46.22588" lon="-0.56725">
        <ele>20.85</ele>
        <time>2025-10-20T19:04:52.123Z</time>
      </trkpt>
      <trkpt lat="46.22583" lon="-0.56689">
        <ele>20.99</ele>
        <time>2025-10-20T19:04:55.318Z</time>
      </trkpt>
      <trkpt lat="46.2256" lon="-0.56696">
        <ele>21.16</ele>
        <time>2025-10-20T19:04:58.518Z</time>
      </trkpt>
      <trkpt lat="46.22537" lon="-0.56702">
        <ele>21.29</ele>
        <time>2025-10-20T19:05:01.722Z</time>
      </trkpt>
      <trkpt lat="46.22507" lon="-0.5671">
        <ele>21.38</ele>
        <time>2025-10-20T19:05:04.932Z</time>
      </trkpt>
      <trkpt lat="46.22478" lon="-0.56719">
        <ele>21.45</ele>
        <time>2025-10-20T19:05:08.148Z</time>
      </trkpt>
      <trkpt lat="46.22449" lon="-0.56727">
        <ele>21.53</ele>
        <time>2025-10-20T19:05:11.370Z</time>
      </trkpt>
      <trkpt lat="46.22419" lon="-0.56735">
        <ele>21.6</ele>
        <time>2025-10-20T19:05:14.598Z</time>
      </trkpt>
      <trkpt lat="46.2239" lon="-0.56743">
        <ele>21.62</ele>
        <time>2025-10-20T19:05:17.832Z</time>
      </trkpt>
      <trkpt lat="46.22361" lon="-0.56751">
        <ele>21.61</ele>
        <time>2025-10-20T19:05:21.072Z</time>
      </trkpt>
      <trkpt lat="46.22331" lon="-0.5676">
        <ele>21.58</ele>
        <time>2025-10-20T19:05:24.318Z</time>
      </trkpt>
      <trkpt lat="46.22302" lon="-0.56768">
        <ele>21.6</ele>
        <time>2025-10-20T19:05:27.570Z</time>
      </trkpt>
      <trkpt lat="46.22273" lon="-0.56776">
        <ele>21.65</ele>
        <time>2025-10-20T19:05:30.828Z</time>
      </trkpt>
      <trkpt lat="46.22243" lon="-0.56784">
        <ele>21.76</ele>
        <time>2025-10-20T19:05:34.092Z</time>
      </trkpt>
      <trkpt lat="46.22214" lon="-0.56792">
        <ele>21.86</ele>
        <time>2025-10-20T19:05:37.362Z</time>
      </trkpt>
      <trkpt lat="46.22184" lon="-0.56801">
        <ele>21.92</ele>
        <time>2025-10-20T19:05:40.638Z</time>
      </trkpt>
      <trkpt lat="46.22156" lon="-0.56806">
        <ele>22.06</ele>
        <time>2025-10-20T19:05:43.920Z</time>
      </trkpt>
      <trkpt lat="46.22127" lon="-0.56812">
        <ele>22.09</ele>
        <time>2025-10-20T19:05:47.208Z</time>
      </trkpt>
      <trkpt lat="46.22098" lon="-0.56818">
        <ele>22.17</ele>
        <time>2025-10-20T19:05:50.502Z</time>
      </trkpt>
      <trkpt lat="46.22069" lon="-0.56827">
        <ele>22.31</ele>
        <time>2025-10-20T19:05:53.802Z</time>
      </trkpt>
      <trkpt lat="46.2204" lon="-0.56837">
        <ele>22.59</ele>
        <time>2025-10-20T19:05:57.108Z</time>
      </trkpt>
      <trkpt lat="46.2201" lon="-0.56847">
        <ele>22.93</ele>
        <time>2025-10-20T19:06:00.420Z</time>
      </trkpt>
      <trkpt lat="46.2198" lon="-0.56856">
        <ele>23.31</ele>
        <time>2025-10-20T19:06:03.738Z</time>
      </trkpt>
      <trkpt lat="46.2197" lon="-0.56867">
        <ele>23.61</ele>
        <time>2025-10-20T19:06:07.058Z</time>
      </trkpt>
      <trkpt lat="46.2196" lon="-0.56833">
        <ele>23.87</ele>
        <time>2025-10-20T19:06:10.384Z</time>
      </trkpt>
      <trkpt lat="46.2195" lon="-0.56799">
        <ele>24.2</ele>
        <time>2025-10-20T19:06:13.715Z</time>
      </trkpt>
      <trkpt lat="46.21942" lon="-0.56779">
        <ele>24.55</ele>
        <time>2025-10-20T19:06:17.049Z</time>
      </trkpt>
      <trkpt lat="46.21931" lon="-0.56753">
        <ele>24.93</ele>
        <time>2025-10-20T19:06:20.387Z</time>
      </trkpt>
      <trkpt lat="46.2192" lon="-0.56713">
        <ele>25.3</ele>
        <time>2025-10-20T19:06:23.731Z</time>
      </trkpt>
      <trkpt lat="46.21917" lon="-0.56676">
        <ele>25.7</ele>
        <time>2025-10-20T19:06:27.080Z</time>
      </trkpt>
      <trkpt lat="46.21913" lon="-0.56638">
        <ele>26</ele>
        <time>2025-10-20T19:06:30.435Z</time>
      </trkpt>
      <trkpt lat="46.21909" lon="-0.56601">
        <ele>26.46</ele>
        <time>2025-10-20T19:06:33.795Z</time>
      </trkpt>
      <trkpt lat="46.21905" lon="-0.56565">
        <ele>26.94</ele>
        <time>2025-10-20T19:06:37.160Z</time>
      </trkpt>
      <trkpt lat="46.21886" lon="-0.56573">
        <ele>27.54</ele>
        <time>2025-10-20T19:06:40.529Z</time>
      </trkpt>
      <trkpt lat="46.21865" lon="-0.56578">
        <ele>28.25</ele>
        <time>2025-10-20T19:06:43.902Z</time>
      </trkpt>
      <trkpt lat="46.21844" lon="-0.56583">
        <ele>28.97</ele>
        <time>2025-10-20T19:06:47.280Z</time>
      </trkpt>
      <trkpt lat="46.2182" lon="-0.56588">
        <ele>29.7</ele>
        <time>2025-10-20T19:06:50.662Z</time>
      </trkpt>
      <trkpt lat="46.21796" lon="-0.56594">
        <ele>30.42</ele>
        <time>2025-10-20T19:06:54.049Z</time>
      </trkpt>
      <trkpt lat="46.21772" lon="-0.56599">
        <ele>31.07</ele>
        <time>2025-10-20T19:06:57.441Z</time>
      </trkpt>
      <trkpt lat="46.21742" lon="-0.56603">
        <ele>31.84</ele>
        <time>2025-10-20T19:07:00.839Z</time>
      </trkpt>
      <trkpt lat="46.21711" lon="-0.56606">
        <ele>32.67</ele>
        <time>2025-10-20T19:07:04.243Z</time>
      </trkpt>
      <trkpt lat="46.2168" lon="-0.5661">
        <ele>33.44</ele>
        <time>2025-10-20T19:07:07.654Z</time>
      </trkpt>
      <trkpt lat="46.21649" lon="-0.56613">
        <ele>34.15</ele>
        <time>2025-10-20T19:07:11.071Z</time>
      </trkpt>
      <trkpt lat="46.21619" lon="-0.56617">
        <ele>34.88</ele>
        <time>2025-10-20T19:07:14.494Z</time>
      </trkpt>
      <trkpt lat="46.21588" lon="-0.5662">
        <ele>35.6</ele>
        <time>2025-10-20T19:07:17.923Z</time>
      </trkpt>
      <trkpt lat="46.21573" lon="-0.56618">
        <ele>36.26</ele>
        <time>2025-10-20T19:07:21.355Z</time>
      </trkpt>
      <trkpt lat="46.21549" lon="-0.56608">
        <ele>36.89</ele>
        <time>2025-10-20T19:07:24.792Z</time>
      </trkpt>
      <trkpt lat="46.21526" lon="-0.56598">
        <ele>37.62</ele>
        <time>2025-10-20T19:07:28.234Z</time>
      </trkpt>
      <trkpt lat="46.21502" lon="-0.56588">
        <ele>38.35</ele>
        <time>2025-10-20T19:07:31.681Z</time>
      </trkpt>
      <trkpt lat="46.21483" lon="-0.56586">
        <ele>39.01</ele>
        <time>2025-10-20T19:07:35.132Z</time>
      </trkpt>
      <trkpt lat="46.21463" lon="-0.56584">
        <ele>39.64</ele>
        <time>2025-10-20T19:07:38.587Z</time>
      </trkpt>
      <trkpt lat="46.21462" lon="-0.56553">
        <ele>40.11</ele>
        <time>2025-10-20T19:07:42.046Z</time>
      </trkpt>
      <trkpt lat="46.21461" lon="-0.56522">
        <ele>40.56</ele>
        <time>2025-10-20T19:07:45.509Z</time>
      </trkpt>
      <trkpt lat="46.21454" lon="-0.56486">
        <ele>41.07</ele>
        <time>2025-10-20T19:07:48.977Z</time>
      </trkpt>
      <trkpt lat="46.21447" lon="-0.5645">
        <ele>41.58</ele>
        <time>2025-10-20T19:07:52.451Z</time>
      </trkpt>
      <trkpt lat="46.2144" lon="-0.56414">
        <ele>42.03</ele>
        <time>2025-10-20T19:07:55.930Z</time>
      </trkpt>
      <trkpt lat="46.21432" lon="-0.56384">
        <ele>42.37</ele>
        <time>2025-10-20T19:07:59.413Z</time>
      </trkpt>
      <trkpt lat="46.21425" lon="-0.56354">
        <ele>42.74</ele>
        <time>2025-10-20T19:08:02.901Z</time>
      </trkpt>
      <trkpt lat="46.21412" lon="-0.56318">
        <ele>43.2</ele>
        <time>2025-10-20T19:08:06.394Z</time>
      </trkpt>
      <trkpt lat="46.21399" lon="-0.56282">
        <ele>43.65</ele>
        <time>2025-10-20T19:08:09.893Z</time>
      </trkpt>
      <trkpt lat="46.21386" lon="-0.56246">
        <ele>44.03</ele>
        <time>2025-10-20T19:08:13.398Z</time>
      </trkpt>
      <trkpt lat="46.21373" lon="-0.56211">
        <ele>44.31</ele>
        <time>2025-10-20T19:08:16.908Z</time>
      </trkpt>
      <trkpt lat="46.21373" lon="-0.56211">
        <ele>44.66</ele>
        <time>2025-10-20T19:08:20.418Z</time>
      </trkpt>
      <trkpt lat="46.2136" lon="-0.56174">
        <ele>44.99</ele>
        <time>2025-10-20T19:08:23.934Z</time>
      </trkpt>
      <trkpt lat="46.21347" lon="-0.56138">
        <ele>45.41</ele>
        <time>2025-10-20T19:08:27.455Z</time>
      </trkpt>
      <trkpt lat="46.21339" lon="-0.56101">
        <ele>45.81</ele>
        <time>2025-10-20T19:08:30.982Z</time>
      </trkpt>
      <trkpt lat="46.21331" lon="-0.56064">
        <ele>46.25</ele>
        <time>2025-10-20T19:08:34.514Z</time>
      </trkpt>
      <trkpt lat="46.21323" lon="-0.56027">
        <ele>46.65</ele>
        <time>2025-10-20T19:08:38.052Z</time>
      </trkpt>
      <trkpt lat="46.21315" lon="-0.5599">
        <ele>47.05</ele>
        <time>2025-10-20T19:08:41.595Z</time>
      </trkpt>
      <trkpt lat="46.21307" lon="-0.55953">
        <ele>47.37</ele>
        <time>2025-10-20T19:08:45.143Z</time>
      </trkpt>
      <trkpt lat="46.21292" lon="-0.55964">
        <ele>47.85</ele>
        <time>2025-10-20T19:08:48.695Z</time>
      </trkpt>
      <trkpt lat="46.21277" lon="-0.55975">
        <ele>48.37</ele>
        <time>2025-10-20T19:08:52.250Z</time>
      </trkpt>
      <trkpt lat="46.21268" lon="-0.55981">
        <ele>48.89</ele>
        <time>2025-10-20T19:08:55.807Z</time>
      </trkpt>
      <trkpt lat="46.21245" lon="-0.56006">
        <ele>49.51</ele>
        <time>2025-10-20T19:08:59.370Z</time>
      </trkpt>
      <trkpt lat="46.21222" lon="-0.56031">
        <ele>49.99</ele>
        <time>2025-10-20T19:09:02.939Z</time>
      </trkpt>
      <trkpt lat="46.21199" lon="-0.56057">
        <ele>50.57</ele>
        <time>2025-10-20T19:09:06.513Z</time>
      </trkpt>
      <trkpt lat="46.21176" lon="-0.56082">
        <ele>51.16</ele>
        <time>2025-10-20T19:09:10.093Z</time>
      </trkpt>
      <trkpt lat="46.21167" lon="-0.5608">
        <ele>51.67</ele>
        <time>2025-10-20T19:09:13.675Z</time>
      </trkpt>
      <trkpt lat="46.21159" lon="-0.5612">
        <ele>52.14</ele>
        <time>2025-10-20T19:09:17.263Z</time>
      </trkpt>
      <trkpt lat="46.21159" lon="-0.5612">
        <ele>52.58</ele>
        <time>2025-10-20T19:09:20.851Z</time>
      </trkpt>
      <trkpt lat="46.21151" lon="-0.56156">
        <ele>52.96</ele>
        <time>2025-10-20T19:09:24.444Z</time>
      </trkpt>
      <trkpt lat="46.21144" lon="-0.56191">
        <ele>53.32</ele>
        <time>2025-10-20T19:09:28.042Z</time>
      </trkpt>
      <trkpt lat="46.21136" lon="-0.56227">
        <ele>53.67</ele>
        <time>2025-10-20T19:09:31.645Z</time>
      </trkpt>
      <trkpt lat="46.21129" lon="-0.56262">
        <ele>54</ele>
        <time>2025-10-20T19:09:35.253Z</time>
      </trkpt>
      <trkpt lat="46.21124" lon="-0.56298">
        <ele>54.33</ele>
        <time>2025-10-20T19:09:38.866Z</time>
      </trkpt>
      <trkpt lat="46.21119" lon="-0.56334">
        <ele>54.67</ele>
        <time>2025-10-20T19:09:42.485Z</time>
      </trkpt>
      <trkpt lat="46.21114" lon="-0.56369">
        <ele>54.86</ele>
        <time>2025-10-20T19:09:46.109Z</time>
      </trkpt>
      <trkpt lat="46.21096" lon="-0.56402">
        <ele>55.08</ele>
        <time>2025-10-20T19:09:49.738Z</time>
      </trkpt>
      <trkpt lat="46.21075" lon="-0.56423">
        <ele>55.23</ele>
        <time>2025-10-20T19:09:53.372Z</time>
      </trkpt>
      <trkpt lat="46.21059" lon="-0.56427">
        <ele>55.26</ele>
        <time>2025-10-20T19:09:57.010Z</time>
      </trkpt>
      <trkpt lat="46.21043" lon="-0.56432">
        <ele>55.23</ele>
        <time>2025-10-20T19:10:00.651Z</time>
      </trkpt>
      <trkpt lat="46.21017" lon="-0.56429">
        <ele>55.13</ele>
        <time>2025-10-20T19:10:04.297Z</time>
      </trkpt>
      <trkpt lat="46.20989" lon="-0.56434">
        <ele>55.04</ele>
        <time>2025-10-20T19:10:07.949Z</time>
      </trkpt>
      <trkpt lat="46.20974" lon="-0.5644">
        <ele>54.91</ele>
        <time>2025-10-20T19:10:11.604Z</time>
      </trkpt>
      <trkpt lat="46.20959" lon="-0.56462">
        <ele>54.73</ele>
        <time>2025-10-20T19:10:15.263Z</time>
      </trkpt>
      <trkpt lat="46.20943" lon="-0.56492">
        <ele>54.47</ele>
        <time>2025-10-20T19:10:18.927Z</time>
      </trkpt>
      <trkpt lat="46.20927" lon="-0.56522">
        <ele>54.19</ele>
        <time>2025-10-20T19:10:22.597Z</time>
      </trkpt>
      <trkpt lat="46.20916" lon="-0.56546">
        <ele>53.9</ele>
        <time>2025-10-20T19:10:26.271Z</time>
      </trkpt>
      <trkpt lat="46.20916" lon="-0.56546">
        <ele>53.57</ele>
        <time>2025-10-20T19:10:29.945Z</time>
      </trkpt>
      <trkpt lat="46.209" lon="-0.56583">
        <ele>53.18</ele>
        <time>2025-10-20T19:10:33.625Z</time>
      </trkpt>
      <trkpt lat="46.20884" lon="-0.5662">
        <ele>52.79</ele>
        <time>2025-10-20T19:10:37.311Z</time>
      </trkpt>
      <trkpt lat="46.20872" lon="-0.56656">
        <ele>52.43</ele>
        <time>2025-10-20T19:10:41.002Z</time>
      </trkpt>
      <trkpt lat="46.20861" lon="-0.56691">
        <ele>52.01</ele>
        <time>2025-10-20T19:10:44.699Z</time>
      </trkpt>
      <trkpt lat="46.20849" lon="-0.56726">
        <ele>51.45</ele>
        <time>2025-10-20T19:10:48.401Z</time>
      </trkpt>
      <trkpt lat="46.20837" lon="-0.56762">
        <ele>50.94</ele>
        <time>2025-10-20T19:10:52.109Z</time>
      </trkpt>
      <trkpt lat="46.20826" lon="-0.56797">
        <ele>50.45</ele>
        <time>2025-10-20T19:10:55.822Z</time>
      </trkpt>
      <trkpt lat="46.20814" lon="-0.56832">
        <ele>49.98</ele>
        <time>2025-10-20T19:10:59.540Z</time>
      </trkpt>
      <trkpt lat="46.20802" lon="-0.56867">
        <ele>49.54</ele>
        <time>2025-10-20T19:11:03.264Z</time>
      </trkpt>
      <trkpt lat="46.20794" lon="-0.56905">
        <ele>49.13</ele>
        <time>2025-10-20T19:11:06.993Z</time>
      </trkpt>
      <trkpt lat="46.20786" lon="-0.56943">
        <ele>48.68</ele>
        <time>2025-10-20T19:11:10.728Z</time>
      </trkpt>
      <trkpt lat="46.20778" lon="-0.56981">
        <ele>48.23</ele>
        <time>2025-10-20T19:11:14.468Z</time>
      </trkpt>
      <trkpt lat="46.2077" lon="-0.5702">
        <ele>47.81</ele>
        <time>2025-10-20T19:11:18.214Z</time>
      </trkpt>
      <trkpt lat="46.20763" lon="-0.57058">
        <ele>47.38</ele>
        <time>2025-10-20T19:11:21.965Z</time>
      </trkpt>
      <trkpt lat="46.20755" lon="-0.57096">
        <ele>46.95</ele>
        <time>2025-10-20T19:11:25.722Z</time>
      </trkpt>
      <trkpt lat="46.20747" lon="-0.57133">
        <ele>46.6</ele>
        <time>2025-10-20T19:11:29.484Z</time>
      </trkpt>
      <trkpt lat="46.20747" lon="-0.57161">
        <ele>46.31</ele>
        <time>2025-10-20T19:11:33.250Z</time>
      </trkpt>
      <trkpt lat="46.20727" lon="-0.57178">
        <ele>46.07</ele>
        <time>2025-10-20T19:11:37.021Z</time>
      </trkpt>
      <trkpt lat="46.2072" lon="-0.57181">
        <ele>45.85</ele>
        <time>2025-10-20T19:11:40.793Z</time>
      </trkpt>
      <trkpt lat="46.20698" lon="-0.5719">
        <ele>45.67</ele>
        <time>2025-10-20T19:11:44.570Z</time>
      </trkpt>
      <trkpt lat="46.20676" lon="-0.57198">
        <ele>45.48</ele>
        <time>2025-10-20T19:11:48.351Z</time>
      </trkpt>
      <trkpt lat="46.20654" lon="-0.57206">
        <ele>45.28</ele>
        <time>2025-10-20T19:11:52.137Z</time>
      </trkpt>
      <trkpt lat="46.20629" lon="-0.57215">
        <ele>45.12</ele>
        <time>2025-10-20T19:11:55.928Z</time>
      </trkpt>
      <trkpt lat="46.20604" lon="-0.57216">
        <ele>45.04</ele>
        <time>2025-10-20T19:11:59.724Z</time>
      </trkpt>
      <trkpt lat="46.20579" lon="-0.57217">
        <ele>44.94</ele>
        <time>2025-10-20T19:12:03.525Z</time>
      </trkpt>
      <trkpt lat="46.20551" lon="-0.57223">
        <ele>44.85</ele>
        <time>2025-10-20T19:12:07.332Z</time>
      </trkpt>
      <trkpt lat="46.20524" lon="-0.57228">
        <ele>44.76</ele>
        <time>2025-10-20T19:12:11.144Z</time>
      </trkpt>
      <trkpt lat="46.20496" lon="-0.57234">
        <ele>44.67</ele>
        <time>2025-10-20T19:12:14.962Z</time>
      </trkpt>
      <trkpt lat="46.20489" lon="-0.57249">
        <ele>44.58</ele>
        <time>2025-10-20T19:12:18.783Z</time>
      </trkpt>
      <trkpt lat="46.20491" lon="-0.57275">
        <ele>44.49</ele>
        <time>2025-10-20T19:12:22.607Z</time>
      </trkpt>
      <trkpt lat="46.20493" lon="-0.57301">
        <ele>44.39</ele>
        <time>2025-10-20T19:12:26.435Z</time>
      </trkpt>
      <trkpt lat="46.20491" lon="-0.57316">
        <ele>44.28</ele>
        <time>2025-10-20T19:12:30.265Z</time>
      </trkpt>
      <trkpt lat="46.20481" lon="-0.57322">
        <ele>44.12</ele>
        <time>2025-10-20T19:12:34.097Z</time>
      </trkpt>
      <trkpt lat="46.2045" lon="-0.57324">
        <ele>43.91</ele>
        <time>2025-10-20T19:12:37.935Z</time>
      </trkpt>
      <trkpt lat="46.2042" lon="-0.57325">
        <ele>43.78</ele>
        <time>2025-10-20T19:12:41.779Z</time>
      </trkpt>
      <trkpt lat="46.20389" lon="-0.57326">
        <ele>43.59</ele>
        <time>2025-10-20T19:12:45.629Z</time>
      </trkpt>
      <trkpt lat="46.20359" lon="-0.57328">
        <ele>43.4</ele>
        <time>2025-10-20T19:12:49.485Z</time>
      </trkpt>
      <trkpt lat="46.20329" lon="-0.57329">
        <ele>43.17</ele>
        <time>2025-10-20T19:12:53.348Z</time>
      </trkpt>
      <trkpt lat="46.20298" lon="-0.57331">
        <ele>42.86</ele>
        <time>2025-10-20T19:12:57.217Z</time>
      </trkpt>
      <trkpt lat="46.20303" lon="-0.57369">
        <ele>42.57</ele>
        <time>2025-10-20T19:13:01.091Z</time>
      </trkpt>
      <trkpt lat="46.20308" lon="-0.5741">
        <ele>42.28</ele>
        <time>2025-10-20T19:13:04.971Z</time>
      </trkpt>
      <trkpt lat="46.20313" lon="-0.57451">
        <ele>41.93</ele>
        <time>2025-10-20T19:13:08.857Z</time>
      </trkpt>
      <trkpt lat="46.20318" lon="-0.57491">
        <ele>41.57</ele>
        <time>2025-10-20T19:13:12.748Z</time>
      </trkpt>
      <trkpt lat="46.20323" lon="-0.57532">
        <ele>41.22</ele>
        <time>2025-10-20T19:13:16.645Z</time>
      </trkpt>
      <trkpt lat="46.20329" lon="-0.57573">
        <ele>40.78</ele>
        <time>2025-10-20T19:13:20.548Z</time>
      </trkpt>
      <trkpt lat="46.20334" lon="-0.57613">
        <ele>40.4</ele>
        <time>2025-10-20T19:13:24.457Z</time>
      </trkpt>
      <trkpt lat="46.20339" lon="-0.57654">
        <ele>40.01</ele>
        <time>2025-10-20T19:13:28.371Z</time>
      </trkpt>
      <trkpt lat="46.20344" lon="-0.57695">
        <ele>39.66</ele>
        <time>2025-10-20T19:13:32.291Z</time>
      </trkpt>
      <trkpt lat="46.20349" lon="-0.57735">
        <ele>39.25</ele>
        <time>2025-10-20T19:13:36.217Z</time>
      </trkpt>
      <trkpt lat="46.20354" lon="-0.57775">
        <ele>38.84</ele>
        <time>2025-10-20T19:13:40.148Z</time>
      </trkpt>
      <trkpt lat="46.20362" lon="-0.57813">
        <ele>38.47</ele>
        <time>2025-10-20T19:13:44.085Z</time>
      </trkpt>
      <trkpt lat="46.20371" lon="-0.57851">
        <ele>38.14</ele>
        <time>2025-10-20T19:13:48.027Z</time>
      </trkpt>
      <trkpt lat="46.20379" lon="-0.57889">
        <ele>37.82</ele>
        <time>2025-10-20T19:13:51.975Z</time>
      </trkpt>
      <trkpt lat="46.20387" lon="-0.57927">
        <ele>37.54</ele>
        <time>2025-10-20T19:13:55.929Z</time>
      </trkpt>
      <trkpt lat="46.20395" lon="-0.57965">
        <ele>37.23</ele>
        <time>2025-10-20T19:13:59.888Z</time>
      </trkpt>
      <trkpt lat="46.20404" lon="-0.58003">
        <ele>36.94</ele>
        <time>2025-10-20T19:14:03.853Z</time>
      </trkpt>
      <trkpt lat="46.20412" lon="-0.58041">
        <ele>36.71</ele>
        <time>2025-10-20T19:14:07.823Z</time>
      </trkpt>
      <trkpt lat="46.20415" lon="-0.58071">
        <ele>36.48</ele>
        <time>2025-10-20T19:14:11.797Z</time>
      </trkpt>
      <trkpt lat="46.20418" lon="-0.58101">
        <ele>36.29</ele>
        <time>2025-10-20T19:14:15.776Z</time>
      </trkpt>
      <trkpt lat="46.20414" lon="-0.58133">
        <ele>36.11</ele>
        <time>2025-10-20T19:14:19.759Z</time>
      </trkpt>
      <trkpt lat="46.2041" lon="-0.58164">
        <ele>36.03</ele>
        <time>2025-10-20T19:14:23.747Z</time>
      </trkpt>
      <trkpt lat="46.20405" lon="-0.58195">
        <ele>36.01</ele>
        <time>2025-10-20T19:14:27.739Z</time>
      </trkpt>
      <trkpt lat="46.20405" lon="-0.58221">
        <ele>36.02</ele>
        <time>2025-10-20T19:14:31.735Z</time>
      </trkpt>
      <trkpt lat="46.20405" lon="-0.58247">
        <ele>36.11</ele>
        <time>2025-10-20T19:14:35.734Z</time>
      </trkpt>
      <trkpt lat="46.20413" lon="-0.58278">
        <ele>36.33</ele>
        <time>2025-10-20T19:14:39.738Z</time>
      </trkpt>
      <trkpt lat="46.2042" lon="-0.5831">
        <ele>36.55</ele>
        <time>2025-10-20T19:14:43.746Z</time>
      </trkpt>
      <trkpt lat="46.20427" lon="-0.58341">
        <ele>36.85</ele>
        <time>2025-10-20T19:14:47.759Z</time>
      </trkpt>
      <trkpt lat="46.20421" lon="-0.58337">
        <ele>37.17</ele>
        <time>2025-10-20T19:14:51.773Z</time>
      </trkpt>
      <trkpt lat="46.2041" lon="-0.58358">
        <ele>37.61</ele>
        <time>2025-10-20T19:14:55.791Z</time>
      </trkpt>
      <trkpt lat="46.20406" lon="-0.58364">
        <ele>38.04</ele>
        <time>2025-10-20T19:14:59.810Z</time>
      </trkpt>
      <trkpt lat="46.20389" lon="-0.5839">
        <ele>38.5</ele>
        <time>2025-10-20T19:15:03.834Z</time>
      </trkpt>
      <trkpt lat="46.20371" lon="-0.58416">
        <ele>39.01</ele>
        <time>2025-10-20T19:15:07.863Z</time>
      </trkpt>
      <trkpt lat="46.20355" lon="-0.58448">
        <ele>39.59</ele>
        <time>2025-10-20T19:15:11.898Z</time>
      </trkpt>
      <trkpt lat="46.20339" lon="-0.58479">
        <ele>40.19</ele>
        <time>2025-10-20T19:15:15.938Z</time>
      </trkpt>
      <trkpt lat="46.20328" lon="-0.58492">
        <ele>40.74</ele>
        <time>2025-10-20T19:15:19.981Z</time>
      </trkpt>
      <trkpt lat="46.2031" lon="-0.58515">
        <ele>41.34</ele>
        <time>2025-10-20T19:15:24.029Z</time>
      </trkpt>
      <trkpt lat="46.20292" lon="-0.58539">
        <ele>41.94</ele>
        <time>2025-10-20T19:15:28.082Z</time>
      </trkpt>
      <trkpt lat="46.20276" lon="-0.58547">
        <ele>42.47</ele>
        <time>2025-10-20T19:15:32.138Z</time>
      </trkpt>
      <trkpt lat="46.2026" lon="-0.58556">
        <ele>42.98</ele>
        <time>2025-10-20T19:15:36.197Z</time>
      </trkpt>
      <trkpt lat="46.20255" lon="-0.58562">
        <ele>43.45</ele>
        <time>2025-10-20T19:15:40.258Z</time>
      </trkpt>
      <trkpt lat="46.20253" lon="-0.586">
        <ele>43.88</ele>
        <time>2025-10-20T19:15:44.324Z</time>
      </trkpt>
      <trkpt lat="46.20251" lon="-0.58637">
        <ele>44.3</ele>
        <time>2025-10-20T19:15:48.395Z</time>
      </trkpt>
      <trkpt lat="46.20249" lon="-0.58674">
        <ele>44.74</ele>
        <time>2025-10-20T19:15:52.471Z</time>
      </trkpt>
      <trkpt lat="46.2026" lon="-0.58676">
        <ele>45.12</ele>
        <time>2025-10-20T19:15:56.549Z</time>
      </trkpt>
      <trkpt lat="46.2026" lon="-0.58709">
        <ele>45.51</ele>
        <time>2025-10-20T19:16:00.632Z</time>
      </trkpt>
      <trkpt lat="46.2026" lon="-0.58743">
        <ele>45.78</ele>
        <time>2025-10-20T19:16:04.720Z</time>
      </trkpt>
      <trkpt lat="46.20262" lon="-0.58762">
        <ele>46.09</ele>
        <time>2025-10-20T19:16:08.810Z</time>
      </trkpt>
      <trkpt lat="46.20268" lon="-0.58777">
        <ele>46.43</ele>
        <time>2025-10-20T19:16:12.903Z</time>
      </trkpt>
      <trkpt lat="46.20275" lon="-0.58785">
        <ele>46.69</ele>
        <time>2025-10-20T19:16:16.998Z</time>
      </trkpt>
      <trkpt lat="46.20275" lon="-0.58801">
        <ele>46.92</ele>
        <time>2025-10-20T19:16:21.095Z</time>
      </trkpt>
      <trkpt lat="46.2027" lon="-0.5882">
        <ele>47.09</ele>
        <time>2025-10-20T19:16:25.194Z</time>
      </trkpt>
      <trkpt lat="46.20262" lon="-0.58839">
        <ele>47.22</ele>
        <time>2025-10-20T19:16:29.297Z</time>
      </trkpt>
      <trkpt lat="46.20244" lon="-0.58858">
        <ele>47.34</ele>
        <time>2025-10-20T19:16:33.404Z</time>
      </trkpt>
      <trkpt lat="46.20226" lon="-0.58876">
        <ele>47.54</ele>
        <time>2025-10-20T19:16:37.515Z</time>
      </trkpt>
      <trkpt lat="46.20208" lon="-0.58895">
        <ele>47.75</ele>
        <time>2025-10-20T19:16:41.631Z</time>
      </trkpt>
      <trkpt lat="46.20191" lon="-0.58908">
        <ele>47.94</ele>
        <time>2025-10-20T19:16:45.751Z</time>
      </trkpt>
      <trkpt lat="46.20174" lon="-0.58921">
        <ele>48.04</ele>
        <time>2025-10-20T19:16:49.875Z</time>
      </trkpt>
      <trkpt lat="46.2016" lon="-0.58953">
        <ele>48.1</ele>
        <time>2025-10-20T19:16:54.004Z</time>
      </trkpt>
      <trkpt lat="46.20149" lon="-0.5898">
        <ele>48.07</ele>
        <time>2025-10-20T19:16:58.137Z</time>
      </trkpt>
      <trkpt lat="46.20137" lon="-0.59007">
        <ele>48.04</ele>
        <time>2025-10-20T19:17:02.275Z</time>
      </trkpt>
      <trkpt lat="46.20127" lon="-0.59045">
        <ele>47.98</ele>
        <time>2025-10-20T19:17:06.418Z</time>
      </trkpt>
      <trkpt lat="46.20121" lon="-0.59083">
        <ele>47.81</ele>
        <time>2025-10-20T19:17:10.567Z</time>
      </trkpt>
      <trkpt lat="46.20116" lon="-0.5912">
        <ele>47.59</ele>
        <time>2025-10-20T19:17:14.721Z</time>
      </trkpt>
      <trkpt lat="46.20116" lon="-0.59163">
        <ele>47.44</ele>
        <time>2025-10-20T19:17:18.881Z</time>
      </trkpt>
      <trkpt lat="46.20128" lon="-0.59204">
        <ele>47.27</ele>
        <time>2025-10-20T19:17:23.047Z</time>
      </trkpt>
      <trkpt lat="46.20139" lon="-0.59244">
        <ele>47.14</ele>
        <time>2025-10-20T19:17:27.219Z</time>
      </trkpt>
      <trkpt lat="46.20151" lon="-0.59285">
        <ele>47.04</ele>
        <time>2025-10-20T19:17:31.397Z</time>
      </trkpt>
      <trkpt lat="46.20163" lon="-0.59325">
        <ele>46.88</ele>
        <time>2025-10-20T19:17:35.581Z</time>
      </trkpt>
      <trkpt lat="46.20175" lon="-0.59366">
        <ele>46.72</ele>
        <time>2025-10-20T19:17:39.772Z</time>
      </trkpt>
      <trkpt lat="46.20187" lon="-0.59407">
        <ele>46.63</ele>
        <time>2025-10-20T19:17:43.969Z</time>
      </trkpt>
      <trkpt lat="46.20199" lon="-0.59447">
        <ele>46.3</ele>
        <time>2025-10-20T19:17:48.172Z</time>
      </trkpt>
      <trkpt lat="46.2021" lon="-0.59487">
        <ele>45.9</ele>
        <time>2025-10-20T19:17:52.381Z</time>
      </trkpt>
      <trkpt lat="46.20223" lon="-0.59518">
        <ele>45.52</ele>
        <time>2025-10-20T19:17:56.595Z</time>
      </trkpt>
      <trkpt lat="46.20236" lon="-0.59549">
        <ele>45.14</ele>
        <time>2025-10-20T19:18:00.814Z</time>
      </trkpt>
      <trkpt lat="46.20248" lon="-0.59577">
        <ele>44.81</ele>
        <time>2025-10-20T19:18:05.037Z</time>
      </trkpt>
      <trkpt lat="46.2026" lon="-0.59604">
        <ele>44.41</ele>
        <time>2025-10-20T19:18:09.265Z</time>
      </trkpt>
      <trkpt lat="46.20272" lon="-0.59631">
        <ele>43.98</ele>
        <time>2025-10-20T19:18:13.497Z</time>
      </trkpt>
      <trkpt lat="46.20283" lon="-0.59649">
        <ele>43.61</ele>
        <time>2025-10-20T19:18:17.733Z</time>
      </trkpt>
      <trkpt lat="46.20294" lon="-0.59667">
        <ele>43.22</ele>
        <time>2025-10-20T19:18:21.972Z</time>
      </trkpt>
      <trkpt lat="46.20311" lon="-0.59692">
        <ele>42.86</ele>
        <time>2025-10-20T19:18:26.216Z</time>
      </trkpt>
      <trkpt lat="46.20328" lon="-0.59716">
        <ele>42.43</ele>
        <time>2025-10-20T19:18:30.465Z</time>
      </trkpt>
      <trkpt lat="46.20345" lon="-0.5974">
        <ele>42.01</ele>
        <time>2025-10-20T19:18:34.718Z</time>
      </trkpt>
      <trkpt lat="46.20359" lon="-0.59769">
        <ele>41.51</ele>
        <time>2025-10-20T19:18:38.976Z</time>
      </trkpt>
      <trkpt lat="46.20373" lon="-0.59798">
        <ele>41.05</ele>
        <time>2025-10-20T19:18:43.239Z</time>
      </trkpt>
      <trkpt lat="46.20387" lon="-0.59827">
        <ele>40.58</ele>
        <time>2025-10-20T19:18:47.507Z</time>
      </trkpt>
      <trkpt lat="46.20401" lon="-0.59856">
        <ele>40.09</ele>
        <time>2025-10-20T19:18:51.780Z</time>
      </trkpt>
      <trkpt lat="46.20414" lon="-0.59893">
        <ele>39.57</ele>
        <time>2025-10-20T19:18:56.059Z</time>
      </trkpt>
      <trkpt lat="46.20427" lon="-0.59929">
        <ele>39.08</ele>
        <time>2025-10-20T19:19:00.343Z</time>
      </trkpt>
      <trkpt lat="46.2044" lon="-0.59966">
        <ele>38.53</ele>
        <time>2025-10-20T19:19:04.633Z</time>
      </trkpt>
      <trkpt lat="46.20452" lon="-0.60007">
        <ele>37.99</ele>
        <time>2025-10-20T19:19:08.929Z</time>
      </trkpt>
      <trkpt lat="46.20464" lon="-0.60049">
        <ele>37.4</ele>
        <time>2025-10-20T19:19:13.232Z</time>
      </trkpt>
      <trkpt lat="46.20476" lon="-0.6009">
        <ele>36.88</ele>
        <time>2025-10-20T19:19:17.541Z</time>
      </trkpt>
      <trkpt lat="46.20489" lon="-0.60132">
        <ele>36.44</ele>
        <time>2025-10-20T19:19:21.856Z</time>
      </trkpt>
      <trkpt lat="46.20501" lon="-0.60174">
        <ele>35.98</ele>
        <time>2025-10-20T19:19:26.177Z</time>
      </trkpt>
      <trkpt lat="46.20513" lon="-0.60215">
        <ele>35.43</ele>
        <time>2025-10-20T19:19:30.505Z</time>
      </trkpt>
      <trkpt lat="46.20525" lon="-0.60257">
        <ele>34.9</ele>
        <time>2025-10-20T19:19:34.839Z</time>
      </trkpt>
      <trkpt lat="46.20537" lon="-0.60298">
        <ele>34.42</ele>
        <time>2025-10-20T19:19:39.179Z</time>
      </trkpt>
      <trkpt lat="46.20549" lon="-0.60339">
        <ele>33.96</ele>
        <time>2025-10-20T19:19:43.525Z</time>
      </trkpt>
      <trkpt lat="46.20564" lon="-0.60363">
        <ele>33.58</ele>
        <time>2025-10-20T19:19:47.876Z</time>
      </trkpt>
      <trkpt lat="46.20579" lon="-0.60386">
        <ele>33.23</ele>
        <time>2025-10-20T19:19:52.231Z</time>
      </trkpt>
      <trkpt lat="46.20594" lon="-0.6041">
        <ele>32.98</ele>
        <time>2025-10-20T19:19:56.591Z</time>
      </trkpt>
      <trkpt lat="46.20616" lon="-0.60435">
        <ele>32.71</ele>
        <time>2025-10-20T19:20:00.956Z</time>
      </trkpt>
      <trkpt lat="46.20637" lon="-0.6046">
        <ele>32.5</ele>
        <time>2025-10-20T19:20:05.327Z</time>
      </trkpt>
      <trkpt lat="46.20659" lon="-0.60485">
        <ele>32.33</ele>
        <time>2025-10-20T19:20:09.703Z</time>
      </trkpt>
      <trkpt lat="46.2068" lon="-0.6051">
        <ele>32.17</ele>
        <time>2025-10-20T19:20:14.085Z</time>
      </trkpt>
      <trkpt lat="46.20684" lon="-0.60515">
        <ele>32.02</ele>
        <time>2025-10-20T19:20:18.468Z</time>
      </trkpt>
      <trkpt lat="46.20702" lon="-0.60541">
        <ele>31.85</ele>
        <time>2025-10-20T19:20:22.856Z</time>
      </trkpt>
      <trkpt lat="46.2072" lon="-0.60568">
        <ele>31.76</ele>
        <time>2025-10-20T19:20:27.249Z</time>
      </trkpt>
      <trkpt lat="46.20738" lon="-0.60594">
        <ele>31.67</ele>
        <time>2025-10-20T19:20:31.647Z</time>
      </trkpt>
      <trkpt lat="46.20742" lon="-0.60597">
        <ele>31.66</ele>
        <time>2025-10-20T19:20:36.046Z</time>
      </trkpt>
      <trkpt lat="46.20749" lon="-0.60594">
        <ele>31.66</ele>
        <time>2025-10-20T19:20:40.447Z</time>
      </trkpt>
      <trkpt lat="46.20754" lon="-0.60564">
        <ele>31.69</ele>
        <time>2025-10-20T19:20:44.852Z</time>
      </trkpt>
      <trkpt lat="46.2076" lon="-0.60534">
        <ele>31.71</ele>
        <time>2025-10-20T19:20:49.261Z</time>
      </trkpt>
      <trkpt lat="46.20764" lon="-0.6051">
        <ele>31.77</ele>
        <time>2025-10-20T19:20:53.674Z</time>
      </trkpt>
      <trkpt lat="46.20769" lon="-0.60485">
        <ele>31.87</ele>
        <time>2025-10-20T19:20:58.090Z</time>
      </trkpt>
      <trkpt lat="46.20776" lon="-0.60446">
        <ele>32</ele>
        <time>2025-10-20T19:21:02.512Z</time>
      </trkpt>
      <trkpt lat="46.20784" lon="-0.60406">
        <ele>32.11</ele>
        <time>2025-10-20T19:21:06.940Z</time>
      </trkpt>
      <trkpt lat="46.20791" lon="-0.60367">
        <ele>32.23</ele>
        <time>2025-10-20T19:21:11.373Z</time>
      </trkpt>
      <trkpt lat="46.20798" lon="-0.60328">
        <ele>32.42</ele>
        <time>2025-10-20T19:21:15.812Z</time>
      </trkpt>
      <trkpt lat="46.20812" lon="-0.60289">
        <ele>32.56</ele>
        <time>2025-10-20T19:21:20.257Z</time>
      </trkpt>
      <trkpt lat="46.20826" lon="-0.6025">
        <ele>32.67</ele>
        <time>2025-10-20T19:21:24.708Z</time>
      </trkpt>
      <trkpt lat="46.20839" lon="-0.60211">
        <ele>32.76</ele>
        <time>2025-10-20T19:21:29.165Z</time>
      </trkpt>
      <trkpt lat="46.20853" lon="-0.60172">
        <ele>32.83</ele>
        <time>2025-10-20T19:21:33.628Z</time>
      </trkpt>
      <trkpt lat="46.20867" lon="-0.60133">
        <ele>32.98</ele>
        <time>2025-10-20T19:21:38.097Z</time>
      </trkpt>
      <trkpt lat="46.20873" lon="-0.60109">
        <ele>33.07</ele>
        <time>2025-10-20T19:21:42.570Z</time>
      </trkpt>
      <trkpt lat="46.2088" lon="-0.60086">
        <ele>33.13</ele>
        <time>2025-10-20T19:21:47.046Z</time>
      </trkpt>
      <trkpt lat="46.20885" lon="-0.60051">
        <ele>33.16</ele>
        <time>2025-10-20T19:21:51.527Z</time>
      </trkpt>
      <trkpt lat="46.20889" lon="-0.60017">
        <ele>33.18</ele>
        <time>2025-10-20T19:21:56.013Z</time>
      </trkpt>
      <trkpt lat="46.20894" lon="-0.59983">
        <ele>33.18</ele>
        <time>2025-10-20T19:22:00.504Z</time>
      </trkpt>
      <trkpt lat="46.20899" lon="-0.59948">
        <ele>33.13</ele>
        <time>2025-10-20T19:22:05.000Z</time>
      </trkpt>
      <trkpt lat="46.20901" lon="-0.59906">
        <ele>33.01</ele>
        <time>2025-10-20T19:22:09.502Z</time>
      </trkpt>
      <trkpt lat="46.20899" lon="-0.59865">
        <ele>32.99</ele>
        <time>2025-10-20T19:22:14.009Z</time>
      </trkpt>
      <trkpt lat="46.20897" lon="-0.59824">
        <ele>32.89</ele>
        <time>2025-10-20T19:22:18.522Z</time>
      </trkpt>
      <trkpt lat="46.20894" lon="-0.59787">
        <ele>32.67</ele>
        <time>2025-10-20T19:22:23.040Z</time>
      </trkpt>
      <trkpt lat="46.2089" lon="-0.59751">
        <ele>32.4</ele>
        <time>2025-10-20T19:22:27.563Z</time>
      </trkpt>
      <trkpt lat="46.20869" lon="-0.59721">
        <ele>32.17</ele>
        <time>2025-10-20T19:22:32.092Z</time>
      </trkpt>
      <trkpt lat="46.20848" lon="-0.59691">
        <ele>31.96</ele>
        <time>2025-10-20T19:22:36.627Z</time>
      </trkpt>
      <trkpt lat="46.20854" lon="-0.59678">
        <ele>31.66</ele>
        <time>2025-10-20T19:22:41.164Z</time>
      </trkpt>
      <trkpt lat="46.20868" lon="-0.59662">
        <ele>31.33</ele>
        <time>2025-10-20T19:22:45.705Z</time>
      </trkpt>
      <trkpt lat="46.20882" lon="-0.59646">
        <ele>30.99</ele>
        <time>2025-10-20T19:22:50.250Z</time>
      </trkpt>
      <trkpt lat="46.20903" lon="-0.59621">
        <ele>30.72</ele>
        <time>2025-10-20T19:22:54.800Z</time>
      </trkpt>
      <trkpt lat="46.20925" lon="-0.59597">
        <ele>30.43</ele>
        <time>2025-10-20T19:22:59.356Z</time>
      </trkpt>
      <trkpt lat="46.20929" lon="-0.59582">
        <ele>30.09</ele>
        <time>2025-10-20T19:23:03.914Z</time>
      </trkpt>
      <trkpt lat="46.20932" lon="-0.59559">
        <ele>29.76</ele>
        <time>2025-10-20T19:23:08.475Z</time>
      </trkpt>
      <trkpt lat="46.20935" lon="-0.59537">
        <ele>29.36</ele>
        <time>2025-10-20T19:23:13.039Z</time>
      </trkpt>
      <trkpt lat="46.20935" lon="-0.59491">
        <ele>28.84</ele>
        <time>2025-10-20T19:23:17.609Z</time>
      </trkpt>
      <trkpt lat="46.20932" lon="-0.59448">
        <ele>28.4</ele>
        <time>2025-10-20T19:23:22.185Z</time>
      </trkpt>
      <trkpt lat="46.20929" lon="-0.59405">
        <ele>28.11</ele>
        <time>2025-10-20T19:23:26.768Z</time>
      </trkpt>
      <trkpt lat="46.20926" lon="-0.59362">
        <ele>27.85</ele>
        <time>2025-10-20T19:23:31.357Z</time>
      </trkpt>
      <trkpt lat="46.20923" lon="-0.5932">
        <ele>27.64</ele>
        <time>2025-10-20T19:23:35.951Z</time>
      </trkpt>
      <trkpt lat="46.20925" lon="-0.59298">
        <ele>27.5</ele>
        <time>2025-10-20T19:23:40.548Z</time>
      </trkpt>
      <trkpt lat="46.20933" lon="-0.59279">
        <ele>27.38</ele>
        <time>2025-10-20T19:23:45.149Z</time>
      </trkpt>
      <trkpt lat="46.20951" lon="-0.59258">
        <ele>27.35</ele>
        <time>2025-10-20T19:23:49.754Z</time>
      </trkpt>
      <trkpt lat="46.20968" lon="-0.59236">
        <ele>27.38</ele>
        <time>2025-10-20T19:23:54.364Z</time>
      </trkpt>
      <trkpt lat="46.20984" lon="-0.5927">
        <ele>27.44</ele>
        <time>2025-10-20T19:23:58.980Z</time>
      </trkpt>
      <trkpt lat="46.21002" lon="-0.59305">
        <ele>27.58</ele>
        <time>2025-10-20T19:24:03.602Z</time>
      </trkpt>
      <trkpt lat="46.2102" lon="-0.59341">
        <ele>27.73</ele>
        <time>2025-10-20T19:24:08.230Z</time>
      </trkpt>
      <trkpt lat="46.21038" lon="-0.59377">
        <ele>27.95</ele>
        <time>2025-10-20T19:24:12.864Z</time>
      </trkpt>
      <trkpt lat="46.21056" lon="-0.59412">
        <ele>28.2</ele>
        <time>2025-10-20T19:24:17.504Z</time>
      </trkpt>
      <trkpt lat="46.21072" lon="-0.59448">
        <ele>28.62</ele>
        <time>2025-10-20T19:24:22.150Z</time>
      </trkpt>
      <trkpt lat="46.21088" lon="-0.59483">
        <ele>29.09</ele>
        <time>2025-10-20T19:24:26.802Z</time>
      </trkpt>
      <trkpt lat="46.21105" lon="-0.59519">
        <ele>29.5</ele>
        <time>2025-10-20T19:24:31.460Z</time>
      </trkpt>
      <trkpt lat="46.21121" lon="-0.59555">
        <ele>29.99</ele>
        <time>2025-10-20T19:24:36.124Z</time>
      </trkpt>
      <trkpt lat="46.21137" lon="-0.5959">
        <ele>30.57</ele>
        <time>2025-10-20T19:24:40.794Z</time>
      </trkpt>
      <trkpt lat="46.21155" lon="-0.59561">
        <ele>31.22</ele>
        <time>2025-10-20T19:24:45.469Z</time>
      </trkpt>
      <trkpt lat="46.21173" lon="-0.59532">
        <ele>31.87</ele>
        <time>2025-10-20T19:24:50.149Z</time>
      </trkpt>
      <trkpt lat="46.21191" lon="-0.59503">
        <ele>32.52</ele>
        <time>2025-10-20T19:24:54.835Z</time>
      </trkpt>
      <trkpt lat="46.21209" lon="-0.59474">
        <ele>33.15</ele>
        <time>2025-10-20T19:24:59.526Z</time>
      </trkpt>
      <trkpt lat="46.21227" lon="-0.59445">
        <ele>33.83</ele>
        <time>2025-10-20T19:25:04.222Z</time>
      </trkpt>
      <trkpt lat="46.21244" lon="-0.59416">
        <ele>34.46</ele>
        <time>2025-10-20T19:25:08.924Z</time>
      </trkpt>
      <trkpt lat="46.2126" lon="-0.59439">
        <ele>34.97</ele>
        <time>2025-10-20T19:25:13.630Z</time>
      </trkpt>
      <trkpt lat="46.21273" lon="-0.59458">
        <ele>35.45</ele>
        <time>2025-10-20T19:25:18.340Z</time>
      </trkpt>
      <trkpt lat="46.21285" lon="-0.59476">
        <ele>35.9</ele>
        <time>2025-10-20T19:25:23.053Z</time>
      </trkpt>
      <trkpt lat="46.21303" lon="-0.59511">
        <ele>36.28</ele>
        <time>2025-10-20T19:25:27.772Z</time>
      </trkpt>
      <trkpt lat="46.21321" lon="-0.59545">
        <ele>36.64</ele>
        <time>2025-10-20T19:25:32.497Z</time>
      </trkpt>
      <trkpt lat="46.21339" lon="-0.59579">
        <ele>36.96</ele>
        <time>2025-10-20T19:25:37.228Z</time>
      </trkpt>
      <trkpt lat="46.21358" lon="-0.59612">
        <ele>37.25</ele>
        <time>2025-10-20T19:25:41.965Z</time>
      </trkpt>
      <trkpt lat="46.21378" lon="-0.59644">
        <ele>37.45</ele>
        <time>2025-10-20T19:25:46.708Z</time>
      </trkpt>
      <trkpt lat="46.21397" lon="-0.59676">
        <ele>37.55</ele>
        <time>2025-10-20T19:25:51.457Z</time>
      </trkpt>
      <trkpt lat="46.21416" lon="-0.59701">
        <ele>37.67</ele>
        <time>2025-10-20T19:25:56.211Z</time>
      </trkpt>
      <trkpt lat="46.21435" lon="-0.59725">
        <ele>37.7</ele>
        <time>2025-10-20T19:26:00.970Z</time>
      </trkpt>
      <trkpt lat="46.21455" lon="-0.5975">
        <ele>37.71</ele>
        <time>2025-10-20T19:26:05.735Z</time>
      </trkpt>
      <trkpt lat="46.21474" lon="-0.59775">
        <ele>37.67</ele>
        <time>2025-10-20T19:26:10.505Z</time>
      </trkpt>
      <trkpt lat="46.21493" lon="-0.59794">
        <ele>37.61</ele>
        <time>2025-10-20T19:26:15.279Z</time>
      </trkpt>
      <trkpt lat="46.21511" lon="-0.59813">
        <ele>37.49</ele>
        <time>2025-10-20T19:26:20.058Z</time>
      </trkpt>
      <trkpt lat="46.2153" lon="-0.59833">
        <ele>37.25</ele>
        <time>2025-10-20T19:26:24.842Z</time>
      </trkpt>
      <trkpt lat="46.21546" lon="-0.59869">
        <ele>36.83</ele>
        <time>2025-10-20T19:26:29.632Z</time>
      </trkpt>
      <trkpt lat="46.21562" lon="-0.59906">
        <ele>36.49</ele>
        <time>2025-10-20T19:26:34.428Z</time>
      </trkpt>
      <trkpt lat="46.21584" lon="-0.59888">
        <ele>36.18</ele>
        <time>2025-10-20T19:26:39.229Z</time>
      </trkpt>
      <trkpt lat="46.21602" lon="-0.59874">
        <ele>35.86</ele>
        <time>2025-10-20T19:26:44.034Z</time>
      </trkpt>
      <trkpt lat="46.2162" lon="-0.59861">
        <ele>35.54</ele>
        <time>2025-10-20T19:26:48.843Z</time>
      </trkpt>
      <trkpt lat="46.21649" lon="-0.59851">
        <ele>35.18</ele>
        <time>2025-10-20T19:26:53.658Z</time>
      </trkpt>
      <trkpt lat="46.21678" lon="-0.59842">
        <ele>34.75</ele>
        <time>2025-10-20T19:26:58.479Z</time>
      </trkpt>
      <trkpt lat="46.21707" lon="-0.59833">
        <ele>34.24</ele>
        <time>2025-10-20T19:27:03.305Z</time>
      </trkpt>
      <trkpt lat="46.21736" lon="-0.59824">
        <ele>33.62</ele>
        <time>2025-10-20T19:27:08.137Z</time>
      </trkpt>
      <trkpt lat="46.21766" lon="-0.59815">
        <ele>33</ele>
        <time>2025-10-20T19:27:12.976Z</time>
      </trkpt>
      <trkpt lat="46.21766" lon="-0.59815">
        <ele>32.45</ele>
        <time>2025-10-20T19:27:17.815Z</time>
      </trkpt>
      <trkpt lat="46.21794" lon="-0.59807">
        <ele>31.88</ele>
        <time>2025-10-20T19:27:22.659Z</time>
      </trkpt>
      <trkpt lat="46.21823" lon="-0.59799">
        <ele>31.26</ele>
        <time>2025-10-20T19:27:27.509Z</time>
      </trkpt>
      <trkpt lat="46.21851" lon="-0.59791">
        <ele>30.54</ele>
        <time>2025-10-20T19:27:32.365Z</time>
      </trkpt>
      <trkpt lat="46.21879" lon="-0.59783">
        <ele>29.9</ele>
        <time>2025-10-20T19:27:37.227Z</time>
      </trkpt>
      <trkpt lat="46.21908" lon="-0.59775">
        <ele>29.34</ele>
        <time>2025-10-20T19:27:42.094Z</time>
      </trkpt>
      <trkpt lat="46.21931" lon="-0.59785">
        <ele>28.71</ele>
        <time>2025-10-20T19:27:46.966Z</time>
      </trkpt>
      <trkpt lat="46.21959" lon="-0.5978">
        <ele>28.14</ele>
        <time>2025-10-20T19:27:51.844Z</time>
      </trkpt>
      <trkpt lat="46.21987" lon="-0.59775">
        <ele>27.6</ele>
        <time>2025-10-20T19:27:56.728Z</time>
      </trkpt>
      <trkpt lat="46.22015" lon="-0.5977">
        <ele>27.04</ele>
        <time>2025-10-20T19:28:01.617Z</time>
      </trkpt>
      <trkpt lat="46.22028" lon="-0.59783">
        <ele>26.53</ele>
        <time>2025-10-20T19:28:06.509Z</time>
      </trkpt>
      <trkpt lat="46.22034" lon="-0.5979">
        <ele>26.01</ele>
        <time>2025-10-20T19:28:11.403Z</time>
      </trkpt>
      <trkpt lat="46.22056" lon="-0.59814">
        <ele>25.51</ele>
        <time>2025-10-20T19:28:16.303Z</time>
      </trkpt>
      <trkpt lat="46.22078" lon="-0.59838">
        <ele>24.98</ele>
        <time>2025-10-20T19:28:21.208Z</time>
      </trkpt>
      <trkpt lat="46.22101" lon="-0.59863">
        <ele>24.42</ele>
        <time>2025-10-20T19:28:26.119Z</time>
      </trkpt>
      <trkpt lat="46.22111" lon="-0.59871">
        <ele>23.93</ele>
        <time>2025-10-20T19:28:31.032Z</time>
      </trkpt>
      <trkpt lat="46.22118" lon="-0.59869">
        <ele>23.49</ele>
        <time>2025-10-20T19:28:35.946Z</time>
      </trkpt>
      <trkpt lat="46.22125" lon="-0.59891">
        <ele>23.01</ele>
        <time>2025-10-20T19:28:40.864Z</time>
      </trkpt>
      <trkpt lat="46.22133" lon="-0.59912">
        <ele>22.59</ele>
        <time>2025-10-20T19:28:45.785Z</time>
      </trkpt>
      <trkpt lat="46.22116" lon="-0.59938">
        <ele>22.28</ele>
        <time>2025-10-20T19:28:50.711Z</time>
      </trkpt>
      <trkpt lat="46.22114" lon="-0.59941">
        <ele>21.91</ele>
        <time>2025-10-20T19:28:55.638Z</time>
      </trkpt>
      <trkpt lat="46.22103" lon="-0.59968">
        <ele>21.6</ele>
        <time>2025-10-20T19:29:00.569Z</time>
      </trkpt>
      <trkpt lat="46.22094" lon="-0.60003">
        <ele>21.2</ele>
        <time>2025-10-20T19:29:05.505Z</time>
      </trkpt>
      <trkpt lat="46.22086" lon="-0.60039">
        <ele>20.82</ele>
        <time>2025-10-20T19:29:10.446Z</time>
      </trkpt>
      <trkpt lat="46.22085" lon="-0.60064">
        <ele>20.4</ele>
        <time>2025-10-20T19:29:15.391Z</time>
      </trkpt>
      <trkpt lat="46.22083" lon="-0.6009">
        <ele>20</ele>
        <time>2025-10-20T19:29:20.340Z</time>
      </trkpt>
      <trkpt lat="46.22083" lon="-0.60092">
        <ele>19.68</ele>
        <time>2025-10-20T19:29:25.289Z</time>
      </trkpt>
      <trkpt lat="46.22088" lon="-0.60109">
        <ele>19.32</ele>
        <time>2025-10-20T19:29:30.240Z</time>
      </trkpt>
      <trkpt lat="46.22088" lon="-0.60127">
        <ele>18.97</ele>
        <time>2025-10-20T19:29:35.194Z</time>
      </trkpt>
      <trkpt lat="46.22101" lon="-0.60165">
        <ele>18.63</ele>
        <time>2025-10-20T19:29:40.154Z</time>
      </trkpt>
      <trkpt lat="46.22118" lon="-0.60203">
        <ele>18.36</ele>
        <time>2025-10-20T19:29:45.120Z</time>
      </trkpt>
      <trkpt lat="46.22135" lon="-0.6024">
        <ele>18.11</ele>
        <time>2025-10-20T19:29:50.092Z</time>
      </trkpt>
      <trkpt lat="46.22152" lon="-0.60278">
        <ele>17.89</ele>
        <time>2025-10-20T19:29:55.071Z</time>
      </trkpt>
      <trkpt lat="46.22169" lon="-0.60315">
        <ele>17.75</ele>
        <time>2025-10-20T19:30:00.056Z</time>
      </trkpt>
      <trkpt lat="46.2218" lon="-0.60339">
        <ele>17.6</ele>
        <time>2025-10-20T19:30:05.045Z</time>
      </trkpt>
      <trkpt lat="46.22191" lon="-0.60363">
        <ele>17.44</ele>
        <time>2025-10-20T19:30:10.038Z</time>
      </trkpt>
      <trkpt lat="46.22204" lon="-0.60393">
        <ele>17.18</ele>
        <time>2025-10-20T19:30:15.036Z</time>
      </trkpt>
      <trkpt lat="46.22218" lon="-0.60424">
        <ele>16.85</ele>
        <time>2025-10-20T19:30:20.039Z</time>
      </trkpt>
      <trkpt lat="46.22231" lon="-0.60455">
        <ele>16.65</ele>
        <time>2025-10-20T19:30:25.047Z</time>
      </trkpt>
      <trkpt lat="46.22244" lon="-0.60485">
        <ele>16.53</ele>
        <time>2025-10-20T19:30:30.060Z</time>
      </trkpt>
      <trkpt lat="46.22257" lon="-0.60521">
        <ele>16.34</ele>
        <time>2025-10-20T19:30:35.078Z</time>
      </trkpt>
      <trkpt lat="46.22269" lon="-0.60557">
        <ele>16.16</ele>
        <time>2025-10-20T19:30:40.102Z</time>
      </trkpt>
      <trkpt lat="46.22281" lon="-0.60592">
        <ele>15.85</ele>
        <time>2025-10-20T19:30:45.131Z</time>
      </trkpt>
      <trkpt lat="46.22292" lon="-0.60624">
        <ele>15.51</ele>
        <time>2025-10-20T19:30:50.165Z</time>
      </trkpt>
      <trkpt lat="46.22304" lon="-0.60655">
        <ele>15.3</ele>
        <time>2025-10-20T19:30:55.204Z</time>
      </trkpt>
      <trkpt lat="46.22315" lon="-0.60687">
        <ele>15.14</ele>
        <time>2025-10-20T19:31:00.248Z</time>
      </trkpt>
      <trkpt lat="46.22329" lon="-0.60718">
        <ele>14.99</ele>
        <time>2025-10-20T19:31:05.297Z</time>
      </trkpt>
      <trkpt lat="46.22342" lon="-0.6075">
        <ele>14.75</ele>
        <time>2025-10-20T19:31:10.351Z</time>
      </trkpt>
      <trkpt lat="46.22356" lon="-0.60781">
        <ele>14.59</ele>
        <time>2025-10-20T19:31:15.411Z</time>
      </trkpt>
      <trkpt lat="46.22364" lon="-0.60805">
        <ele>14.39</ele>
        <time>2025-10-20T19:31:20.474Z</time>
      </trkpt>
      <trkpt lat="46.22371" lon="-0.60828">
        <ele>14.25</ele>
        <time>2025-10-20T19:31:25.541Z</time>
      </trkpt>
      <trkpt lat="46.22377" lon="-0.60841">
        <ele>14.11</ele>
        <time>2025-10-20T19:31:30.610Z</time>
      </trkpt>
      <trkpt lat="46.22377" lon="-0.60841">
        <ele>14.03</ele>
        <time>2025-10-20T19:31:35.679Z</time>
      </trkpt>
      <trkpt lat="46.2239" lon="-0.60852">
        <ele>14.01</ele>
        <time>2025-10-20T19:31:40.751Z</time>
      </trkpt>
      <trkpt lat="46.22401" lon="-0.60854">
        <ele>13.98</ele>
        <time>2025-10-20T19:31:45.825Z</time>
      </trkpt>
      <trkpt lat="46.22424" lon="-0.60853">
        <ele>13.99</ele>
        <time>2025-10-20T19:31:50.904Z</time>
      </trkpt>
      <trkpt lat="46.22447" lon="-0.60852">
        <ele>14.01</ele>
        <time>2025-10-20T19:31:55.987Z</time>
      </trkpt>
      <trkpt lat="46.22473" lon="-0.60852">
        <ele>14.03</ele>
        <time>2025-10-20T19:32:01.076Z</time>
      </trkpt>
      <trkpt lat="46.22499" lon="-0.60851">
        <ele>14.04</ele>
        <time>2025-10-20T19:32:06.170Z</time>
      </trkpt>
      <trkpt lat="46.22526" lon="-0.6085">
        <ele>14.03</ele>
        <time>2025-10-20T19:32:11.269Z</time>
      </trkpt>
      <trkpt lat="46.2255" lon="-0.6085">
        <ele>14.09</ele>
        <time>2025-10-20T19:32:16.373Z</time>
      </trkpt>
      <trkpt lat="46.22574" lon="-0.60851">
        <ele>14.19</ele>
        <time>2025-10-20T19:32:21.482Z</time>
      </trkpt>
      <trkpt lat="46.22598" lon="-0.60851">
        <ele>14.24</ele>
        <time>2025-10-20T19:32:26.595Z</time>
      </trkpt>
      <trkpt lat="46.22622" lon="-0.60852">
        <ele>14.32</ele>
        <time>2025-10-20T19:32:31.713Z</time>
      </trkpt>
      <trkpt lat="46.22642" lon="-0.60856">
        <ele>14.37</ele>
        <time>2025-10-20T19:32:36.835Z</time>
      </trkpt>
      <trkpt lat="46.22663" lon="-0.6086">
        <ele>14.48</ele>
        <time>2025-10-20T19:32:41.962Z</time>
      </trkpt>
      <trkpt lat="46.22676" lon="-0.60869">
        <ele>14.63</ele>
        <time>2025-10-20T19:32:47.091Z</time>
      </trkpt>
      <trkpt lat="46.22701" lon="-0.60885">
        <ele>14.87</ele>
        <time>2025-10-20T19:32:52.226Z</time>
      </trkpt>
      <trkpt lat="46.22727" lon="-0.60901">
        <ele>15.06</ele>
        <time>2025-10-20T19:32:57.367Z</time>
      </trkpt>
      <trkpt lat="46.22753" lon="-0.60917">
        <ele>15.16</ele>
        <time>2025-10-20T19:33:02.513Z</time>
      </trkpt>
      <trkpt lat="46.22779" lon="-0.60933">
        <ele>15.18</ele>
        <time>2025-10-20T19:33:07.665Z</time>
      </trkpt>
      <trkpt lat="46.22804" lon="-0.60949">
        <ele>15.25</ele>
        <time>2025-10-20T19:33:12.822Z</time>
      </trkpt>
      <trkpt lat="46.2283" lon="-0.60965">
        <ele>15.28</ele>
        <time>2025-10-20T19:33:17.985Z</time>
      </trkpt>
      <trkpt lat="46.22856" lon="-0.60981">
        <ele>15.39</ele>
        <time>2025-10-20T19:33:23.154Z</time>
      </trkpt>
      <trkpt lat="46.22882" lon="-0.61002">
        <ele>15.37</ele>
        <time>2025-10-20T19:33:28.329Z</time>
      </trkpt>
      <trkpt lat="46.2289" lon="-0.61011">
        <ele>15.38</ele>
        <time>2025-10-20T19:33:33.506Z</time>
      </trkpt>
      <trkpt lat="46.22897" lon="-0.61021">
        <ele>15.37</ele>
        <time>2025-10-20T19:33:38.685Z</time>
      </trkpt>
      <trkpt lat="46.22899" lon="-0.61024">
        <ele>15.37</ele>
        <time>2025-10-20T19:33:43.864Z</time>
      </trkpt>
      <trkpt lat="46.22905" lon="-0.61004">
        <ele>15.4</ele>
        <time>2025-10-20T19:33:49.046Z</time>
      </trkpt>
      <trkpt lat="46.22913" lon="-0.60981">
        <ele>15.43</ele>
        <time>2025-10-20T19:33:54.232Z</time>
      </trkpt>
      <trkpt lat="46.2292" lon="-0.60959">
        <ele>15.4</ele>
        <time>2025-10-20T19:33:59.421Z</time>
      </trkpt>
      <trkpt lat="46.22929" lon="-0.6092">
        <ele>15.35</ele>
        <time>2025-10-20T19:34:04.616Z</time>
      </trkpt>
      <trkpt lat="46.22937" lon="-0.60882">
        <ele>15.25</ele>
        <time>2025-10-20T19:34:09.816Z</time>
      </trkpt>
      <trkpt lat="46.22957" lon="-0.60861">
        <ele>15.09</ele>
        <time>2025-10-20T19:34:15.021Z</time>
      </trkpt>
      <trkpt lat="46.22976" lon="-0.6084">
        <ele>15.02</ele>
        <time>2025-10-20T19:34:20.231Z</time>
      </trkpt>
      <trkpt lat="46.22995" lon="-0.6082">
        <ele>14.92</ele>
        <time>2025-10-20T19:34:25.446Z</time>
      </trkpt>
      <trkpt lat="46.22989" lon="-0.60807">
        <ele>14.8</ele>
        <time>2025-10-20T19:34:30.663Z</time>
      </trkpt>
      <trkpt lat="46.22974" lon="-0.60824">
        <ele>14.67</ele>
        <time>2025-10-20T19:34:35.884Z</time>
      </trkpt>
      <trkpt lat="46.22972" lon="-0.60824">
        <ele>14.54</ele>
        <time>2025-10-20T19:34:41.105Z</time>
      </trkpt>
      <trkpt lat="46.22957" lon="-0.60814">
        <ele>14.4</ele>
        <time>2025-10-20T19:34:46.330Z</time>
      </trkpt>
      <trkpt lat="46.22942" lon="-0.60805">
        <ele>14.25</ele>
        <time>2025-10-20T19:34:51.558Z</time>
      </trkpt>
      <trkpt lat="46.22935" lon="-0.608">
        <ele>14.11</ele>
        <time>2025-10-20T19:34:56.787Z</time>
      </trkpt>
      <trkpt lat="46.22931" lon="-0.60787">
        <ele>13.97</ele>
        <time>2025-10-20T19:35:02.018Z</time>
      </trkpt>
      <trkpt lat="46.22935" lon="-0.60747">
        <ele>13.74</ele>
        <time>2025-10-20T19:35:07.255Z</time>
      </trkpt>
      <trkpt lat="46.22938" lon="-0.60706">
        <ele>13.51</ele>
        <time>2025-10-20T19:35:12.498Z</time>
      </trkpt>
      <trkpt lat="46.22942" lon="-0.60665">
        <ele>13.31</ele>
        <time>2025-10-20T19:35:17.746Z</time>
      </trkpt>
      <trkpt lat="46.22942" lon="-0.60624">
        <ele>13.24</ele>
        <time>2025-10-20T19:35:23.000Z</time>
      </trkpt>
      <trkpt lat="46.22943" lon="-0.60582">
        <ele>13.29</ele>
        <time>2025-10-20T19:35:28.260Z</time>
      </trkpt>
      <trkpt lat="46.22944" lon="-0.60541">
        <ele>13.21</ele>
        <time>2025-10-20T19:35:33.526Z</time>
      </trkpt>
      <trkpt lat="46.22942" lon="-0.60519">
        <ele>13.15</ele>
        <time>2025-10-20T19:35:38.795Z</time>
      </trkpt>
      <trkpt lat="46.22937" lon="-0.60504">
        <ele>13.08</ele>
        <time>2025-10-20T19:35:44.066Z</time>
      </trkpt>
      <trkpt lat="46.22937" lon="-0.60489">
        <ele>13.05</ele>
        <time>2025-10-20T19:35:49.339Z</time>
      </trkpt>
      <trkpt lat="46.22944" lon="-0.60472">
        <ele>13.04</ele>
        <time>2025-10-20T19:35:54.615Z</time>
      </trkpt>
      <trkpt lat="46.22955" lon="-0.60457">
        <ele>13.03</ele>
        <time>2025-10-20T19:35:59.894Z</time>
      </trkpt>
      <trkpt lat="46.22948" lon="-0.60455">
        <ele>13.08</ele>
        <time>2025-10-20T19:36:05.174Z</time>
      </trkpt>
      <trkpt lat="46.2294" lon="-0.60446">
        <ele>13.15</ele>
        <time>2025-10-20T19:36:10.456Z</time>
      </trkpt>
      <trkpt lat="46.22918" lon="-0.60429">
        <ele>13.31</ele>
        <time>2025-10-20T19:36:15.743Z</time>
      </trkpt>
      <trkpt lat="46.22897" lon="-0.60421">
        <ele>13.4</ele>
        <time>2025-10-20T19:36:21.034Z</time>
      </trkpt>
      <trkpt lat="46.22897" lon="-0.60392">
        <ele>13.49</ele>
        <time>2025-10-20T19:36:26.330Z</time>
      </trkpt>
      <trkpt lat="46.22897" lon="-0.60363">
        <ele>13.56</ele>
        <time>2025-10-20T19:36:31.630Z</time>
      </trkpt>
      <trkpt lat="46.22897" lon="-0.60359">
        <ele>13.66</ele>
        <time>2025-10-20T19:36:36.930Z</time>
      </trkpt>
      <trkpt lat="46.22897" lon="-0.60359">
        <ele>13.78</ele>
        <time>2025-10-20T19:36:42.230Z</time>
      </trkpt>
      <trkpt lat="46.22901" lon="-0.60334">
        <ele>13.88</ele>
        <time>2025-10-20T19:36:47.534Z</time>
      </trkpt>
      <trkpt lat="46.22905" lon="-0.60309">
        <ele>14.02</ele>
        <time>2025-10-20T19:36:52.841Z</time>
      </trkpt>
      <trkpt lat="46.22913" lon="-0.60283">
        <ele>14.15</ele>
        <time>2025-10-20T19:36:58.152Z</time>
      </trkpt>
      <trkpt lat="46.2292" lon="-0.60257">
        <ele>14.27</ele>
        <time>2025-10-20T19:37:03.467Z</time>
      </trkpt>
      <trkpt lat="46.22933" lon="-0.60225">
        <ele>14.37</ele>
        <time>2025-10-20T19:37:08.787Z</time>
      </trkpt>
      <trkpt lat="46.22946" lon="-0.60193">
        <ele>14.53</ele>
        <time>2025-10-20T19:37:14.112Z</time>
      </trkpt>
      <trkpt lat="46.22963" lon="-0.60165">
        <ele>14.77</ele>
        <time>2025-10-20T19:37:19.442Z</time>
      </trkpt>
      <trkpt lat="46.22974" lon="-0.60157">
        <ele>14.91</ele>
        <time>2025-10-20T19:37:24.775Z</time>
      </trkpt>
      <trkpt lat="46.22998" lon="-0.60153">
        <ele>15.09</ele>
        <time>2025-10-20T19:37:30.113Z</time>
      </trkpt>
      <trkpt lat="46.23021" lon="-0.6015">
        <ele>15.28</ele>
        <time>2025-10-20T19:37:35.455Z</time>
      </trkpt>
      <trkpt lat="46.23034" lon="-0.60142">
        <ele>15.39</ele>
        <time>2025-10-20T19:37:40.800Z</time>
      </trkpt>
      <trkpt lat="46.23043" lon="-0.6012">
        <ele>15.41</ele>
        <time>2025-10-20T19:37:46.149Z</time>
      </trkpt>
      <trkpt lat="46.23053" lon="-0.6009">
        <ele>15.41</ele>
        <time>2025-10-20T19:37:51.502Z</time>
      </trkpt>
      <trkpt lat="46.23063" lon="-0.6006">
        <ele>15.39</ele>
        <time>2025-10-20T19:37:56.860Z</time>
      </trkpt>
      <trkpt lat="46.23073" lon="-0.6003">
        <ele>15.37</ele>
        <time>2025-10-20T19:38:02.223Z</time>
      </trkpt>
      <trkpt lat="46.23101" lon="-0.60049">
        <ele>15.5</ele>
        <time>2025-10-20T19:38:07.592Z</time>
      </trkpt>
      <trkpt lat="46.23111" lon="-0.60058">
        <ele>15.56</ele>
        <time>2025-10-20T19:38:12.963Z</time>
      </trkpt>
      <trkpt lat="46.23113" lon="-0.6006">
        <ele>15.59</ele>
        <time>2025-10-20T19:38:18.335Z</time>
      </trkpt>
      <trkpt lat="46.2312" lon="-0.60062">
        <ele>15.62</ele>
        <time>2025-10-20T19:38:23.708Z</time>
      </trkpt>
      <trkpt lat="46.23135" lon="-0.60056">
        <ele>15.63</ele>
        <time>2025-10-20T19:38:29.084Z</time>
      </trkpt>
      <trkpt lat="46.23141" lon="-0.60054">
        <ele>15.64</ele>
        <time>2025-10-20T19:38:34.461Z</time>
      </trkpt>
      <trkpt lat="46.2317" lon="-0.60054">
        <ele>15.63</ele>
        <time>2025-10-20T19:38:39.844Z</time>
      </trkpt>
      <trkpt lat="46.23199" lon="-0.60054">
        <ele>15.66</ele>
        <time>2025-10-20T19:38:45.233Z</time>
      </trkpt>
      <trkpt lat="46.2321" lon="-0.60058">
        <ele>15.73</ele>
        <time>2025-10-20T19:38:50.624Z</time>
      </trkpt>
      <trkpt lat="46.23219" lon="-0.60054">
        <ele>15.8</ele>
        <time>2025-10-20T19:38:56.017Z</time>
      </trkpt>
      <trkpt lat="46.23227" lon="-0.60021">
        <ele>15.93</ele>
        <time>2025-10-20T19:39:01.415Z</time>
      </trkpt>
      <trkpt lat="46.23226" lon="-0.59985">
        <ele>16</ele>
        <time>2025-10-20T19:39:06.818Z</time>
      </trkpt>
      <trkpt lat="46.23226" lon="-0.59948">
        <ele>16.08</ele>
        <time>2025-10-20T19:39:12.226Z</time>
      </trkpt>
      <trkpt lat="46.23225" lon="-0.59912">
        <ele>16.2</ele>
        <time>2025-10-20T19:39:17.639Z</time>
      </trkpt>
      <trkpt lat="46.23221" lon="-0.5988">
        <ele>16.26</ele>
        <time>2025-10-20T19:39:23.057Z</time>
      </trkpt>
      <trkpt lat="46.23231" lon="-0.59854">
        <ele>16.37</ele>
        <time>2025-10-20T19:39:28.479Z</time>
      </trkpt>
      <trkpt lat="46.23242" lon="-0.59828">
        <ele>16.5</ele>
        <time>2025-10-20T19:39:33.905Z</time>
      </trkpt>
      <trkpt lat="46.23249" lon="-0.59824">
        <ele>16.67</ele>
        <time>2025-10-20T19:39:39.332Z</time>
      </trkpt>
      <trkpt lat="46.23271" lon="-0.59823">
        <ele>16.84</ele>
        <time>2025-10-20T19:39:44.764Z</time>
      </trkpt>
      <trkpt lat="46.23294" lon="-0.59823">
        <ele>17.07</ele>
        <time>2025-10-20T19:39:50.201Z</time>
      </trkpt>
      <trkpt lat="46.23317" lon="-0.59822">
        <ele>17.25</ele>
        <time>2025-10-20T19:39:55.642Z</time>
      </trkpt>
      <trkpt lat="46.23322" lon="-0.5982">
        <ele>17.41</ele>
        <time>2025-10-20T19:40:01.084Z</time>
      </trkpt>
      <trkpt lat="46.23326" lon="-0.59803">
        <ele>17.61</ele>
        <time>2025-10-20T19:40:06.529Z</time>
      </trkpt>
      <trkpt lat="46.23326" lon="-0.59768">
        <ele>17.87</ele>
        <time>2025-10-20T19:40:11.978Z</time>
      </trkpt>
      <trkpt lat="46.23325" lon="-0.59734">
        <ele>17.93</ele>
        <time>2025-10-20T19:40:17.432Z</time>
      </trkpt>
      <trkpt lat="46.23325" lon="-0.59734">
        <ele>17.96</ele>
        <time>2025-10-20T19:40:22.886Z</time>
      </trkpt>
      <trkpt lat="46.23325" lon="-0.59698">
        <ele>17.88</ele>
        <time>2025-10-20T19:40:28.345Z</time>
      </trkpt>
      <trkpt lat="46.23324" lon="-0.59661">
        <ele>17.71</ele>
        <time>2025-10-20T19:40:33.809Z</time>
      </trkpt>
      <trkpt lat="46.23324" lon="-0.59624">
        <ele>17.58</ele>
        <time>2025-10-20T19:40:39.278Z</time>
      </trkpt>
      <trkpt lat="46.23324" lon="-0.59588">
        <ele>17.42</ele>
        <time>2025-10-20T19:40:44.752Z</time>
      </trkpt>
      <trkpt lat="46.23317" lon="-0.59563">
        <ele>17.34</ele>
        <time>2025-10-20T19:40:50.230Z</time>
      </trkpt>
      <trkpt lat="46.23311" lon="-0.59539">
        <ele>17.28</ele>
        <time>2025-10-20T19:40:55.712Z</time>
      </trkpt>
      <trkpt lat="46.23306" lon="-0.59497">
        <ele>17.32</ele>
        <time>2025-10-20T19:41:01.200Z</time>
      </trkpt>
      <trkpt lat="46.23301" lon="-0.59455">
        <ele>17.22</ele>
        <time>2025-10-20T19:41:06.693Z</time>
      </trkpt>
      <trkpt lat="46.23296" lon="-0.59414">
        <ele>17.04</ele>
        <time>2025-10-20T19:41:12.192Z</time>
      </trkpt>
      <trkpt lat="46.23281" lon="-0.59401">
        <ele>16.79</ele>
        <time>2025-10-20T19:41:17.695Z</time>
      </trkpt>
      <trkpt lat="46.23266" lon="-0.59388">
        <ele>16.57</ele>
        <time>2025-10-20T19:41:23.201Z</time>
      </trkpt>
      <trkpt lat="46.23255" lon="-0.59382">
        <ele>16.33</ele>
        <time>2025-10-20T19:41:28.710Z</time>
      </trkpt>
      <trkpt lat="46.23236" lon="-0.59371">
        <ele>16.05</ele>
        <time>2025-10-20T19:41:34.223Z</time>
      </trkpt>
      <trkpt lat="46.23215" lon="-0.59376">
        <ele>15.87</ele>
        <time>2025-10-20T19:41:39.740Z</time>
      </trkpt>
      <trkpt lat="46.23195" lon="-0.5938">
        <ele>15.74</ele>
        <time>2025-10-20T19:41:45.261Z</time>
      </trkpt>
      <trkpt lat="46.23195" lon="-0.59349">
        <ele>15.62</ele>
        <time>2025-10-20T19:41:50.786Z</time>
      </trkpt>
      <trkpt lat="46.23195" lon="-0.59335">
        <ele>15.51</ele>
        <time>2025-10-20T19:41:56.313Z</time>
      </trkpt>
      <trkpt lat="46.23189" lon="-0.5931">
        <ele>15.41</ele>
        <time>2025-10-20T19:42:01.844Z</time>
      </trkpt>
      <trkpt lat="46.23182" lon="-0.59285">
        <ele>15.3</ele>
        <time>2025-10-20T19:42:07.379Z</time>
      </trkpt>
      <trkpt lat="46.23171" lon="-0.59257">
        <ele>15.17</ele>
        <time>2025-10-20T19:42:12.918Z</time>
      </trkpt>
      <trkpt lat="46.23161" lon="-0.5923">
        <ele>15.11</ele>
        <time>2025-10-20T19:42:18.461Z</time>
      </trkpt>
      <trkpt lat="46.2315" lon="-0.59202">
        <ele>15.04</ele>
        <time>2025-10-20T19:42:24.009Z</time>
      </trkpt>
      <trkpt lat="46.23136" lon="-0.59171">
        <ele>15.07</ele>
        <time>2025-10-20T19:42:29.562Z</time>
      </trkpt>
      <trkpt lat="46.23121" lon="-0.5914">
        <ele>14.99</ele>
        <time>2025-10-20T19:42:35.120Z</time>
      </trkpt>
      <trkpt lat="46.23107" lon="-0.59109">
        <ele>14.89</ele>
        <time>2025-10-20T19:42:40.683Z</time>
      </trkpt>
      <trkpt lat="46.23096" lon="-0.59073">
        <ele>14.85</ele>
        <time>2025-10-20T19:42:46.252Z</time>
      </trkpt>
      <trkpt lat="46.2309" lon="-0.59031">
        <ele>14.76</ele>
        <time>2025-10-20T19:42:51.827Z</time>
      </trkpt>
      <trkpt lat="46.23083" lon="-0.58988">
        <ele>14.66</ele>
        <time>2025-10-20T19:42:57.408Z</time>
      </trkpt>
      <trkpt lat="46.23077" lon="-0.58946">
        <ele>14.6</ele>
        <time>2025-10-20T19:43:02.995Z</time>
      </trkpt>
      <trkpt lat="46.23075" lon="-0.58911">
        <ele>14.58</ele>
        <time>2025-10-20T19:43:08.587Z</time>
      </trkpt>
      <trkpt lat="46.23073" lon="-0.58876">
        <ele>14.55</ele>
        <time>2025-10-20T19:43:14.184Z</time>
      </trkpt>
      <trkpt lat="46.23071" lon="-0.58841">
        <ele>14.51</ele>
        <time>2025-10-20T19:43:19.785Z</time>
      </trkpt>
      <trkpt lat="46.23066" lon="-0.58826">
        <ele>14.51</ele>
        <time>2025-10-20T19:43:25.389Z</time>
      </trkpt>
      <trkpt lat="46.23068" lon="-0.58809">
        <ele>14.5</ele>
        <time>2025-10-20T19:43:30.995Z</time>
      </trkpt>
      <trkpt lat="46.23087" lon="-0.58801">
        <ele>14.5</ele>
        <time>2025-10-20T19:43:36.605Z</time>
      </trkpt>
      <trkpt lat="46.23106" lon="-0.58793">
        <ele>14.52</ele>
        <time>2025-10-20T19:43:42.219Z</time>
      </trkpt>
      <trkpt lat="46.23134" lon="-0.58781">
        <ele>14.5</ele>
        <time>2025-10-20T19:43:47.839Z</time>
      </trkpt>
      <trkpt lat="46.23161" lon="-0.58769">
        <ele>14.56</ele>
        <time>2025-10-20T19:43:53.464Z</time>
      </trkpt>
      <trkpt lat="46.23188" lon="-0.58757">
        <ele>14.63</ele>
        <time>2025-10-20T19:43:59.095Z</time>
      </trkpt>
      <trkpt lat="46.23215" lon="-0.58746">
        <ele>14.78</ele>
        <time>2025-10-20T19:44:04.732Z</time>
      </trkpt>
      <trkpt lat="46.23242" lon="-0.58734">
        <ele>14.93</ele>
        <time>2025-10-20T19:44:10.374Z</time>
      </trkpt>
      <trkpt lat="46.23265" lon="-0.58721">
        <ele>15.09</ele>
        <time>2025-10-20T19:44:16.021Z</time>
      </trkpt>
      <trkpt lat="46.23287" lon="-0.58708">
        <ele>15.22</ele>
        <time>2025-10-20T19:44:21.673Z</time>
      </trkpt>
      <trkpt lat="46.2331" lon="-0.58695">
        <ele>15.4</ele>
        <time>2025-10-20T19:44:27.330Z</time>
      </trkpt>
      <trkpt lat="46.23332" lon="-0.58682">
        <ele>15.63</ele>
        <time>2025-10-20T19:44:32.992Z</time>
      </trkpt>
      <trkpt lat="46.23332" lon="-0.58682">
        <ele>15.83</ele>
        <time>2025-10-20T19:44:38.654Z</time>
      </trkpt>
      <trkpt lat="46.23359" lon="-0.58664">
        <ele>16.03</ele>
        <time>2025-10-20T19:44:44.322Z</time>
      </trkpt>
      <trkpt lat="46.23378" lon="-0.5865">
        <ele>16.22</ele>
        <time>2025-10-20T19:44:49.994Z</time>
      </trkpt>
      <trkpt lat="46.23397" lon="-0.58637">
        <ele>16.4</ele>
        <time>2025-10-20T19:44:55.670Z</time>
      </trkpt>
      <trkpt lat="46.23418" lon="-0.58618">
        <ele>16.66</ele>
        <time>2025-10-20T19:45:01.351Z</time>
      </trkpt>
      <trkpt lat="46.2344" lon="-0.58599">
        <ele>16.99</ele>
        <time>2025-10-20T19:45:07.037Z</time>
      </trkpt>
      <trkpt lat="46.23461" lon="-0.58579">
        <ele>17.31</ele>
        <time>2025-10-20T19:45:12.728Z</time>
      </trkpt>
      <trkpt lat="46.23485" lon="-0.58552">
        <ele>17.48</ele>
        <time>2025-10-20T19:45:18.425Z</time>
      </trkpt>
      <trkpt lat="46.23508" lon="-0.58524">
        <ele>17.67</ele>
        <time>2025-10-20T19:45:24.129Z</time>
      </trkpt>
      <trkpt lat="46.23528" lon="-0.58495">
        <ele>17.87</ele>
        <time>2025-10-20T19:45:29.838Z</time>
      </trkpt>
      <trkpt lat="46.23547" lon="-0.58466">
        <ele>18</ele>
        <time>2025-10-20T19:45:35.553Z</time>
      </trkpt>
      <trkpt lat="46.23566" lon="-0.58457">
        <ele>17.96</ele>
        <time>2025-10-20T19:45:41.272Z</time>
      </trkpt>
      <trkpt lat="46.23597" lon="-0.58453">
        <ele>17.82</ele>
        <time>2025-10-20T19:45:46.997Z</time>
      </trkpt>
      <trkpt lat="46.23628" lon="-0.58448">
        <ele>17.68</ele>
        <time>2025-10-20T19:45:52.728Z</time>
      </trkpt>
      <trkpt lat="46.2366" lon="-0.58444">
        <ele>17.63</ele>
        <time>2025-10-20T19:45:58.465Z</time>
      </trkpt>
      <trkpt lat="46.23671" lon="-0.58442">
        <ele>17.49</ele>
        <time>2025-10-20T19:46:04.205Z</time>
      </trkpt>
      <trkpt lat="46.23663" lon="-0.58482">
        <ele>17.38</ele>
        <time>2025-10-20T19:46:09.951Z</time>
      </trkpt>
      <trkpt lat="46.23655" lon="-0.58521">
        <ele>17.18</ele>
        <time>2025-10-20T19:46:15.702Z</time>
      </trkpt>
      <trkpt lat="46.23647" lon="-0.5856">
        <ele>16.82</ele>
        <time>2025-10-20T19:46:21.459Z</time>
      </trkpt>
      <trkpt lat="46.23639" lon="-0.586">
        <ele>16.45</ele>
        <time>2025-10-20T19:46:27.222Z</time>
      </trkpt>
      <trkpt lat="46.23631" lon="-0.58639">
        <ele>16.14</ele>
        <time>2025-10-20T19:46:32.990Z</time>
      </trkpt>
      <trkpt lat="46.23623" lon="-0.58678">
        <ele>15.87</ele>
        <time>2025-10-20T19:46:38.764Z</time>
      </trkpt>
      <trkpt lat="46.23616" lon="-0.58717">
        <ele>15.61</ele>
        <time>2025-10-20T19:46:44.544Z</time>
      </trkpt>
      <trkpt lat="46.23612" lon="-0.58759">
        <ele>15.37</ele>
        <time>2025-10-20T19:46:50.329Z</time>
      </trkpt>
      <trkpt lat="46.23609" lon="-0.58801">
        <ele>15.06</ele>
        <time>2025-10-20T19:46:56.120Z</time>
      </trkpt>
      <trkpt lat="46.23609" lon="-0.58844">
        <ele>14.64</ele>
        <time>2025-10-20T19:47:01.917Z</time>
      </trkpt>
      <trkpt lat="46.2361" lon="-0.58887">
        <ele>14.27</ele>
        <time>2025-10-20T19:47:07.720Z</time>
      </trkpt>
      <trkpt lat="46.2361" lon="-0.5893">
        <ele>14.05</ele>
        <time>2025-10-20T19:47:13.529Z</time>
      </trkpt>
      <trkpt lat="46.2361" lon="-0.58973">
        <ele>13.93</ele>
        <time>2025-10-20T19:47:19.344Z</time>
      </trkpt>
      <trkpt lat="46.23611" lon="-0.59016">
        <ele>13.9</ele>
        <time>2025-10-20T19:47:25.165Z</time>
      </trkpt>
      <trkpt lat="46.23611" lon="-0.59059">
        <ele>13.74</ele>
        <time>2025-10-20T19:47:30.992Z</time>
      </trkpt>
      <trkpt lat="46.23611" lon="-0.59101">
        <ele>13.63</ele>
        <time>2025-10-20T19:47:36.825Z</time>
      </trkpt>
      <trkpt lat="46.2364" lon="-0.59101">
        <ele>13.61</ele>
        <time>2025-10-20T19:47:42.664Z</time>
      </trkpt>
      <trkpt lat="46.23668" lon="-0.591">
        <ele>13.71</ele>
        <time>2025-10-20T19:47:48.508Z</time>
      </trkpt>
      <trkpt lat="46.23697" lon="-0.591">
        <ele>13.76</ele>
        <time>2025-10-20T19:47:54.358Z</time>
      </trkpt>
      <trkpt lat="46.23725" lon="-0.591">
        <ele>13.76</ele>
        <time>2025-10-20T19:48:00.214Z</time>
      </trkpt>
      <trkpt lat="46.23749" lon="-0.59099">
        <ele>13.82</ele>
        <time>2025-10-20T19:48:06.075Z</time>
      </trkpt>
      <trkpt lat="46.23772" lon="-0.59099">
        <ele>13.9</ele>
        <time>2025-10-20T19:48:11.940Z</time>
      </trkpt>
      <trkpt lat="46.23796" lon="-0.59099">
        <ele>13.98</ele>
        <time>2025-10-20T19:48:17.810Z</time>
      </trkpt>
      <trkpt lat="46.23827" lon="-0.59099">
        <ele>14.07</ele>
        <time>2025-10-20T19:48:23.686Z</time>
      </trkpt>
      <trkpt lat="46.23859" lon="-0.591">
        <ele>14.27</ele>
        <time>2025-10-20T19:48:29.568Z</time>
      </trkpt>
      <trkpt lat="46.2389" lon="-0.591">
        <ele>14.43</ele>
        <time>2025-10-20T19:48:35.457Z</time>
      </trkpt>
      <trkpt lat="46.23922" lon="-0.59101">
        <ele>14.68</ele>
        <time>2025-10-20T19:48:41.352Z</time>
      </trkpt>
      <trkpt lat="46.23953" lon="-0.59101">
        <ele>14.91</ele>
        <time>2025-10-20T19:48:47.253Z</time>
      </trkpt>
      <trkpt lat="46.23985" lon="-0.59102">
        <ele>15.05</ele>
        <time>2025-10-20T19:48:53.161Z</time>
      </trkpt>
      <trkpt lat="46.24016" lon="-0.59102">
        <ele>15.08</ele>
        <time>2025-10-20T19:48:59.075Z</time>
      </trkpt>
      <trkpt lat="46.24047" lon="-0.59103">
        <ele>15.21</ele>
        <time>2025-10-20T19:49:04.995Z</time>
      </trkpt>
      <trkpt lat="46.24079" lon="-0.59103">
        <ele>15.48</ele>
        <time>2025-10-20T19:49:10.922Z</time>
      </trkpt>
      <trkpt lat="46.24079" lon="-0.59101">
        <ele>15.63</ele>
        <time>2025-10-20T19:49:16.849Z</time>
      </trkpt>
      <trkpt lat="46.241" lon="-0.59082">
        <ele>15.77</ele>
        <time>2025-10-20T19:49:22.781Z</time>
      </trkpt>
      <trkpt lat="46.24122" lon="-0.59062">
        <ele>15.86</ele>
        <time>2025-10-20T19:49:28.718Z</time>
      </trkpt>
      <trkpt lat="46.24133" lon="-0.59033">
        <ele>15.97</ele>
        <time>2025-10-20T19:49:34.660Z</time>
      </trkpt>
      <trkpt lat="46.24143" lon="-0.59004">
        <ele>16.09</ele>
        <time>2025-10-20T19:49:40.606Z</time>
      </trkpt>
      <trkpt lat="46.24143" lon="-0.59004">
        <ele>16.22</ele>
        <time>2025-10-20T19:49:46.552Z</time>
      </trkpt>
      <trkpt lat="46.24154" lon="-0.58978">
        <ele>16.34</ele>
        <time>2025-10-20T19:49:52.502Z</time>
      </trkpt>
      <trkpt lat="46.24164" lon="-0.58951">
        <ele>16.53</ele>
        <time>2025-10-20T19:49:58.457Z</time>
      </trkpt>
      <trkpt lat="46.24174" lon="-0.58924">
        <ele>16.74</ele>
        <time>2025-10-20T19:50:04.416Z</time>
      </trkpt>
      <trkpt lat="46.24183" lon="-0.58901">
        <ele>16.94</ele>
        <time>2025-10-20T19:50:10.379Z</time>
      </trkpt>
      <trkpt lat="46.24203" lon="-0.58917">
        <ele>17.04</ele>
        <time>2025-10-20T19:50:16.346Z</time>
      </trkpt>
      <trkpt lat="46.2419" lon="-0.58957">
        <ele>17.09</ele>
        <time>2025-10-20T19:50:22.319Z</time>
      </trkpt>
      <trkpt lat="46.24188" lon="-0.58955">
        <ele>17.23</ele>
        <time>2025-10-20T19:50:28.293Z</time>
      </trkpt>
      <trkpt lat="46.24182" lon="-0.58974">
        <ele>17.33</ele>
        <time>2025-10-20T19:50:34.270Z</time>
      </trkpt>
      <trkpt lat="46.24196" lon="-0.58978">
        <ele>17.5</ele>
        <time>2025-10-20T19:50:40.249Z</time>
      </trkpt>
      <trkpt lat="46.24203" lon="-0.58978">
        <ele>17.68</ele>
        <time>2025-10-20T19:50:46.230Z</time>
      </trkpt>
      <trkpt lat="46.24234" lon="-0.58971">
        <ele>17.93</ele>
        <time>2025-10-20T19:50:52.217Z</time>
      </trkpt>
      <trkpt lat="46.24245" lon="-0.58968">
        <ele>18.17</ele>
        <time>2025-10-20T19:50:58.206Z</time>
      </trkpt>
      <trkpt lat="46.24254" lon="-0.5897">
        <ele>18.42</ele>
        <time>2025-10-20T19:51:04.197Z</time>
      </trkpt>
      <trkpt lat="46.24262" lon="-0.58975">
        <ele>18.68</ele>
        <time>2025-10-20T19:51:10.190Z</time>
      </trkpt>
      <trkpt lat="46.24288" lon="-0.58999">
        <ele>18.97</ele>
        <time>2025-10-20T19:51:16.189Z</time>
      </trkpt>
      <trkpt lat="46.24311" lon="-0.59022">
        <ele>19.3</ele>
        <time>2025-10-20T19:51:22.194Z</time>
      </trkpt>
      <trkpt lat="46.24323" lon="-0.59027">
        <ele>19.67</ele>
        <time>2025-10-20T19:51:28.201Z</time>
      </trkpt>
      <trkpt lat="46.24336" lon="-0.59029">
        <ele>20.04</ele>
        <time>2025-10-20T19:51:34.211Z</time>
      </trkpt>
      <trkpt lat="46.24367" lon="-0.5902">
        <ele>20.41</ele>
        <time>2025-10-20T19:51:40.227Z</time>
      </trkpt>
      <trkpt lat="46.24398" lon="-0.59011">
        <ele>20.8</ele>
        <time>2025-10-20T19:51:46.249Z</time>
      </trkpt>
      <trkpt lat="46.24429" lon="-0.59002">
        <ele>21.24</ele>
        <time>2025-10-20T19:51:52.278Z</time>
      </trkpt>
      <trkpt lat="46.24439" lon="-0.58999">
        <ele>21.68</ele>
        <time>2025-10-20T19:51:58.309Z</time>
      </trkpt>
      <trkpt lat="46.2447" lon="-0.58991">
        <ele>22.21</ele>
        <time>2025-10-20T19:52:04.346Z</time>
      </trkpt>
      <trkpt lat="46.24501" lon="-0.58984">
        <ele>22.66</ele>
        <time>2025-10-20T19:52:10.389Z</time>
      </trkpt>
      <trkpt lat="46.24532" lon="-0.58976">
        <ele>23.08</ele>
        <time>2025-10-20T19:52:16.439Z</time>
      </trkpt>
      <trkpt lat="46.24563" lon="-0.58968">
        <ele>23.49</ele>
        <time>2025-10-20T19:52:22.495Z</time>
      </trkpt>
      <trkpt lat="46.24594" lon="-0.5896">
        <ele>23.81</ele>
        <time>2025-10-20T19:52:28.557Z</time>
      </trkpt>
      <trkpt lat="46.24595" lon="-0.5896">
        <ele>24.13</ele>
        <time>2025-10-20T19:52:34.620Z</time>
      </trkpt>
      <trkpt lat="46.24627" lon="-0.58958">
        <ele>24.51</ele>
        <time>2025-10-20T19:52:40.689Z</time>
      </trkpt>
      <trkpt lat="46.24658" lon="-0.58956">
        <ele>24.89</ele>
        <time>2025-10-20T19:52:46.764Z</time>
      </trkpt>
      <trkpt lat="46.24689" lon="-0.58954">
        <ele>25.05</ele>
        <time>2025-10-20T19:52:52.845Z</time>
      </trkpt>
      <trkpt lat="46.24714" lon="-0.58952">
        <ele>25.18</ele>
        <time>2025-10-20T19:52:58.931Z</time>
      </trkpt>
      <trkpt lat="46.24728" lon="-0.58952">
        <ele>25.35</ele>
        <time>2025-10-20T19:53:05.020Z</time>
      </trkpt>
      <trkpt lat="46.2473" lon="-0.58934">
        <ele>25.43</ele>
        <time>2025-10-20T19:53:11.112Z</time>
      </trkpt>
      <trkpt lat="46.24761" lon="-0.58928">
        <ele>25.55</ele>
        <time>2025-10-20T19:53:17.210Z</time>
      </trkpt>
      <trkpt lat="46.24793" lon="-0.58922">
        <ele>25.53</ele>
        <time>2025-10-20T19:53:23.314Z</time>
      </trkpt>
      <trkpt lat="46.24824" lon="-0.58917">
        <ele>25.44</ele>
        <time>2025-10-20T19:53:29.425Z</time>
      </trkpt>
      <trkpt lat="46.24855" lon="-0.58911">
        <ele>25.31</ele>
        <time>2025-10-20T19:53:35.542Z</time>
      </trkpt>
      <trkpt lat="46.24886" lon="-0.58905">
        <ele>25.16</ele>
        <time>2025-10-20T19:53:41.665Z</time>
      </trkpt>
      <trkpt lat="46.24897" lon="-0.58903">
        <ele>25.07</ele>
        <time>2025-10-20T19:53:47.790Z</time>
      </trkpt>
      <trkpt lat="46.24928" lon="-0.58896">
        <ele>24.98</ele>
        <time>2025-10-20T19:53:53.922Z</time>
      </trkpt>
      <trkpt lat="46.24944" lon="-0.58892">
        <ele>24.85</ele>
        <time>2025-10-20T19:54:00.057Z</time>
      </trkpt>
      <trkpt lat="46.24975" lon="-0.58887">
        <ele>24.66</ele>
        <time>2025-10-20T19:54:06.198Z</time>
      </trkpt>
      <trkpt lat="46.25007" lon="-0.58882">
        <ele>24.48</ele>
        <time>2025-10-20T19:54:12.345Z</time>
      </trkpt>
      <trkpt lat="46.25038" lon="-0.58877">
        <ele>24.25</ele>
        <time>2025-10-20T19:54:18.499Z</time>
      </trkpt>
      <trkpt lat="46.25069" lon="-0.58872">
        <ele>23.94</ele>
        <time>2025-10-20T19:54:24.659Z</time>
      </trkpt>
      <trkpt lat="46.25076" lon="-0.58871">
        <ele>23.69</ele>
        <time>2025-10-20T19:54:30.820Z</time>
      </trkpt>
      <trkpt lat="46.25107" lon="-0.58867">
        <ele>23.45</ele>
        <time>2025-10-20T19:54:36.988Z</time>
      </trkpt>
      <trkpt lat="46.25139" lon="-0.58863">
        <ele>23.16</ele>
        <time>2025-10-20T19:54:43.162Z</time>
      </trkpt>
      <trkpt lat="46.2517" lon="-0.58858">
        <ele>22.91</ele>
        <time>2025-10-20T19:54:49.342Z</time>
      </trkpt>
      <trkpt lat="46.25188" lon="-0.58856">
        <ele>22.72</ele>
        <time>2025-10-20T19:54:55.526Z</time>
      </trkpt>
      <trkpt lat="46.25191" lon="-0.58865">
        <ele>22.56</ele>
        <time>2025-10-20T19:55:01.711Z</time>
      </trkpt>
      <trkpt lat="46.25196" lon="-0.58892">
        <ele>22.46</ele>
        <time>2025-10-20T19:55:07.900Z</time>
      </trkpt>
      <trkpt lat="46.25205" lon="-0.58936">
        <ele>22.3</ele>
        <time>2025-10-20T19:55:14.096Z</time>
      </trkpt>
      <trkpt lat="46.25213" lon="-0.58979">
        <ele>22.2</ele>
        <time>2025-10-20T19:55:20.298Z</time>
      </trkpt>
      <trkpt lat="46.25222" lon="-0.59023">
        <ele>22.12</ele>
        <time>2025-10-20T19:55:26.506Z</time>
      </trkpt>
      <trkpt lat="46.2523" lon="-0.59066">
        <ele>22.12</ele>
        <time>2025-10-20T19:55:32.720Z</time>
      </trkpt>
      <trkpt lat="46.25245" lon="-0.59106">
        <ele>22.14</ele>
        <time>2025-10-20T19:55:38.941Z</time>
      </trkpt>
      <trkpt lat="46.2526" lon="-0.59146">
        <ele>21.98</ele>
        <time>2025-10-20T19:55:45.168Z</time>
      </trkpt>
      <trkpt lat="46.25265" lon="-0.59161">
        <ele>21.94</ele>
        <time>2025-10-20T19:55:51.397Z</time>
      </trkpt>
      <trkpt lat="46.2527" lon="-0.59186">
        <ele>21.89</ele>
        <time>2025-10-20T19:55:57.630Z</time>
      </trkpt>
      <trkpt lat="46.25272" lon="-0.59231">
        <ele>21.88</ele>
        <time>2025-10-20T19:56:03.869Z</time>
      </trkpt>
      <trkpt lat="46.25273" lon="-0.59277">
        <ele>21.95</ele>
        <time>2025-10-20T19:56:10.114Z</time>
      </trkpt>
      <trkpt lat="46.25275" lon="-0.59322">
        <ele>21.98</ele>
        <time>2025-10-20T19:56:16.366Z</time>
      </trkpt>
      <trkpt lat="46.25275" lon="-0.59325">
        <ele>22.03</ele>
        <time>2025-10-20T19:56:22.618Z</time>
      </trkpt>
      <trkpt lat="46.25276" lon="-0.5937">
        <ele>22.04</ele>
        <time>2025-10-20T19:56:28.876Z</time>
      </trkpt>
      <trkpt lat="46.25277" lon="-0.59403">
        <ele>22.09</ele>
        <time>2025-10-20T19:56:35.139Z</time>
      </trkpt>
      <trkpt lat="46.25278" lon="-0.59448">
        <ele>22.24</ele>
        <time>2025-10-20T19:56:41.408Z</time>
      </trkpt>
      <trkpt lat="46.25279" lon="-0.59494">
        <ele>22.35</ele>
        <time>2025-10-20T19:56:47.684Z</time>
      </trkpt>
      <trkpt lat="46.2528" lon="-0.59539">
        <ele>22.4</ele>
        <time>2025-10-20T19:56:53.966Z</time>
      </trkpt>
      <trkpt lat="46.25281" lon="-0.59585">
        <ele>22.42</ele>
        <time>2025-10-20T19:57:00.254Z</time>
      </trkpt>
      <trkpt lat="46.25281" lon="-0.59602">
        <ele>22.48</ele>
        <time>2025-10-20T19:57:06.545Z</time>
      </trkpt>
      <trkpt lat="46.25283" lon="-0.59647">
        <ele>22.52</ele>
        <time>2025-10-20T19:57:12.842Z</time>
      </trkpt>
      <trkpt lat="46.25284" lon="-0.59693">
        <ele>22.55</ele>
        <time>2025-10-20T19:57:19.145Z</time>
      </trkpt>
      <trkpt lat="46.25286" lon="-0.59738">
        <ele>22.59</ele>
        <time>2025-10-20T19:57:25.455Z</time>
      </trkpt>
      <trkpt lat="46.25288" lon="-0.59783">
        <ele>22.67</ele>
        <time>2025-10-20T19:57:31.771Z</time>
      </trkpt>
      <trkpt lat="46.2529" lon="-0.59829">
        <ele>22.69</ele>
        <time>2025-10-20T19:57:38.093Z</time>
      </trkpt>
      <trkpt lat="46.25291" lon="-0.59874">
        <ele>22.6</ele>
        <time>2025-10-20T19:57:44.421Z</time>
      </trkpt>
      <trkpt lat="46.25292" lon="-0.59893">
        <ele>22.46</ele>
        <time>2025-10-20T19:57:50.752Z</time>
      </trkpt>
      <trkpt lat="46.25293" lon="-0.59938">
        <ele>22.32</ele>
        <time>2025-10-20T19:57:57.089Z</time>
      </trkpt>
      <trkpt lat="46.25294" lon="-0.59984">
        <ele>22.16</ele>
        <time>2025-10-20T19:58:03.433Z</time>
      </trkpt>
      <trkpt lat="46.25295" lon="-0.60022">
        <ele>21.97</ele>
        <time>2025-10-20T19:58:09.782Z</time>
      </trkpt>
      <trkpt lat="46.25298" lon="-0.60067">
        <ele>21.68</ele>
        <time>2025-10-20T19:58:16.137Z</time>
      </trkpt>
      <trkpt lat="46.25298" lon="-0.60076">
        <ele>21.43</ele>
        <time>2025-10-20T19:58:22.494Z</time>
      </trkpt>
      <trkpt lat="46.25304" lon="-0.60121">
        <ele>21.07</ele>
        <time>2025-10-20T19:58:28.857Z</time>
      </trkpt>
      <trkpt lat="46.2531" lon="-0.60165">
        <ele>20.68</ele>
        <time>2025-10-20T19:58:35.226Z</time>
      </trkpt>
      <trkpt lat="46.25316" lon="-0.6021">
        <ele>20.42</ele>
        <time>2025-10-20T19:58:41.601Z</time>
      </trkpt>
      <trkpt lat="46.25318" lon="-0.60223">
        <ele>20.12</ele>
        <time>2025-10-20T19:58:47.978Z</time>
      </trkpt>
      <trkpt lat="46.25319" lon="-0.60244">
        <ele>19.83</ele>
        <time>2025-10-20T19:58:54.358Z</time>
      </trkpt>
      <trkpt lat="46.25347" lon="-0.60243">
        <ele>19.45</ele>
        <time>2025-10-20T19:59:00.744Z</time>
      </trkpt>
      <trkpt lat="46.25379" lon="-0.60242">
        <ele>19</ele>
        <time>2025-10-20T19:59:07.136Z</time>
      </trkpt>
      <trkpt lat="46.2541" lon="-0.60241">
        <ele>18.64</ele>
        <time>2025-10-20T19:59:13.534Z</time>
      </trkpt>
      <trkpt lat="46.25441" lon="-0.6024">
        <ele>18.27</ele>
        <time>2025-10-20T19:59:19.939Z</time>
      </trkpt>
      <trkpt lat="46.25454" lon="-0.6024">
        <ele>17.91</ele>
        <time>2025-10-20T19:59:26.346Z</time>
      </trkpt>
      <trkpt lat="46.25485" lon="-0.60236">
        <ele>17.52</ele>
        <time>2025-10-20T19:59:32.760Z</time>
      </trkpt>
      <trkpt lat="46.25517" lon="-0.60233">
        <ele>17.15</ele>
        <time>2025-10-20T19:59:39.180Z</time>
      </trkpt>
      <trkpt lat="46.25524" lon="-0.60232">
        <ele>16.87</ele>
        <time>2025-10-20T19:59:45.601Z</time>
      </trkpt>
      <trkpt lat="46.25555" lon="-0.60221">
        <ele>16.56</ele>
        <time>2025-10-20T19:59:52.029Z</time>
      </trkpt>
      <trkpt lat="46.25565" lon="-0.60217">
        <ele>16.33</ele>
        <time>2025-10-20T19:59:58.459Z</time>
      </trkpt>
      <trkpt lat="46.25587" lon="-0.60203">
        <ele>16.19</ele>
        <time>2025-10-20T20:00:04.894Z</time>
      </trkpt>
      <trkpt lat="46.25594" lon="-0.60195">
        <ele>16.05</ele>
        <time>2025-10-20T20:00:11.330Z</time>
      </trkpt>
      <trkpt lat="46.25613" lon="-0.60159">
        <ele>16.04</ele>
        <time>2025-10-20T20:00:17.773Z</time>
      </trkpt>
      <trkpt lat="46.25617" lon="-0.6015">
        <ele>15.89</ele>
        <time>2025-10-20T20:00:24.217Z</time>
      </trkpt>
      <trkpt lat="46.25634" lon="-0.60112">
        <ele>15.8</ele>
        <time>2025-10-20T20:00:30.667Z</time>
      </trkpt>
      <trkpt lat="46.25651" lon="-0.60073">
        <ele>15.6</ele>
        <time>2025-10-20T20:00:37.124Z</time>
      </trkpt>
      <trkpt lat="46.25658" lon="-0.60056">
        <ele>15.43</ele>
        <time>2025-10-20T20:00:43.584Z</time>
      </trkpt>
      <trkpt lat="46.25666" lon="-0.60047">
        <ele>15.25</ele>
        <time>2025-10-20T20:00:50.046Z</time>
      </trkpt>
      <trkpt lat="46.25696" lon="-0.60034">
        <ele>15.03</ele>
        <time>2025-10-20T20:00:56.514Z</time>
      </trkpt>
      <trkpt lat="46.25722" lon="-0.60029">
        <ele>14.87</ele>
        <time>2025-10-20T20:01:02.987Z</time>
      </trkpt>
      <trkpt lat="46.25753" lon="-0.60021">
        <ele>14.82</ele>
        <time>2025-10-20T20:01:09.466Z</time>
      </trkpt>
      <trkpt lat="46.25784" lon="-0.60012">
        <ele>14.76</ele>
        <time>2025-10-20T20:01:15.952Z</time>
      </trkpt>
      <trkpt lat="46.25807" lon="-0.60006">
        <ele>14.67</ele>
        <time>2025-10-20T20:01:22.442Z</time>
      </trkpt>
      <trkpt lat="46.25838" lon="-0.60002">
        <ele>14.55</ele>
        <time>2025-10-20T20:01:28.939Z</time>
      </trkpt>
      <trkpt lat="46.25842" lon="-0.60001">
        <ele>14.54</ele>
        <time>2025-10-20T20:01:35.436Z</time>
      </trkpt>
      <trkpt lat="46.25874" lon="-0.60001">
        <ele>14.45</ele>
        <time>2025-10-20T20:01:41.940Z</time>
      </trkpt>
      <trkpt lat="46.25905" lon="-0.6">
        <ele>14.5</ele>
        <time>2025-10-20T20:01:48.450Z</time>
      </trkpt>
      <trkpt lat="46.25937" lon="-0.6">
        <ele>14.77</ele>
        <time>2025-10-20T20:01:54.966Z</time>
      </trkpt>
      <trkpt lat="46.25968" lon="-0.59999">
        <ele>14.97</ele>
        <time>2025-10-20T20:02:01.489Z</time>
      </trkpt>
      <trkpt lat="46.25999" lon="-0.59999">
        <ele>15.21</ele>
        <time>2025-10-20T20:02:08.018Z</time>
      </trkpt>
      <trkpt lat="46.26031" lon="-0.59998">
        <ele>15.52</ele>
        <time>2025-10-20T20:02:14.553Z</time>
      </trkpt>
      <trkpt lat="46.26062" lon="-0.59998">
        <ele>15.93</ele>
        <time>2025-10-20T20:02:21.095Z</time>
      </trkpt>
      <trkpt lat="46.26094" lon="-0.59997">
        <ele>16.31</ele>
        <time>2025-10-20T20:02:27.643Z</time>
      </trkpt>
      <trkpt lat="46.26125" lon="-0.59997">
        <ele>16.66</ele>
        <time>2025-10-20T20:02:34.197Z</time>
      </trkpt>
      <trkpt lat="46.26157" lon="-0.59996">
        <ele>17.13</ele>
        <time>2025-10-20T20:02:40.757Z</time>
      </trkpt>
      <trkpt lat="46.26174" lon="-0.59996">
        <ele>17.65</ele>
        <time>2025-10-20T20:02:47.321Z</time>
      </trkpt>
      <trkpt lat="46.26206" lon="-0.59995">
        <ele>18.21</ele>
        <time>2025-10-20T20:02:53.891Z</time>
      </trkpt>
      <trkpt lat="46.26237" lon="-0.59995">
        <ele>18.82</ele>
        <time>2025-10-20T20:03:00.467Z</time>
      </trkpt>
      <trkpt lat="46.26268" lon="-0.59994">
        <ele>19.46</ele>
        <time>2025-10-20T20:03:07.050Z</time>
      </trkpt>
      <trkpt lat="46.263" lon="-0.59993">
        <ele>20.11</ele>
        <time>2025-10-20T20:03:13.639Z</time>
      </trkpt>
      <trkpt lat="46.26331" lon="-0.59992">
        <ele>20.58</ele>
        <time>2025-10-20T20:03:20.234Z</time>
      </trkpt>
      <trkpt lat="46.26363" lon="-0.59992">
        <ele>21.03</ele>
        <time>2025-10-20T20:03:26.836Z</time>
      </trkpt>
      <trkpt lat="46.26394" lon="-0.59991">
        <ele>21.5</ele>
        <time>2025-10-20T20:03:33.444Z</time>
      </trkpt>
      <trkpt lat="46.26426" lon="-0.5999">
        <ele>21.9</ele>
        <time>2025-10-20T20:03:40.058Z</time>
      </trkpt>
      <trkpt lat="46.26457" lon="-0.5999">
        <ele>22.28</ele>
        <time>2025-10-20T20:03:46.679Z</time>
      </trkpt>
      <trkpt lat="46.26489" lon="-0.59989">
        <ele>22.57</ele>
        <time>2025-10-20T20:03:53.306Z</time>
      </trkpt>
      <trkpt lat="46.2652" lon="-0.59988">
        <ele>22.76</ele>
        <time>2025-10-20T20:03:59.939Z</time>
      </trkpt>
      <trkpt lat="46.26552" lon="-0.59987">
        <ele>22.93</ele>
        <time>2025-10-20T20:04:06.578Z</time>
      </trkpt>
      <trkpt lat="46.26583" lon="-0.59987">
        <ele>23.02</ele>
        <time>2025-10-20T20:04:13.224Z</time>
      </trkpt>
      <trkpt lat="46.26615" lon="-0.59986">
        <ele>23.03</ele>
        <time>2025-10-20T20:04:19.876Z</time>
      </trkpt>
      <trkpt lat="46.26646" lon="-0.59985">
        <ele>23.02</ele>
        <time>2025-10-20T20:04:26.534Z</time>
      </trkpt>
      <trkpt lat="46.26678" lon="-0.59984">
        <ele>22.98</ele>
        <time>2025-10-20T20:04:33.199Z</time>
      </trkpt>
      <trkpt lat="46.26709" lon="-0.59984">
        <ele>23.01</ele>
        <time>2025-10-20T20:04:39.870Z</time>
      </trkpt>
      <trkpt lat="46.26741" lon="-0.59983">
        <ele>23.03</ele>
        <time>2025-10-20T20:04:46.547Z</time>
      </trkpt>
      <trkpt lat="46.26772" lon="-0.59982">
        <ele>23.06</ele>
        <time>2025-10-20T20:04:53.231Z</time>
      </trkpt>
      <trkpt lat="46.26804" lon="-0.59982">
        <ele>23.09</ele>
        <time>2025-10-20T20:04:59.921Z</time>
      </trkpt>
      <trkpt lat="46.26835" lon="-0.59981">
        <ele>23.12</ele>
        <time>2025-10-20T20:05:06.617Z</time>
      </trkpt>
      <trkpt lat="46.26867" lon="-0.5998">
        <ele>23.14</ele>
        <time>2025-10-20T20:05:13.319Z</time>
      </trkpt>
      <trkpt lat="46.26898" lon="-0.59979">
        <ele>23.12</ele>
        <time>2025-10-20T20:05:20.028Z</time>
      </trkpt>
      <trkpt lat="46.26911" lon="-0.59979">
        <ele>23.16</ele>
        <time>2025-10-20T20:05:26.739Z</time>
      </trkpt>
      <trkpt lat="46.26904" lon="-0.59998">
        <ele>23.27</ele>
        <time>2025-10-20T20:05:33.453Z</time>
      </trkpt>
      <trkpt lat="46.26889" lon="-0.60038">
        <ele>23.4</ele>
        <time>2025-10-20T20:05:40.174Z</time>
      </trkpt>
      <trkpt lat="46.26874" lon="-0.60078">
        <ele>23.49</ele>
        <time>2025-10-20T20:05:46.901Z</time>
      </trkpt>
      <trkpt lat="46.26859" lon="-0.60118">
        <ele>23.58</ele>
        <time>2025-10-20T20:05:53.634Z</time>
      </trkpt>
      <trkpt lat="46.26846" lon="-0.60154">
        <ele>23.69</ele>
        <time>2025-10-20T20:06:00.373Z</time>
      </trkpt>
      <trkpt lat="46.26831" lon="-0.60194">
        <ele>23.72</ele>
        <time>2025-10-20T20:06:07.118Z</time>
      </trkpt>
      <trkpt lat="46.26815" lon="-0.60233">
        <ele>23.64</ele>
        <time>2025-10-20T20:06:13.869Z</time>
      </trkpt>
      <trkpt lat="46.268" lon="-0.60273">
        <ele>23.63</ele>
        <time>2025-10-20T20:06:20.627Z</time>
      </trkpt>
      <trkpt lat="46.26784" lon="-0.60312">
        <ele>23.53</ele>
        <time>2025-10-20T20:06:27.391Z</time>
      </trkpt>
      <trkpt lat="46.26769" lon="-0.60352">
        <ele>23.31</ele>
        <time>2025-10-20T20:06:34.161Z</time>
      </trkpt>
      <trkpt lat="46.26753" lon="-0.60391">
        <ele>22.96</ele>
        <time>2025-10-20T20:06:40.938Z</time>
      </trkpt>
      <trkpt lat="46.26738" lon="-0.60431">
        <ele>22.63</ele>
        <time>2025-10-20T20:06:47.721Z</time>
      </trkpt>
      <trkpt lat="46.26723" lon="-0.60471">
        <ele>22.17</ele>
        <time>2025-10-20T20:06:54.510Z</time>
      </trkpt>
      <trkpt lat="46.26707" lon="-0.6051">
        <ele>21.64</ele>
        <time>2025-10-20T20:07:01.306Z</time>
      </trkpt>
      <trkpt lat="46.26695" lon="-0.60541">
        <ele>20.97</ele>
        <time>2025-10-20T20:07:08.107Z</time>
      </trkpt>
      <trkpt lat="46.26726" lon="-0.60549">
        <ele>20.26</ele>
        <time>2025-10-20T20:07:14.914Z</time>
      </trkpt>
      <trkpt lat="46.26757" lon="-0.60557">
        <ele>19.48</ele>
        <time>2025-10-20T20:07:21.727Z</time>
      </trkpt>
      <trkpt lat="46.26774" lon="-0.60561">
        <ele>18.63</ele>
        <time>2025-10-20T20:07:28.544Z</time>
      </trkpt>
      <trkpt lat="46.26805" lon="-0.60569">
        <ele>17.68</ele>
        <time>2025-10-20T20:07:35.367Z</time>
      </trkpt>
      <trkpt lat="46.26836" lon="-0.60578">
        <ele>16.71</ele>
        <time>2025-10-20T20:07:42.196Z</time>
      </trkpt>
      <trkpt lat="46.26867" lon="-0.60586">
        <ele>15.69</ele>
        <time>2025-10-20T20:07:49.031Z</time>
      </trkpt>
      <trkpt lat="46.26898" lon="-0.60594">
        <ele>14.57</ele>
        <time>2025-10-20T20:07:55.873Z</time>
      </trkpt>
      <trkpt lat="46.26928" lon="-0.60602">
        <ele>13.44</ele>
        <time>2025-10-20T20:08:02.721Z</time>
      </trkpt>
      <trkpt lat="46.26959" lon="-0.60606">
        <ele>12.33</ele>
        <time>2025-10-20T20:08:09.575Z</time>
      </trkpt>
      <trkpt lat="46.2698" lon="-0.60609">
        <ele>11.33</ele>
        <time>2025-10-20T20:08:16.433Z</time>
      </trkpt>
      <trkpt lat="46.26997" lon="-0.6061">
        <ele>10.39</ele>
        <time>2025-10-20T20:08:23.295Z</time>
      </trkpt>
      <trkpt lat="46.27021" lon="-0.60606">
        <ele>9.48</ele>
        <time>2025-10-20T20:08:30.162Z</time>
      </trkpt>
      <trkpt lat="46.27031" lon="-0.606">
        <ele>8.65</ele>
        <time>2025-10-20T20:08:37.031Z</time>
      </trkpt>
      <trkpt lat="46.2704" lon="-0.60592">
        <ele>7.89</ele>
        <time>2025-10-20T20:08:43.902Z</time>
      </trkpt>
      <trkpt lat="46.2706" lon="-0.60557">
        <ele>7.19</ele>
        <time>2025-10-20T20:08:50.779Z</time>
      </trkpt>
      <trkpt lat="46.27068" lon="-0.60542">
        <ele>6.55</ele>
        <time>2025-10-20T20:08:57.659Z</time>
      </trkpt>
      <trkpt lat="46.27085" lon="-0.60504">
        <ele>5.97</ele>
        <time>2025-10-20T20:09:04.545Z</time>
      </trkpt>
      <trkpt lat="46.27088" lon="-0.60496">
        <ele>5.47</ele>
        <time>2025-10-20T20:09:11.432Z</time>
      </trkpt>
      <trkpt lat="46.271" lon="-0.60475">
        <ele>5</ele>
        <time>2025-10-20T20:09:18.323Z</time>
      </trkpt>
      <trkpt lat="46.27111" lon="-0.60466">
        <ele>4.63</ele>
        <time>2025-10-20T20:09:25.217Z</time>
      </trkpt>
      <trkpt lat="46.27128" lon="-0.60463">
        <ele>4.33</ele>
        <time>2025-10-20T20:09:32.114Z</time>
      </trkpt>
      <trkpt lat="46.2716" lon="-0.60465">
        <ele>4.15</ele>
        <time>2025-10-20T20:09:39.017Z</time>
      </trkpt>
      <trkpt lat="46.27191" lon="-0.60466">
        <ele>4.05</ele>
        <time>2025-10-20T20:09:45.927Z</time>
      </trkpt>
      <trkpt lat="46.27203" lon="-0.60467">
        <ele>3.94</ele>
        <time>2025-10-20T20:09:52.839Z</time>
      </trkpt>
      <trkpt lat="46.27217" lon="-0.60462">
        <ele>3.88</ele>
        <time>2025-10-20T20:09:59.754Z</time>
      </trkpt>
      <trkpt lat="46.27244" lon="-0.60439">
        <ele>3.82</ele>
        <time>2025-10-20T20:10:06.675Z</time>
      </trkpt>
      <trkpt lat="46.27248" lon="-0.60435">
        <ele>3.92</ele>
        <time>2025-10-20T20:10:13.597Z</time>
      </trkpt>
      <trkpt lat="46.27269" lon="-0.60418">
        <ele>4.11</ele>
        <time>2025-10-20T20:10:20.524Z</time>
      </trkpt>
      <trkpt lat="46.27299" lon="-0.60406">
        <ele>4.37</ele>
        <time>2025-10-20T20:10:27.457Z</time>
      </trkpt>
      <trkpt lat="46.2733" lon="-0.60394">
        <ele>4.62</ele>
        <time>2025-10-20T20:10:34.397Z</time>
      </trkpt>
      <trkpt lat="46.2736" lon="-0.60382">
        <ele>4.92</ele>
        <time>2025-10-20T20:10:41.343Z</time>
      </trkpt>
      <trkpt lat="46.27369" lon="-0.60379">
        <ele>5.27</ele>
        <time>2025-10-20T20:10:48.291Z</time>
      </trkpt>
      <trkpt lat="46.27399" lon="-0.60363">
        <ele>5.67</ele>
        <time>2025-10-20T20:10:55.245Z</time>
      </trkpt>
      <trkpt lat="46.27401" lon="-0.60362">
        <ele>6.06</ele>
        <time>2025-10-20T20:11:02.200Z</time>
      </trkpt>
      <trkpt lat="46.2743" lon="-0.60343">
        <ele>6.56</ele>
        <time>2025-10-20T20:11:09.161Z</time>
      </trkpt>
      <trkpt lat="46.27458" lon="-0.60324">
        <ele>7.02</ele>
        <time>2025-10-20T20:11:16.128Z</time>
      </trkpt>
      <trkpt lat="46.27483" lon="-0.60307">
        <ele>7.46</ele>
        <time>2025-10-20T20:11:23.101Z</time>
      </trkpt>
      <trkpt lat="46.27502" lon="-0.60292">
        <ele>7.87</ele>
        <time>2025-10-20T20:11:30.078Z</time>
      </trkpt>
      <trkpt lat="46.2753" lon="-0.60274">
        <ele>8.28</ele>
        <time>2025-10-20T20:11:37.061Z</time>
      </trkpt>
      <trkpt lat="46.27559" lon="-0.60256">
        <ele>8.7</ele>
        <time>2025-10-20T20:11:44.050Z</time>
      </trkpt>
      <trkpt lat="46.27588" lon="-0.60239">
        <ele>9.19</ele>
        <time>2025-10-20T20:11:51.046Z</time>
      </trkpt>
      <trkpt lat="46.27617" lon="-0.60221">
        <ele>9.75</ele>
        <time>2025-10-20T20:11:58.048Z</time>
      </trkpt>
      <trkpt lat="46.27646" lon="-0.60203">
        <ele>10.29</ele>
        <time>2025-10-20T20:12:05.056Z</time>
      </trkpt>
      <trkpt lat="46.2765" lon="-0.60201">
        <ele>10.72</ele>
        <time>2025-10-20T20:12:12.065Z</time>
      </trkpt>
      <trkpt lat="46.27679" lon="-0.60183">
        <ele>11.15</ele>
        <time>2025-10-20T20:12:19.080Z</time>
      </trkpt>
      <trkpt lat="46.27708" lon="-0.60164">
        <ele>11.52</ele>
        <time>2025-10-20T20:12:26.102Z</time>
      </trkpt>
      <trkpt lat="46.27736" lon="-0.60146">
        <ele>11.86</ele>
        <time>2025-10-20T20:12:33.130Z</time>
      </trkpt>
      <trkpt lat="46.27742" lon="-0.60142">
        <ele>12.17</ele>
        <time>2025-10-20T20:12:40.159Z</time>
      </trkpt>
      <trkpt lat="46.27772" lon="-0.60128">
        <ele>12.45</ele>
        <time>2025-10-20T20:12:47.195Z</time>
      </trkpt>
      <trkpt lat="46.27802" lon="-0.60115">
        <ele>12.7</ele>
        <time>2025-10-20T20:12:54.237Z</time>
      </trkpt>
      <trkpt lat="46.27804" lon="-0.60114">
        <ele>12.92</ele>
        <time>2025-10-20T20:13:01.279Z</time>
      </trkpt>
      <trkpt lat="46.27835" lon="-0.60103">
        <ele>13.12</ele>
        <time>2025-10-20T20:13:08.328Z</time>
      </trkpt>
      <trkpt lat="46.27865" lon="-0.60091">
        <ele>13.29</ele>
        <time>2025-10-20T20:13:15.383Z</time>
      </trkpt>
      <trkpt lat="46.27887" lon="-0.60083">
        <ele>13.44</ele>
        <time>2025-10-20T20:13:22.442Z</time>
      </trkpt>
      <trkpt lat="46.27918" lon="-0.60072">
        <ele>13.57</ele>
        <time>2025-10-20T20:13:29.508Z</time>
      </trkpt>
      <trkpt lat="46.27948" lon="-0.6006">
        <ele>13.58</ele>
        <time>2025-10-20T20:13:36.580Z</time>
      </trkpt>
      <trkpt lat="46.27979" lon="-0.60049">
        <ele>13.52</ele>
        <time>2025-10-20T20:13:43.658Z</time>
      </trkpt>
      <trkpt lat="46.28009" lon="-0.60038">
        <ele>13.47</ele>
        <time>2025-10-20T20:13:50.743Z</time>
      </trkpt>
      <trkpt lat="46.28039" lon="-0.60026">
        <ele>13.45</ele>
        <time>2025-10-20T20:13:57.834Z</time>
      </trkpt>
      <trkpt lat="46.2804" lon="-0.60026">
        <ele>13.38</ele>
        <time>2025-10-20T20:14:04.925Z</time>
      </trkpt>
      <trkpt lat="46.28071" lon="-0.60022">
        <ele>13.33</ele>
        <time>2025-10-20T20:14:12.022Z</time>
      </trkpt>
      <trkpt lat="46.28073" lon="-0.60022">
        <ele>13.21</ele>
        <time>2025-10-20T20:14:19.120Z</time>
      </trkpt>
      <trkpt lat="46.28104" lon="-0.60027">
        <ele>13.06</ele>
        <time>2025-10-20T20:14:26.224Z</time>
      </trkpt>
      <trkpt lat="46.28121" lon="-0.60029">
        <ele>12.87</ele>
        <time>2025-10-20T20:14:33.331Z</time>
      </trkpt>
      <trkpt lat="46.2812" lon="-0.60074">
        <ele>12.61</ele>
        <time>2025-10-20T20:14:40.445Z</time>
      </trkpt>
      <trkpt lat="46.2812" lon="-0.6011">
        <ele>12.44</ele>
        <time>2025-10-20T20:14:47.564Z</time>
      </trkpt>
      <trkpt lat="46.28119" lon="-0.60155">
        <ele>12.26</ele>
        <time>2025-10-20T20:14:54.689Z</time>
      </trkpt>
      <trkpt lat="46.28118" lon="-0.60179">
        <ele>12.07</ele>
        <time>2025-10-20T20:15:01.817Z</time>
      </trkpt>
      <trkpt lat="46.28121" lon="-0.60214">
        <ele>11.88</ele>
        <time>2025-10-20T20:15:08.950Z</time>
      </trkpt>
      <trkpt lat="46.28128" lon="-0.60258">
        <ele>11.76</ele>
        <time>2025-10-20T20:15:16.089Z</time>
      </trkpt>
      <trkpt lat="46.28134" lon="-0.60294">
        <ele>11.57</ele>
        <time>2025-10-20T20:15:23.233Z</time>
      </trkpt>
      <trkpt lat="46.28143" lon="-0.60338">
        <ele>11.34</ele>
        <time>2025-10-20T20:15:30.384Z</time>
      </trkpt>
      <trkpt lat="46.28151" lon="-0.60382">
        <ele>11.1</ele>
        <time>2025-10-20T20:15:37.541Z</time>
      </trkpt>
      <trkpt lat="46.2816" lon="-0.60425">
        <ele>10.9</ele>
        <time>2025-10-20T20:15:44.704Z</time>
      </trkpt>
      <trkpt lat="46.28168" lon="-0.60469">
        <ele>10.73</ele>
        <time>2025-10-20T20:15:51.874Z</time>
      </trkpt>
      <trkpt lat="46.28177" lon="-0.60513">
        <ele>10.63</ele>
        <time>2025-10-20T20:15:59.050Z</time>
      </trkpt>
      <trkpt lat="46.28185" lon="-0.60556">
        <ele>10.47</ele>
        <time>2025-10-20T20:16:06.232Z</time>
      </trkpt>
      <trkpt lat="46.28194" lon="-0.606">
        <ele>10.29</ele>
        <time>2025-10-20T20:16:13.421Z</time>
      </trkpt>
      <trkpt lat="46.28196" lon="-0.60613">
        <ele>10.13</ele>
        <time>2025-10-20T20:16:20.611Z</time>
      </trkpt>
      <trkpt lat="46.28211" lon="-0.60653">
        <ele>10.04</ele>
        <time>2025-10-20T20:16:27.808Z</time>
      </trkpt>
      <trkpt lat="46.28217" lon="-0.60668">
        <ele>9.92</ele>
        <time>2025-10-20T20:16:35.007Z</time>
      </trkpt>
      <trkpt lat="46.28233" lon="-0.60702">
        <ele>9.78</ele>
        <time>2025-10-20T20:16:42.212Z</time>
      </trkpt>
      <trkpt lat="46.2825" lon="-0.6074">
        <ele>9.7</ele>
        <time>2025-10-20T20:16:49.423Z</time>
      </trkpt>
      <trkpt lat="46.28267" lon="-0.60778">
        <ele>9.6</ele>
        <time>2025-10-20T20:16:56.640Z</time>
      </trkpt>
      <trkpt lat="46.28271" lon="-0.60786">
        <ele>9.5</ele>
        <time>2025-10-20T20:17:03.859Z</time>
      </trkpt>
      <trkpt lat="46.28288" lon="-0.60824">
        <ele>9.31</ele>
        <time>2025-10-20T20:17:11.084Z</time>
      </trkpt>
      <trkpt lat="46.28302" lon="-0.60854">
        <ele>9.25</ele>
        <time>2025-10-20T20:17:18.314Z</time>
      </trkpt>
      <trkpt lat="46.28315" lon="-0.60895">
        <ele>9.23</ele>
        <time>2025-10-20T20:17:25.550Z</time>
      </trkpt>
      <trkpt lat="46.28317" lon="-0.60902">
        <ele>9.23</ele>
        <time>2025-10-20T20:17:32.787Z</time>
      </trkpt>
      <trkpt lat="46.28325" lon="-0.60945">
        <ele>9.2</ele>
        <time>2025-10-20T20:17:40.031Z</time>
      </trkpt>
      <trkpt lat="46.28331" lon="-0.6099">
        <ele>9.12</ele>
        <time>2025-10-20T20:17:47.281Z</time>
      </trkpt>
      <trkpt lat="46.28337" lon="-0.61034">
        <ele>9.14</ele>
        <time>2025-10-20T20:17:54.537Z</time>
      </trkpt>
      <trkpt lat="46.28341" lon="-0.61069">
        <ele>9.15</ele>
        <time>2025-10-20T20:18:01.798Z</time>
      </trkpt>
      <trkpt lat="46.2837" lon="-0.61054">
        <ele>9.28</ele>
        <time>2025-10-20T20:18:09.065Z</time>
      </trkpt>
      <trkpt lat="46.284" lon="-0.61039">
        <ele>9.43</ele>
        <time>2025-10-20T20:18:16.338Z</time>
      </trkpt>
      <trkpt lat="46.28429" lon="-0.61023">
        <ele>9.59</ele>
        <time>2025-10-20T20:18:23.618Z</time>
      </trkpt>
      <trkpt lat="46.28459" lon="-0.61008">
        <ele>9.71</ele>
        <time>2025-10-20T20:18:30.904Z</time>
      </trkpt>
      <trkpt lat="46.28489" lon="-0.60992">
        <ele>9.83</ele>
        <time>2025-10-20T20:18:38.196Z</time>
      </trkpt>
      <trkpt lat="46.28495" lon="-0.60989">
        <ele>9.93</ele>
        <time>2025-10-20T20:18:45.490Z</time>
      </trkpt>
      <trkpt lat="46.28522" lon="-0.60965">
        <ele>10.1</ele>
        <time>2025-10-20T20:18:52.790Z</time>
      </trkpt>
      <trkpt lat="46.28536" lon="-0.60953">
        <ele>10.17</ele>
        <time>2025-10-20T20:19:00.093Z</time>
      </trkpt>
      <trkpt lat="46.2856" lon="-0.60932">
        <ele>10.19</ele>
        <time>2025-10-20T20:19:07.402Z</time>
      </trkpt>
      <trkpt lat="46.28575" lon="-0.60925">
        <ele>10.2</ele>
        <time>2025-10-20T20:19:14.714Z</time>
      </trkpt>
      <trkpt lat="46.28589" lon="-0.60925">
        <ele>10.2</ele>
        <time>2025-10-20T20:19:22.029Z</time>
      </trkpt>
      <trkpt lat="46.2862" lon="-0.60934">
        <ele>10.18</ele>
        <time>2025-10-20T20:19:29.350Z</time>
      </trkpt>
      <trkpt lat="46.28651" lon="-0.60943">
        <ele>10.06</ele>
        <time>2025-10-20T20:19:36.678Z</time>
      </trkpt>
      <trkpt lat="46.2866" lon="-0.60946">
        <ele>9.98</ele>
        <time>2025-10-20T20:19:44.007Z</time>
      </trkpt>
      <trkpt lat="46.28667" lon="-0.60944">
        <ele>9.94</ele>
        <time>2025-10-20T20:19:51.338Z</time>
      </trkpt>
      <trkpt lat="46.28694" lon="-0.60923">
        <ele>9.94</ele>
        <time>2025-10-20T20:19:58.675Z</time>
      </trkpt>
      <trkpt lat="46.28705" lon="-0.60921">
        <ele>9.82</ele>
        <time>2025-10-20T20:20:06.014Z</time>
      </trkpt>
      <trkpt lat="46.28716" lon="-0.60922">
        <ele>9.69</ele>
        <time>2025-10-20T20:20:13.355Z</time>
      </trkpt>
      <trkpt lat="46.28727" lon="-0.60935">
        <ele>9.52</ele>
        <time>2025-10-20T20:20:20.699Z</time>
      </trkpt>
      <trkpt lat="46.28732" lon="-0.60951">
        <ele>9.36</ele>
        <time>2025-10-20T20:20:28.046Z</time>
      </trkpt>
      <trkpt lat="46.28734" lon="-0.60996">
        <ele>9.25</ele>
        <time>2025-10-20T20:20:35.399Z</time>
      </trkpt>
      <trkpt lat="46.28734" lon="-0.60997">
        <ele>9.1</ele>
        <time>2025-10-20T20:20:42.752Z</time>
      </trkpt>
      <trkpt lat="46.2874" lon="-0.61014">
        <ele>8.91</ele>
        <time>2025-10-20T20:20:50.108Z</time>
      </trkpt>
      <trkpt lat="46.28749" lon="-0.6102">
        <ele>8.71</ele>
        <time>2025-10-20T20:20:57.466Z</time>
      </trkpt>
      <trkpt lat="46.28772" lon="-0.61021">
        <ele>8.49</ele>
        <time>2025-10-20T20:21:04.828Z</time>
      </trkpt>
      <trkpt lat="46.28782" lon="-0.61015">
        <ele>8.33</ele>
        <time>2025-10-20T20:21:12.193Z</time>
      </trkpt>
      <trkpt lat="46.28803" lon="-0.60981">
        <ele>8.15</ele>
        <time>2025-10-20T20:21:19.564Z</time>
      </trkpt>
      <trkpt lat="46.28824" lon="-0.60948">
        <ele>8.01</ele>
        <time>2025-10-20T20:21:26.941Z</time>
      </trkpt>
      <trkpt lat="46.28834" lon="-0.60927">
        <ele>7.96</ele>
        <time>2025-10-20T20:21:34.322Z</time>
      </trkpt>
      <trkpt lat="46.28838" lon="-0.60908">
        <ele>7.88</ele>
        <time>2025-10-20T20:21:41.705Z</time>
      </trkpt>
      <trkpt lat="46.28841" lon="-0.60882">
        <ele>7.83</ele>
        <time>2025-10-20T20:21:49.092Z</time>
      </trkpt>
      <trkpt lat="46.28852" lon="-0.6084">
        <ele>7.78</ele>
        <time>2025-10-20T20:21:56.485Z</time>
      </trkpt>
      <trkpt lat="46.2886" lon="-0.60809">
        <ele>7.55</ele>
        <time>2025-10-20T20:22:03.883Z</time>
      </trkpt>
      <trkpt lat="46.28866" lon="-0.60764">
        <ele>7.37</ele>
        <time>2025-10-20T20:22:11.287Z</time>
      </trkpt>
      <trkpt lat="46.28867" lon="-0.60755">
        <ele>7.25</ele>
        <time>2025-10-20T20:22:18.692Z</time>
      </trkpt>
      <trkpt lat="46.28872" lon="-0.6071">
        <ele>7.16</ele>
        <time>2025-10-20T20:22:26.104Z</time>
      </trkpt>
      <trkpt lat="46.28873" lon="-0.60705">
        <ele>7.06</ele>
        <time>2025-10-20T20:22:33.516Z</time>
      </trkpt>
      <trkpt lat="46.28883" lon="-0.60662">
        <ele>7.01</ele>
        <time>2025-10-20T20:22:40.935Z</time>
      </trkpt>
      <trkpt lat="46.28892" lon="-0.60619">
        <ele>6.97</ele>
        <time>2025-10-20T20:22:48.360Z</time>
      </trkpt>
      <trkpt lat="46.28898" lon="-0.60593">
        <ele>6.89</ele>
        <time>2025-10-20T20:22:55.789Z</time>
      </trkpt>
      <trkpt lat="46.28926" lon="-0.60608">
        <ele>6.62</ele>
        <time>2025-10-20T20:23:03.224Z</time>
      </trkpt>
      <trkpt lat="46.28955" lon="-0.60625">
        <ele>6.42</ele>
        <time>2025-10-20T20:23:10.665Z</time>
      </trkpt>
      <trkpt lat="46.28971" lon="-0.60634">
        <ele>6.33</ele>
        <time>2025-10-20T20:23:18.109Z</time>
      </trkpt>
      <trkpt lat="46.28997" lon="-0.60659">
        <ele>6.22</ele>
        <time>2025-10-20T20:23:25.560Z</time>
      </trkpt>
      <trkpt lat="46.29001" lon="-0.60662">
        <ele>6.14</ele>
        <time>2025-10-20T20:23:33.012Z</time>
      </trkpt>
      <trkpt lat="46.29011" lon="-0.60677">
        <ele>6.03</ele>
        <time>2025-10-20T20:23:40.467Z</time>
      </trkpt>
      <trkpt lat="46.29024" lon="-0.6071">
        <ele>5.99</ele>
        <time>2025-10-20T20:23:47.927Z</time>
      </trkpt>
      <trkpt lat="46.29036" lon="-0.60748">
        <ele>5.89</ele>
        <time>2025-10-20T20:23:55.393Z</time>
      </trkpt>
      <trkpt lat="46.29044" lon="-0.60792">
        <ele>5.77</ele>
        <time>2025-10-20T20:24:02.865Z</time>
      </trkpt>
      <trkpt lat="46.2905" lon="-0.60824">
        <ele>5.74</ele>
        <time>2025-10-20T20:24:10.341Z</time>
      </trkpt>
      <trkpt lat="46.29056" lon="-0.60869">
        <ele>5.85</ele>
        <time>2025-10-20T20:24:17.824Z</time>
      </trkpt>
      <trkpt lat="46.29063" lon="-0.60913">
        <ele>6.01</ele>
        <time>2025-10-20T20:24:25.313Z</time>
      </trkpt>
      <trkpt lat="46.29069" lon="-0.60958">
        <ele>6.19</ele>
        <time>2025-10-20T20:24:32.808Z</time>
      </trkpt>
      <trkpt lat="46.29075" lon="-0.61002">
        <ele>6.44</ele>
        <time>2025-10-20T20:24:40.310Z</time>
      </trkpt>
      <trkpt lat="46.29081" lon="-0.61047">
        <ele>6.63</ele>
        <time>2025-10-20T20:24:47.818Z</time>
      </trkpt>
      <trkpt lat="46.29085" lon="-0.61073">
        <ele>6.66</ele>
        <time>2025-10-20T20:24:55.330Z</time>
      </trkpt>
      <trkpt lat="46.29116" lon="-0.61063">
        <ele>6.78</ele>
        <time>2025-10-20T20:25:02.848Z</time>
      </trkpt>
      <trkpt lat="46.29136" lon="-0.61056">
        <ele>6.91</ele>
        <time>2025-10-20T20:25:10.370Z</time>
      </trkpt>
      <trkpt lat="46.29167" lon="-0.61046">
        <ele>7.07</ele>
        <time>2025-10-20T20:25:17.898Z</time>
      </trkpt>
      <trkpt lat="46.29197" lon="-0.61035">
        <ele>7.14</ele>
        <time>2025-10-20T20:25:25.433Z</time>
      </trkpt>
      <trkpt lat="46.29228" lon="-0.61025">
        <ele>7.17</ele>
        <time>2025-10-20T20:25:32.974Z</time>
      </trkpt>
      <trkpt lat="46.29259" lon="-0.61014">
        <ele>7.24</ele>
        <time>2025-10-20T20:25:40.521Z</time>
      </trkpt>
      <trkpt lat="46.29289" lon="-0.61004">
        <ele>7.3</ele>
        <time>2025-10-20T20:25:48.075Z</time>
      </trkpt>
      <trkpt lat="46.2932" lon="-0.60993">
        <ele>7.26</ele>
        <time>2025-10-20T20:25:55.635Z</time>
      </trkpt>
      <trkpt lat="46.29323" lon="-0.60992">
        <ele>7.3</ele>
        <time>2025-10-20T20:26:03.196Z</time>
      </trkpt>
      <trkpt lat="46.29339" lon="-0.60992">
        <ele>7.35</ele>
        <time>2025-10-20T20:26:10.760Z</time>
      </trkpt>
      <trkpt lat="46.2937" lon="-0.61">
        <ele>7.38</ele>
        <time>2025-10-20T20:26:18.330Z</time>
      </trkpt>
      <trkpt lat="46.29401" lon="-0.61009">
        <ele>7.38</ele>
        <time>2025-10-20T20:26:25.906Z</time>
      </trkpt>
      <trkpt lat="46.29432" lon="-0.61017">
        <ele>7.41</ele>
        <time>2025-10-20T20:26:33.489Z</time>
      </trkpt>
      <trkpt lat="46.29463" lon="-0.61025">
        <ele>7.43</ele>
        <time>2025-10-20T20:26:41.078Z</time>
      </trkpt>
      <trkpt lat="46.29494" lon="-0.61034">
        <ele>7.35</ele>
        <time>2025-10-20T20:26:48.673Z</time>
      </trkpt>
      <trkpt lat="46.29525" lon="-0.61042">
        <ele>7.37</ele>
        <time>2025-10-20T20:26:56.275Z</time>
      </trkpt>
      <trkpt lat="46.29543" lon="-0.61047">
        <ele>7.28</ele>
        <time>2025-10-20T20:27:03.880Z</time>
      </trkpt>
      <trkpt lat="46.29574" lon="-0.61057">
        <ele>7.15</ele>
        <time>2025-10-20T20:27:11.492Z</time>
      </trkpt>
      <trkpt lat="46.29604" lon="-0.61067">
        <ele>7.12</ele>
        <time>2025-10-20T20:27:19.110Z</time>
      </trkpt>
      <trkpt lat="46.29635" lon="-0.61077">
        <ele>7.07</ele>
        <time>2025-10-20T20:27:26.734Z</time>
      </trkpt>
      <trkpt lat="46.29666" lon="-0.61087">
        <ele>6.97</ele>
        <time>2025-10-20T20:27:34.365Z</time>
      </trkpt>
      <trkpt lat="46.29697" lon="-0.61097">
        <ele>6.7</ele>
        <time>2025-10-20T20:27:42.002Z</time>
      </trkpt>
      <trkpt lat="46.29709" lon="-0.61101">
        <ele>6.4</ele>
        <time>2025-10-20T20:27:49.641Z</time>
      </trkpt>
      <trkpt lat="46.29701" lon="-0.61145">
        <ele>6.11</ele>
        <time>2025-10-20T20:27:57.287Z</time>
      </trkpt>
      <trkpt lat="46.29701" lon="-0.61147">
        <ele>5.82</ele>
        <time>2025-10-20T20:28:04.933Z</time>
      </trkpt>
      <trkpt lat="46.29696" lon="-0.61192">
        <ele>5.35</ele>
        <time>2025-10-20T20:28:12.585Z</time>
      </trkpt>
      <trkpt lat="46.29691" lon="-0.61237">
        <ele>5.06</ele>
        <time>2025-10-20T20:28:20.244Z</time>
      </trkpt>
      <trkpt lat="46.29686" lon="-0.61282">
        <ele>4.83</ele>
        <time>2025-10-20T20:28:27.909Z</time>
      </trkpt>
      <trkpt lat="46.29685" lon="-0.61294">
        <ele>4.48</ele>
        <time>2025-10-20T20:28:35.576Z</time>
      </trkpt>
      <trkpt lat="46.29682" lon="-0.61339">
        <ele>4.07</ele>
        <time>2025-10-20T20:28:43.249Z</time>
      </trkpt>
      <trkpt lat="46.29682" lon="-0.61345">
        <ele>3.75</ele>
        <time>2025-10-20T20:28:50.923Z</time>
      </trkpt>
      <trkpt lat="46.29696" lon="-0.61386">
        <ele>3.33</ele>
        <time>2025-10-20T20:28:58.603Z</time>
      </trkpt>
      <trkpt lat="46.29705" lon="-0.61413">
        <ele>3.01</ele>
        <time>2025-10-20T20:29:06.287Z</time>
      </trkpt>
      <trkpt lat="46.29717" lon="-0.61455">
        <ele>2.79</ele>
        <time>2025-10-20T20:29:13.978Z</time>
      </trkpt>
      <trkpt lat="46.29718" lon="-0.61457">
        <ele>2.55</ele>
        <time>2025-10-20T20:29:21.669Z</time>
      </trkpt>
      <trkpt lat="46.29739" lon="-0.61448">
        <ele>2.3</ele>
        <time>2025-10-20T20:29:29.364Z</time>
      </trkpt>
      <trkpt lat="46.2977" lon="-0.61438">
        <ele>2.08</ele>
        <time>2025-10-20T20:29:37.066Z</time>
      </trkpt>
      <trkpt lat="46.298" lon="-0.61428">
        <ele>1.98</ele>
        <time>2025-10-20T20:29:44.774Z</time>
      </trkpt>
      <trkpt lat="46.2982" lon="-0.61421">
        <ele>1.91</ele>
        <time>2025-10-20T20:29:52.486Z</time>
      </trkpt>
      <trkpt lat="46.29827" lon="-0.61422">
        <ele>1.84</ele>
        <time>2025-10-20T20:30:00.199Z</time>
      </trkpt>
      <trkpt lat="46.29853" lon="-0.61447">
        <ele>1.79</ele>
        <time>2025-10-20T20:30:07.919Z</time>
      </trkpt>
      <trkpt lat="46.29871" lon="-0.61464">
        <ele>1.74</ele>
        <time>2025-10-20T20:30:15.643Z</time>
      </trkpt>
      <trkpt lat="46.29897" lon="-0.61491">
        <ele>1.76</ele>
        <time>2025-10-20T20:30:23.373Z</time>
      </trkpt>
      <trkpt lat="46.29922" lon="-0.61517">
        <ele>1.81</ele>
        <time>2025-10-20T20:30:31.109Z</time>
      </trkpt>
      <trkpt lat="46.29948" lon="-0.61544">
        <ele>1.83</ele>
        <time>2025-10-20T20:30:38.852Z</time>
      </trkpt>
      <trkpt lat="46.29973" lon="-0.61571">
        <ele>1.91</ele>
        <time>2025-10-20T20:30:46.601Z</time>
      </trkpt>
      <trkpt lat="46.29986" lon="-0.61584">
        <ele>2.01</ele>
        <time>2025-10-20T20:30:54.353Z</time>
      </trkpt>
      <trkpt lat="46.30011" lon="-0.61611">
        <ele>2.11</ele>
        <time>2025-10-20T20:31:02.112Z</time>
      </trkpt>
      <trkpt lat="46.30012" lon="-0.61612">
        <ele>2.19</ele>
        <time>2025-10-20T20:31:09.871Z</time>
      </trkpt>
      <trkpt lat="46.30037" lon="-0.6164">
        <ele>2.25</ele>
        <time>2025-10-20T20:31:17.636Z</time>
      </trkpt>
      <trkpt lat="46.30061" lon="-0.61669">
        <ele>2.31</ele>
        <time>2025-10-20T20:31:25.407Z</time>
      </trkpt>
      <trkpt lat="46.3007" lon="-0.61679">
        <ele>2.4</ele>
        <time>2025-10-20T20:31:33.181Z</time>
      </trkpt>
      <trkpt lat="46.30095" lon="-0.61707">
        <ele>2.47</ele>
        <time>2025-10-20T20:31:40.961Z</time>
      </trkpt>
      <trkpt lat="46.30119" lon="-0.61735">
        <ele>2.62</ele>
        <time>2025-10-20T20:31:48.747Z</time>
      </trkpt>
      <trkpt lat="46.30144" lon="-0.61764">
        <ele>2.72</ele>
        <time>2025-10-20T20:31:56.539Z</time>
      </trkpt>
      <trkpt lat="46.30155" lon="-0.61776">
        <ele>2.79</ele>
        <time>2025-10-20T20:32:04.334Z</time>
      </trkpt>
      <trkpt lat="46.30164" lon="-0.61794">
        <ele>2.84</ele>
        <time>2025-10-20T20:32:12.132Z</time>
      </trkpt>
      <trkpt lat="46.30172" lon="-0.61825">
        <ele>2.88</ele>
        <time>2025-10-20T20:32:19.935Z</time>
      </trkpt>
      <trkpt lat="46.30173" lon="-0.61851">
        <ele>2.89</ele>
        <time>2025-10-20T20:32:27.742Z</time>
      </trkpt>
      <trkpt lat="46.30173" lon="-0.61871">
        <ele>2.92</ele>
        <time>2025-10-20T20:32:35.551Z</time>
      </trkpt>
      <trkpt lat="46.30176" lon="-0.61875">
        <ele>2.93</ele>
        <time>2025-10-20T20:32:43.361Z</time>
      </trkpt>
      <trkpt lat="46.30199" lon="-0.61875">
        <ele>2.91</ele>
        <time>2025-10-20T20:32:51.176Z</time>
      </trkpt>
      <trkpt lat="46.30197" lon="-0.6185">
        <ele>2.92</ele>
        <time>2025-10-20T20:32:58.994Z</time>
      </trkpt>
      <trkpt lat="46.302" lon="-0.61812">
        <ele>2.96</ele>
        <time>2025-10-20T20:33:06.818Z</time>
      </trkpt>
      <trkpt lat="46.30204" lon="-0.61804">
        <ele>2.96</ele>
        <time>2025-10-20T20:33:14.643Z</time>
      </trkpt>
      <trkpt lat="46.30235" lon="-0.61799">
        <ele>2.94</ele>
        <time>2025-10-20T20:33:22.474Z</time>
      </trkpt>
      <trkpt lat="46.30252" lon="-0.61796">
        <ele>2.94</ele>
        <time>2025-10-20T20:33:30.309Z</time>
      </trkpt>
      <trkpt lat="46.30283" lon="-0.61791">
        <ele>2.91</ele>
        <time>2025-10-20T20:33:38.150Z</time>
      </trkpt>
      <trkpt lat="46.30315" lon="-0.61785">
        <ele>2.94</ele>
        <time>2025-10-20T20:33:45.997Z</time>
      </trkpt>
      <trkpt lat="46.30346" lon="-0.61779">
        <ele>3.02</ele>
        <time>2025-10-20T20:33:53.850Z</time>
      </trkpt>
      <trkpt lat="46.30377" lon="-0.61774">
        <ele>3.03</ele>
        <time>2025-10-20T20:34:01.710Z</time>
      </trkpt>
      <trkpt lat="46.30388" lon="-0.61772">
        <ele>3.09</ele>
        <time>2025-10-20T20:34:09.572Z</time>
      </trkpt>
      <trkpt lat="46.30419" lon="-0.61764">
        <ele>3.15</ele>
        <time>2025-10-20T20:34:17.440Z</time>
      </trkpt>
      <trkpt lat="46.30431" lon="-0.61761">
        <ele>3.25</ele>
        <time>2025-10-20T20:34:25.311Z</time>
      </trkpt>
      <trkpt lat="46.30461" lon="-0.61746">
        <ele>3.43</ele>
        <time>2025-10-20T20:34:33.188Z</time>
      </trkpt>
      <trkpt lat="46.3049" lon="-0.6173">
        <ele>3.64</ele>
        <time>2025-10-20T20:34:41.071Z</time>
      </trkpt>
      <trkpt lat="46.3052" lon="-0.61715">
        <ele>3.78</ele>
        <time>2025-10-20T20:34:48.961Z</time>
      </trkpt>
      <trkpt lat="46.3055" lon="-0.61699">
        <ele>3.9</ele>
        <time>2025-10-20T20:34:56.857Z</time>
      </trkpt>
      <trkpt lat="46.3056" lon="-0.61694">
        <ele>4.01</ele>
        <time>2025-10-20T20:35:04.755Z</time>
      </trkpt>
      <trkpt lat="46.30565" lon="-0.61706">
        <ele>4.14</ele>
        <time>2025-10-20T20:35:12.655Z</time>
      </trkpt>
      <trkpt lat="46.30577" lon="-0.61748">
        <ele>4.2</ele>
        <time>2025-10-20T20:35:20.561Z</time>
      </trkpt>
      <trkpt lat="46.30589" lon="-0.6179">
        <ele>4.29</ele>
        <time>2025-10-20T20:35:28.474Z</time>
      </trkpt>
      <trkpt lat="46.30601" lon="-0.61832">
        <ele>4.42</ele>
        <time>2025-10-20T20:35:36.393Z</time>
      </trkpt>
      <trkpt lat="46.30613" lon="-0.61874">
        <ele>4.52</ele>
        <time>2025-10-20T20:35:44.318Z</time>
      </trkpt>
      <trkpt lat="46.30617" lon="-0.61887">
        <ele>4.65</ele>
        <time>2025-10-20T20:35:52.245Z</time>
      </trkpt>
      <trkpt lat="46.30626" lon="-0.61931">
        <ele>4.85</ele>
        <time>2025-10-20T20:36:00.179Z</time>
      </trkpt>
      <trkpt lat="46.30634" lon="-0.61974">
        <ele>5</ele>
        <time>2025-10-20T20:36:08.119Z</time>
      </trkpt>
      <trkpt lat="46.30643" lon="-0.62018">
        <ele>5.11</ele>
        <time>2025-10-20T20:36:16.065Z</time>
      </trkpt>
      <trkpt lat="46.30649" lon="-0.62049">
        <ele>5.25</ele>
        <time>2025-10-20T20:36:24.016Z</time>
      </trkpt>
      <trkpt lat="46.30657" lon="-0.62093">
        <ele>5.3</ele>
        <time>2025-10-20T20:36:31.973Z</time>
      </trkpt>
      <trkpt lat="46.30664" lon="-0.62132">
        <ele>5.27</ele>
        <time>2025-10-20T20:36:39.936Z</time>
      </trkpt>
      <trkpt lat="46.30668" lon="-0.62138">
        <ele>5.31</ele>
        <time>2025-10-20T20:36:47.900Z</time>
      </trkpt>
      <trkpt lat="46.30675" lon="-0.62138">
        <ele>5.35</ele>
        <time>2025-10-20T20:36:55.865Z</time>
      </trkpt>
      <trkpt lat="46.30705" lon="-0.62124">
        <ele>5.36</ele>
        <time>2025-10-20T20:37:03.836Z</time>
      </trkpt>
      <trkpt lat="46.30735" lon="-0.62111">
        <ele>5.42</ele>
        <time>2025-10-20T20:37:11.814Z</time>
      </trkpt>
      <trkpt lat="46.3075" lon="-0.62104">
        <ele>5.48</ele>
        <time>2025-10-20T20:37:19.795Z</time>
      </trkpt>
      <trkpt lat="46.30773" lon="-0.62091">
        <ele>5.56</ele>
        <time>2025-10-20T20:37:27.781Z</time>
      </trkpt>
      <trkpt lat="46.30804" lon="-0.62081">
        <ele>5.62</ele>
        <time>2025-10-20T20:37:35.773Z</time>
      </trkpt>
      <trkpt lat="46.30834" lon="-0.6207">
        <ele>5.64</ele>
        <time>2025-10-20T20:37:43.771Z</time>
      </trkpt>
      <trkpt lat="46.30865" lon="-0.6206">
        <ele>5.71</ele>
        <time>2025-10-20T20:37:51.776Z</time>
      </trkpt>
      <trkpt lat="46.30896" lon="-0.6205">
        <ele>5.78</ele>
        <time>2025-10-20T20:37:59.787Z</time>
      </trkpt>
      <trkpt lat="46.30901" lon="-0.62048">
        <ele>5.82</ele>
        <time>2025-10-20T20:38:07.799Z</time>
      </trkpt>
      <trkpt lat="46.30915" lon="-0.62044">
        <ele>5.88</ele>
        <time>2025-10-20T20:38:15.814Z</time>
      </trkpt>
      <trkpt lat="46.30922" lon="-0.62045">
        <ele>5.9</ele>
        <time>2025-10-20T20:38:23.830Z</time>
      </trkpt>
      <trkpt lat="46.3093" lon="-0.62052">
        <ele>5.91</ele>
        <time>2025-10-20T20:38:31.848Z</time>
      </trkpt>
      <trkpt lat="46.3095" lon="-0.62087">
        <ele>5.83</ele>
        <time>2025-10-20T20:38:39.872Z</time>
      </trkpt>
      <trkpt lat="46.3096" lon="-0.62104">
        <ele>5.81</ele>
        <time>2025-10-20T20:38:47.900Z</time>
      </trkpt>
      <trkpt lat="46.30975" lon="-0.62082">
        <ele>5.8</ele>
        <time>2025-10-20T20:38:55.932Z</time>
      </trkpt>
      <trkpt lat="46.30981" lon="-0.62042">
        <ele>5.86</ele>
        <time>2025-10-20T20:39:03.970Z</time>
      </trkpt>
      <trkpt lat="46.30987" lon="-0.61998">
        <ele>5.87</ele>
        <time>2025-10-20T20:39:12.014Z</time>
      </trkpt>
      <trkpt lat="46.30988" lon="-0.61992">
        <ele>5.82</ele>
        <time>2025-10-20T20:39:20.059Z</time>
      </trkpt>
      <trkpt lat="46.30995" lon="-0.61948">
        <ele>5.74</ele>
        <time>2025-10-20T20:39:28.110Z</time>
      </trkpt>
      <trkpt lat="46.30996" lon="-0.6194">
        <ele>5.65</ele>
        <time>2025-10-20T20:39:36.162Z</time>
      </trkpt>
      <trkpt lat="46.31001" lon="-0.61895">
        <ele>5.59</ele>
        <time>2025-10-20T20:39:44.220Z</time>
      </trkpt>
      <trkpt lat="46.31005" lon="-0.61858">
        <ele>5.52</ele>
        <time>2025-10-20T20:39:52.283Z</time>
      </trkpt>
      <trkpt lat="46.3101" lon="-0.6183">
        <ele>5.35</ele>
        <time>2025-10-20T20:40:00.350Z</time>
      </trkpt>
      <trkpt lat="46.3102" lon="-0.61787">
        <ele>5.14</ele>
        <time>2025-10-20T20:40:08.424Z</time>
      </trkpt>
      <trkpt lat="46.3103" lon="-0.61747">
        <ele>4.95</ele>
        <time>2025-10-20T20:40:16.504Z</time>
      </trkpt>
      <trkpt lat="46.31034" lon="-0.61714">
        <ele>4.73</ele>
        <time>2025-10-20T20:40:24.588Z</time>
      </trkpt>
      <trkpt lat="46.31038" lon="-0.61705">
        <ele>4.52</ele>
        <time>2025-10-20T20:40:32.674Z</time>
      </trkpt>
      <trkpt lat="46.31049" lon="-0.61696">
        <ele>4.29</ele>
        <time>2025-10-20T20:40:40.762Z</time>
      </trkpt>
      <trkpt lat="46.31064" lon="-0.61656">
        <ele>4.07</ele>
        <time>2025-10-20T20:40:48.857Z</time>
      </trkpt>
      <trkpt lat="46.3108" lon="-0.61617">
        <ele>3.86</ele>
        <time>2025-10-20T20:40:56.958Z</time>
      </trkpt>
      <trkpt lat="46.3109" lon="-0.61589">
        <ele>3.66</ele>
        <time>2025-10-20T20:41:05.063Z</time>
      </trkpt>
      <trkpt lat="46.31092" lon="-0.61586">
        <ele>3.5</ele>
        <time>2025-10-20T20:41:13.169Z</time>
      </trkpt>
      <trkpt lat="46.3111" lon="-0.6158">
        <ele>3.34</ele>
        <time>2025-10-20T20:41:21.279Z</time>
      </trkpt>
      <trkpt lat="46.31118" lon="-0.616">
        <ele>3.18</ele>
        <time>2025-10-20T20:41:29.392Z</time>
      </trkpt>
      <trkpt lat="46.31139" lon="-0.61634">
        <ele>3.09</ele>
        <time>2025-10-20T20:41:37.511Z</time>
      </trkpt>
      <trkpt lat="46.31142" lon="-0.6164">
        <ele>3.02</ele>
        <time>2025-10-20T20:41:45.631Z</time>
      </trkpt>
      <trkpt lat="46.31146" lon="-0.61648">
        <ele>2.96</ele>
        <time>2025-10-20T20:41:53.752Z</time>
      </trkpt>
      <trkpt lat="46.31168" lon="-0.61631">
        <ele>2.93</ele>
        <time>2025-10-20T20:42:01.878Z</time>
      </trkpt>
      <trkpt lat="46.31195" lon="-0.61608">
        <ele>2.9</ele>
        <time>2025-10-20T20:42:10.011Z</time>
      </trkpt>
      <trkpt lat="46.31215" lon="-0.61591">
        <ele>2.88</ele>
        <time>2025-10-20T20:42:18.148Z</time>
      </trkpt>
      <trkpt lat="46.31228" lon="-0.61575">
        <ele>2.87</ele>
        <time>2025-10-20T20:42:26.289Z</time>
      </trkpt>
      <trkpt lat="46.31246" lon="-0.61538">
        <ele>2.94</ele>
        <time>2025-10-20T20:42:34.436Z</time>
      </trkpt>
      <trkpt lat="46.31265" lon="-0.61501">
        <ele>2.89</ele>
        <time>2025-10-20T20:42:42.589Z</time>
      </trkpt>
      <trkpt lat="46.31272" lon="-0.61487">
        <ele>2.88</ele>
        <time>2025-10-20T20:42:50.745Z</time>
      </trkpt>
      <trkpt lat="46.3129" lon="-0.61449">
        <ele>2.78</ele>
        <time>2025-10-20T20:42:58.907Z</time>
      </trkpt>
      <trkpt lat="46.31307" lon="-0.61411">
        <ele>2.77</ele>
        <time>2025-10-20T20:43:07.075Z</time>
      </trkpt>
      <trkpt lat="46.31309" lon="-0.61407">
        <ele>2.78</ele>
        <time>2025-10-20T20:43:15.244Z</time>
      </trkpt>
      <trkpt lat="46.31317" lon="-0.61383">
        <ele>2.82</ele>
        <time>2025-10-20T20:43:23.417Z</time>
      </trkpt>
      <trkpt lat="46.31325" lon="-0.61339">
        <ele>2.93</ele>
        <time>2025-10-20T20:43:31.596Z</time>
      </trkpt>
      <trkpt lat="46.31325" lon="-0.61336">
        <ele>2.94</ele>
        <time>2025-10-20T20:43:39.776Z</time>
      </trkpt>
      <trkpt lat="46.31325" lon="-0.61291">
        <ele>2.94</ele>
        <time>2025-10-20T20:43:47.962Z</time>
      </trkpt>
      <trkpt lat="46.31319" lon="-0.61256">
        <ele>2.92</ele>
        <time>2025-10-20T20:43:56.153Z</time>
      </trkpt>
      <trkpt lat="46.31308" lon="-0.61214">
        <ele>2.83</ele>
        <time>2025-10-20T20:44:04.350Z</time>
      </trkpt>
      <trkpt lat="46.31296" lon="-0.61171">
        <ele>2.7</ele>
        <time>2025-10-20T20:44:12.553Z</time>
      </trkpt>
      <trkpt lat="46.31295" lon="-0.61167">
        <ele>2.71</ele>
        <time>2025-10-20T20:44:20.757Z</time>
      </trkpt>
      <trkpt lat="46.31292" lon="-0.61138">
        <ele>2.73</ele>
        <time>2025-10-20T20:44:28.965Z</time>
      </trkpt>
      <trkpt lat="46.31292" lon="-0.611">
        <ele>2.82</ele>
        <time>2025-10-20T20:44:37.178Z</time>
      </trkpt>
      <trkpt lat="46.31299" lon="-0.61062">
        <ele>2.88</ele>
        <time>2025-10-20T20:44:45.397Z</time>
      </trkpt>
      <trkpt lat="46.31316" lon="-0.61028">
        <ele>2.93</ele>
        <time>2025-10-20T20:44:53.622Z</time>
      </trkpt>
      <trkpt lat="46.31334" lon="-0.61006">
        <ele>2.92</ele>
        <time>2025-10-20T20:45:01.851Z</time>
      </trkpt>
      <trkpt lat="46.3136" lon="-0.6098">
        <ele>2.81</ele>
        <time>2025-10-20T20:45:10.087Z</time>
      </trkpt>
      <trkpt lat="46.31386" lon="-0.60955">
        <ele>2.82</ele>
        <time>2025-10-20T20:45:18.329Z</time>
      </trkpt>
      <trkpt lat="46.31412" lon="-0.60929">
        <ele>3.02</ele>
        <time>2025-10-20T20:45:26.577Z</time>
      </trkpt>
      <trkpt lat="46.31438" lon="-0.60904">
        <ele>3.18</ele>
        <time>2025-10-20T20:45:34.832Z</time>
      </trkpt>
      <trkpt lat="46.31464" lon="-0.60878">
        <ele>3.13</ele>
        <time>2025-10-20T20:45:43.093Z</time>
      </trkpt>
      <trkpt lat="46.31471" lon="-0.60871">
        <ele>3.18</ele>
        <time>2025-10-20T20:45:51.356Z</time>
      </trkpt>
      <trkpt lat="46.31482" lon="-0.60853">
        <ele>3.21</ele>
        <time>2025-10-20T20:45:59.622Z</time>
      </trkpt>
      <trkpt lat="46.31489" lon="-0.60828">
        <ele>3.27</ele>
        <time>2025-10-20T20:46:07.892Z</time>
      </trkpt>
      <trkpt lat="46.3149" lon="-0.60801">
        <ele>3.36</ele>
        <time>2025-10-20T20:46:16.165Z</time>
      </trkpt>
      <trkpt lat="46.31482" lon="-0.60757">
        <ele>3.46</ele>
        <time>2025-10-20T20:46:24.445Z</time>
      </trkpt>
      <trkpt lat="46.31475" lon="-0.60717">
        <ele>3.78</ele>
        <time>2025-10-20T20:46:32.730Z</time>
      </trkpt>
      <trkpt lat="46.31472" lon="-0.60686">
        <ele>4.05</ele>
        <time>2025-10-20T20:46:41.020Z</time>
      </trkpt>
      <trkpt lat="46.31475" lon="-0.60641">
        <ele>4.29</ele>
        <time>2025-10-20T20:46:49.316Z</time>
      </trkpt>
      <trkpt lat="46.31477" lon="-0.60605">
        <ele>4.49</ele>
        <time>2025-10-20T20:46:57.617Z</time>
      </trkpt>
      <trkpt lat="46.3148" lon="-0.6056">
        <ele>4.67</ele>
        <time>2025-10-20T20:47:05.924Z</time>
      </trkpt>
      <trkpt lat="46.31483" lon="-0.60515">
        <ele>4.93</ele>
        <time>2025-10-20T20:47:14.238Z</time>
      </trkpt>
      <trkpt lat="46.31486" lon="-0.60469">
        <ele>5.2</ele>
        <time>2025-10-20T20:47:22.558Z</time>
      </trkpt>
      <trkpt lat="46.31489" lon="-0.60424">
        <ele>5.4</ele>
        <time>2025-10-20T20:47:30.884Z</time>
      </trkpt>
      <trkpt lat="46.31492" lon="-0.60387">
        <ele>5.47</ele>
        <time>2025-10-20T20:47:39.215Z</time>
      </trkpt>
      <trkpt lat="46.31499" lon="-0.60343">
        <ele>5.6</ele>
        <time>2025-10-20T20:47:47.553Z</time>
      </trkpt>
      <trkpt lat="46.315" lon="-0.60332">
        <ele>5.73</ele>
        <time>2025-10-20T20:47:55.892Z</time>
      </trkpt>
      <trkpt lat="46.3151" lon="-0.60289">
        <ele>5.87</ele>
        <time>2025-10-20T20:48:04.237Z</time>
      </trkpt>
      <trkpt lat="46.31519" lon="-0.60245">
        <ele>6.04</ele>
        <time>2025-10-20T20:48:12.589Z</time>
      </trkpt>
      <trkpt lat="46.31521" lon="-0.60237">
        <ele>6.09</ele>
        <time>2025-10-20T20:48:20.942Z</time>
      </trkpt>
      <trkpt lat="46.31532" lon="-0.60194">
        <ele>6.1</ele>
        <time>2025-10-20T20:48:29.301Z</time>
      </trkpt>
      <trkpt lat="46.31542" lon="-0.60151">
        <ele>5.97</ele>
        <time>2025-10-20T20:48:37.667Z</time>
      </trkpt>
      <trkpt lat="46.31553" lon="-0.60109">
        <ele>5.91</ele>
        <time>2025-10-20T20:48:46.039Z</time>
      </trkpt>
      <trkpt lat="46.31563" lon="-0.60066">
        <ele>5.94</ele>
        <time>2025-10-20T20:48:54.417Z</time>
      </trkpt>
      <trkpt lat="46.31574" lon="-0.60023">
        <ele>5.81</ele>
        <time>2025-10-20T20:49:02.801Z</time>
      </trkpt>
      <trkpt lat="46.31578" lon="-0.60006">
        <ele>5.57</ele>
        <time>2025-10-20T20:49:11.188Z</time>
      </trkpt>
      <trkpt lat="46.31587" lon="-0.59983">
        <ele>5.3</ele>
        <time>2025-10-20T20:49:19.579Z</time>
      </trkpt>
      <trkpt lat="46.31607" lon="-0.59948">
        <ele>5.02</ele>
        <time>2025-10-20T20:49:27.976Z</time>
      </trkpt>
      <trkpt lat="46.31609" lon="-0.59944">
        <ele>4.85</ele>
        <time>2025-10-20T20:49:36.374Z</time>
      </trkpt>
      <trkpt lat="46.31632" lon="-0.59913">
        <ele>4.64</ele>
        <time>2025-10-20T20:49:44.778Z</time>
      </trkpt>
      <trkpt lat="46.31641" lon="-0.59901">
        <ele>4.48</ele>
        <time>2025-10-20T20:49:53.184Z</time>
      </trkpt>
      <trkpt lat="46.31666" lon="-0.59873">
        <ele>4.31</ele>
        <time>2025-10-20T20:50:01.597Z</time>
      </trkpt>
      <trkpt lat="46.3169" lon="-0.59844">
        <ele>4.22</ele>
        <time>2025-10-20T20:50:10.016Z</time>
      </trkpt>
      <trkpt lat="46.31691" lon="-0.59843">
        <ele>4.15</ele>
        <time>2025-10-20T20:50:18.435Z</time>
      </trkpt>
      <trkpt lat="46.31699" lon="-0.59832">
        <ele>4.1</ele>
        <time>2025-10-20T20:50:26.856Z</time>
      </trkpt>
      <trkpt lat="46.31703" lon="-0.59806">
        <ele>4.09</ele>
        <time>2025-10-20T20:50:35.281Z</time>
      </trkpt>
      <trkpt lat="46.31712" lon="-0.59762">
        <ele>4.11</ele>
        <time>2025-10-20T20:50:43.712Z</time>
      </trkpt>
      <trkpt lat="46.31716" lon="-0.59742">
        <ele>4.18</ele>
        <time>2025-10-20T20:50:52.146Z</time>
      </trkpt>
      <trkpt lat="46.3172" lon="-0.59697">
        <ele>4.41</ele>
        <time>2025-10-20T20:51:00.587Z</time>
      </trkpt>
      <trkpt lat="46.31724" lon="-0.59652">
        <ele>4.48</ele>
        <time>2025-10-20T20:51:09.034Z</time>
      </trkpt>
      <trkpt lat="46.31727" lon="-0.59607">
        <ele>4.49</ele>
        <time>2025-10-20T20:51:17.487Z</time>
      </trkpt>
      <trkpt lat="46.31729" lon="-0.59585">
        <ele>4.49</ele>
        <time>2025-10-20T20:51:25.943Z</time>
      </trkpt>
      <trkpt lat="46.31739" lon="-0.59545">
        <ele>4.43</ele>
        <time>2025-10-20T20:51:34.405Z</time>
      </trkpt>
      <trkpt lat="46.31742" lon="-0.59534">
        <ele>4.45</ele>
        <time>2025-10-20T20:51:42.869Z</time>
      </trkpt>
      <trkpt lat="46.31758" lon="-0.59495">
        <ele>4.47</ele>
        <time>2025-10-20T20:51:51.339Z</time>
      </trkpt>
      <trkpt lat="46.31768" lon="-0.59472">
        <ele>4.5</ele>
        <time>2025-10-20T20:51:59.813Z</time>
      </trkpt>
      <trkpt lat="46.31782" lon="-0.59445">
        <ele>4.47</ele>
        <time>2025-10-20T20:52:08.292Z</time>
      </trkpt>
      <trkpt lat="46.31788" lon="-0.5944">
        <ele>4.51</ele>
        <time>2025-10-20T20:52:16.772Z</time>
      </trkpt>
      <trkpt lat="46.31791" lon="-0.59425">
        <ele>4.56</ele>
        <time>2025-10-20T20:52:25.254Z</time>
      </trkpt>
      <trkpt lat="46.31811" lon="-0.5939">
        <ele>4.67</ele>
        <time>2025-10-20T20:52:33.742Z</time>
      </trkpt>
      <trkpt lat="46.31831" lon="-0.59355">
        <ele>4.75</ele>
        <time>2025-10-20T20:52:42.237Z</time>
      </trkpt>
      <trkpt lat="46.31851" lon="-0.5932">
        <ele>4.72</ele>
        <time>2025-10-20T20:52:50.738Z</time>
      </trkpt>
      <trkpt lat="46.31871" lon="-0.59285">
        <ele>4.73</ele>
        <time>2025-10-20T20:52:59.245Z</time>
      </trkpt>
      <trkpt lat="46.31883" lon="-0.59264">
        <ele>4.71</ele>
        <time>2025-10-20T20:53:07.756Z</time>
      </trkpt>
      <trkpt lat="46.31896" lon="-0.59223">
        <ele>4.68</ele>
        <time>2025-10-20T20:53:16.273Z</time>
      </trkpt>
      <trkpt lat="46.31904" lon="-0.59179">
        <ele>4.74</ele>
        <time>2025-10-20T20:53:24.797Z</time>
      </trkpt>
      <trkpt lat="46.31906" lon="-0.59168">
        <ele>4.79</ele>
        <time>2025-10-20T20:53:33.322Z</time>
      </trkpt>
      <trkpt lat="46.31916" lon="-0.59125">
        <ele>4.9</ele>
        <time>2025-10-20T20:53:41.853Z</time>
      </trkpt>
      <trkpt lat="46.31921" lon="-0.59106">
        <ele>4.9</ele>
        <time>2025-10-20T20:53:50.387Z</time>
      </trkpt>
      <trkpt lat="46.31938" lon="-0.59068">
        <ele>4.94</ele>
        <time>2025-10-20T20:53:58.928Z</time>
      </trkpt>
      <trkpt lat="46.31946" lon="-0.59051">
        <ele>4.94</ele>
        <time>2025-10-20T20:54:07.471Z</time>
      </trkpt>
      <trkpt lat="46.31954" lon="-0.59012">
        <ele>4.95</ele>
        <time>2025-10-20T20:54:16.020Z</time>
      </trkpt>
      <trkpt lat="46.31968" lon="-0.58971">
        <ele>4.81</ele>
        <time>2025-10-20T20:54:24.575Z</time>
      </trkpt>
      <trkpt lat="46.31982" lon="-0.5893">
        <ele>4.6</ele>
        <time>2025-10-20T20:54:33.137Z</time>
      </trkpt>
      <trkpt lat="46.31993" lon="-0.58896">
        <ele>4.54</ele>
        <time>2025-10-20T20:54:41.704Z</time>
      </trkpt>
      <trkpt lat="46.32021" lon="-0.58916">
        <ele>4.48</ele>
        <time>2025-10-20T20:54:50.277Z</time>
      </trkpt>
      <trkpt lat="46.32049" lon="-0.58936">
        <ele>4.34</ele>
        <time>2025-10-20T20:54:58.856Z</time>
      </trkpt>
      <trkpt lat="46.3206" lon="-0.58944">
        <ele>4.36</ele>
        <time>2025-10-20T20:55:07.438Z</time>
      </trkpt>
      <trkpt lat="46.32082" lon="-0.58958">
        <ele>4.41</ele>
        <time>2025-10-20T20:55:16.025Z</time>
      </trkpt>
      <trkpt lat="46.32111" lon="-0.58977">
        <ele>4.65</ele>
        <time>2025-10-20T20:55:24.618Z</time>
      </trkpt>
      <trkpt lat="46.32138" lon="-0.58995">
        <ele>4.81</ele>
        <time>2025-10-20T20:55:33.217Z</time>
      </trkpt>
      <trkpt lat="46.32154" lon="-0.58956">
        <ele>4.9</ele>
        <time>2025-10-20T20:55:41.822Z</time>
      </trkpt>
      <trkpt lat="46.32161" lon="-0.58938">
        <ele>5.02</ele>
        <time>2025-10-20T20:55:50.430Z</time>
      </trkpt>
      <trkpt lat="46.32184" lon="-0.58906">
        <ele>5.16</ele>
        <time>2025-10-20T20:55:59.044Z</time>
      </trkpt>
      <trkpt lat="46.32206" lon="-0.58875">
        <ele>5.32</ele>
        <time>2025-10-20T20:56:07.665Z</time>
      </trkpt>
      <trkpt lat="46.32229" lon="-0.58843">
        <ele>5.52</ele>
        <time>2025-10-20T20:56:16.292Z</time>
      </trkpt>
      <trkpt lat="46.3224" lon="-0.58827">
        <ele>5.75</ele>
        <time>2025-10-20T20:56:24.922Z</time>
      </trkpt>
      <trkpt lat="46.32262" lon="-0.58794">
        <ele>5.95</ele>
        <time>2025-10-20T20:56:33.558Z</time>
      </trkpt>
      <trkpt lat="46.3228" lon="-0.58766">
        <ele>6.07</ele>
        <time>2025-10-20T20:56:42.200Z</time>
      </trkpt>
      <trkpt lat="46.323" lon="-0.58731">
        <ele>6.19</ele>
        <time>2025-10-20T20:56:50.848Z</time>
      </trkpt>
      <trkpt lat="46.32315" lon="-0.58706">
        <ele>6.29</ele>
        <time>2025-10-20T20:56:59.501Z</time>
      </trkpt>
      <trkpt lat="46.32331" lon="-0.58667">
        <ele>6.41</ele>
        <time>2025-10-20T20:57:08.160Z</time>
      </trkpt>
      <trkpt lat="46.32338" lon="-0.5865">
        <ele>6.5</ele>
        <time>2025-10-20T20:57:16.822Z</time>
      </trkpt>
      <trkpt lat="46.32347" lon="-0.58609">
        <ele>6.63</ele>
        <time>2025-10-20T20:57:25.490Z</time>
      </trkpt>
      <trkpt lat="46.32354" lon="-0.58566">
        <ele>6.79</ele>
        <time>2025-10-20T20:57:34.164Z</time>
      </trkpt>
      <trkpt lat="46.3235" lon="-0.58562">
        <ele>6.92</ele>
        <time>2025-10-20T20:57:42.839Z</time>
      </trkpt>
      <trkpt lat="46.32351" lon="-0.58553">
        <ele>7.08</ele>
        <time>2025-10-20T20:57:51.515Z</time>
      </trkpt>
      <trkpt lat="46.32356" lon="-0.5855">
        <ele>7.22</ele>
        <time>2025-10-20T20:58:00.192Z</time>
      </trkpt>
      <trkpt lat="46.32359" lon="-0.58551">
        <ele>7.34</ele>
        <time>2025-10-20T20:58:08.870Z</time>
      </trkpt>
      <trkpt lat="46.32377" lon="-0.58523">
        <ele>7.52</ele>
        <time>2025-10-20T20:58:17.553Z</time>
      </trkpt>
      <trkpt lat="46.32394" lon="-0.58484">
        <ele>7.66</ele>
        <time>2025-10-20T20:58:26.242Z</time>
      </trkpt>
      <trkpt lat="46.32404" lon="-0.5846">
        <ele>7.79</ele>
        <time>2025-10-20T20:58:34.935Z</time>
      </trkpt>
      <trkpt lat="46.32416" lon="-0.58418">
        <ele>7.9</ele>
        <time>2025-10-20T20:58:43.635Z</time>
      </trkpt>
      <trkpt lat="46.32418" lon="-0.58411">
        <ele>7.97</ele>
        <time>2025-10-20T20:58:52.336Z</time>
      </trkpt>
    </trkseg>
  </trk>
</gpx>